<?xml version="1.0" encoding="UTF-8" standalone="no" ?>
<gpx xmlns="http://www.topografix.com/GPX/1/1" xmlns:xsi="http://www.w3.org/2001/XMLSchema-instance" xsi:schemaLocation="http://www.topografix.com/GPX/1/1 http://www.topografix.com/GPX/1/1/gpx.xsd" version="1.1" creator="VisuGPX - https://www.visugpx.com">
  <metadata>
    <name>CURRENT TRACK- 08 OCT 2020 VEIGY GENEVE ARVE</name>
    <desc><![CDATA[CURRENT TRACK- 08 OCT 2020 VEIGY GENEVE ARVE HW]]></desc>
  </metadata>
  <trk>
    <name><![CDATA[CURRENT TRACK- 08 OCT 2020 VEIGY GENEVE ARVE]]></name>
    <trkseg>
      <trkpt lat="46.26702" lon="6.25962">
        <ele>386.54</ele>
        <time>2020-10-07T11:44:29Z</time>
      </trkpt>
      <trkpt lat="46.26808" lon="6.25693">
        <ele>386.54</ele>
        <time>2020-10-07T11:51:11Z</time>
      </trkpt>
      <trkpt lat="46.26781" lon="6.2571">
        <ele>386.65</ele>
        <time>2020-10-07T11:52:16Z</time>
      </trkpt>
      <trkpt lat="46.26803" lon="6.25696">
        <ele>386.65</ele>
        <time>2020-10-07T11:53:50Z</time>
      </trkpt>
      <trkpt lat="46.26807" lon="6.25687">
        <ele>341.78</ele>
        <time>2020-10-08T09:15:40Z</time>
      </trkpt>
      <trkpt lat="46.26824" lon="6.25677">
        <ele>472.87</ele>
        <time>2020-10-08T09:25:13Z</time>
      </trkpt>
      <trkpt lat="46.26831" lon="6.2565">
        <ele>472.87</ele>
        <time>2020-10-08T09:25:21Z</time>
      </trkpt>
      <trkpt lat="46.2684" lon="6.25622">
        <ele>472.87</ele>
        <time>2020-10-08T09:25:28Z</time>
      </trkpt>
      <trkpt lat="46.26844" lon="6.25592">
        <ele>472.87</ele>
        <time>2020-10-08T09:25:33Z</time>
      </trkpt>
      <trkpt lat="46.26844" lon="6.25567">
        <ele>472.87</ele>
        <time>2020-10-08T09:25:49Z</time>
      </trkpt>
      <trkpt lat="46.26823" lon="6.25556">
        <ele>472.87</ele>
        <time>2020-10-08T09:25:55Z</time>
      </trkpt>
      <trkpt lat="46.26804" lon="6.25545">
        <ele>472.87</ele>
        <time>2020-10-08T09:26:00Z</time>
      </trkpt>
      <trkpt lat="46.26786" lon="6.25528">
        <ele>472.87</ele>
        <time>2020-10-08T09:26:05Z</time>
      </trkpt>
      <trkpt lat="46.26773" lon="6.25508">
        <ele>472.87</ele>
        <time>2020-10-08T09:26:09Z</time>
      </trkpt>
      <trkpt lat="46.2676" lon="6.25484">
        <ele>472.87</ele>
        <time>2020-10-08T09:26:14Z</time>
      </trkpt>
      <trkpt lat="46.26748" lon="6.25461">
        <ele>472.87</ele>
        <time>2020-10-08T09:26:19Z</time>
      </trkpt>
      <trkpt lat="46.26736" lon="6.25438">
        <ele>472.87</ele>
        <time>2020-10-08T09:26:24Z</time>
      </trkpt>
      <trkpt lat="46.2672" lon="6.25419">
        <ele>472.87</ele>
        <time>2020-10-08T09:26:29Z</time>
      </trkpt>
      <trkpt lat="46.26702" lon="6.25404">
        <ele>472.87</ele>
        <time>2020-10-08T09:26:34Z</time>
      </trkpt>
      <trkpt lat="46.26685" lon="6.25388">
        <ele>472.87</ele>
        <time>2020-10-08T09:26:39Z</time>
      </trkpt>
      <trkpt lat="46.26665" lon="6.25373">
        <ele>472.87</ele>
        <time>2020-10-08T09:26:44Z</time>
      </trkpt>
      <trkpt lat="46.2665" lon="6.25359">
        <ele>472.87</ele>
        <time>2020-10-08T09:26:48Z</time>
      </trkpt>
      <trkpt lat="46.26631" lon="6.25342">
        <ele>476.03</ele>
        <time>2020-10-08T09:26:53Z</time>
      </trkpt>
      <trkpt lat="46.26615" lon="6.25327">
        <ele>476.31</ele>
        <time>2020-10-08T09:26:57Z</time>
      </trkpt>
      <trkpt lat="46.26599" lon="6.25314">
        <ele>476.35</ele>
        <time>2020-10-08T09:27:01Z</time>
      </trkpt>
      <trkpt lat="46.26582" lon="6.25297">
        <ele>476.4</ele>
        <time>2020-10-08T09:27:05Z</time>
      </trkpt>
      <trkpt lat="46.26565" lon="6.25278">
        <ele>476.42</ele>
        <time>2020-10-08T09:27:09Z</time>
      </trkpt>
      <trkpt lat="46.26548" lon="6.25267">
        <ele>476.26</ele>
        <time>2020-10-08T09:27:13Z</time>
      </trkpt>
      <trkpt lat="46.2653" lon="6.2526">
        <ele>476.03</ele>
        <time>2020-10-08T09:27:18Z</time>
      </trkpt>
      <trkpt lat="46.26529" lon="6.25285">
        <ele>475.76</ele>
        <time>2020-10-08T09:27:42Z</time>
      </trkpt>
      <trkpt lat="46.26527" lon="6.25312">
        <ele>475.98</ele>
        <time>2020-10-08T09:27:52Z</time>
      </trkpt>
      <trkpt lat="46.26525" lon="6.25338">
        <ele>476.43</ele>
        <time>2020-10-08T09:28:14Z</time>
      </trkpt>
      <trkpt lat="46.26533" lon="6.25345">
        <ele>476.43</ele>
        <time>2020-10-08T09:28:31Z</time>
      </trkpt>
      <trkpt lat="46.26521" lon="6.25332">
        <ele>476.43</ele>
        <time>2020-10-08T09:39:38Z</time>
      </trkpt>
      <trkpt lat="46.26516" lon="6.25303">
        <ele>476.43</ele>
        <time>2020-10-08T09:39:47Z</time>
      </trkpt>
      <trkpt lat="46.26502" lon="6.25282">
        <ele>476.43</ele>
        <time>2020-10-08T09:39:52Z</time>
      </trkpt>
      <trkpt lat="46.26492" lon="6.25259">
        <ele>476.43</ele>
        <time>2020-10-08T09:39:59Z</time>
      </trkpt>
      <trkpt lat="46.26474" lon="6.25247">
        <ele>476.43</ele>
        <time>2020-10-08T09:40:04Z</time>
      </trkpt>
      <trkpt lat="46.26461" lon="6.25227">
        <ele>476.43</ele>
        <time>2020-10-08T09:40:08Z</time>
      </trkpt>
      <trkpt lat="46.26441" lon="6.25217">
        <ele>476.43</ele>
        <time>2020-10-08T09:40:12Z</time>
      </trkpt>
      <trkpt lat="46.26425" lon="6.25203">
        <ele>476.43</ele>
        <time>2020-10-08T09:40:16Z</time>
      </trkpt>
      <trkpt lat="46.26414" lon="6.25181">
        <ele>476.43</ele>
        <time>2020-10-08T09:40:20Z</time>
      </trkpt>
      <trkpt lat="46.26402" lon="6.25157">
        <ele>476.43</ele>
        <time>2020-10-08T09:40:24Z</time>
      </trkpt>
      <trkpt lat="46.26391" lon="6.25134">
        <ele>476.43</ele>
        <time>2020-10-08T09:40:28Z</time>
      </trkpt>
      <trkpt lat="46.26378" lon="6.25112">
        <ele>476.43</ele>
        <time>2020-10-08T09:40:32Z</time>
      </trkpt>
      <trkpt lat="46.26363" lon="6.25089">
        <ele>476.43</ele>
        <time>2020-10-08T09:40:36Z</time>
      </trkpt>
      <trkpt lat="46.2635" lon="6.25071">
        <ele>476.43</ele>
        <time>2020-10-08T09:40:40Z</time>
      </trkpt>
      <trkpt lat="46.26334" lon="6.25054">
        <ele>476.43</ele>
        <time>2020-10-08T09:40:45Z</time>
      </trkpt>
      <trkpt lat="46.26318" lon="6.25036">
        <ele>476.43</ele>
        <time>2020-10-08T09:40:50Z</time>
      </trkpt>
      <trkpt lat="46.26303" lon="6.25019">
        <ele>476.43</ele>
        <time>2020-10-08T09:40:54Z</time>
      </trkpt>
      <trkpt lat="46.26287" lon="6.25002">
        <ele>476.43</ele>
        <time>2020-10-08T09:40:58Z</time>
      </trkpt>
      <trkpt lat="46.26271" lon="6.24983">
        <ele>476.43</ele>
        <time>2020-10-08T09:41:02Z</time>
      </trkpt>
      <trkpt lat="46.26255" lon="6.24967">
        <ele>476.43</ele>
        <time>2020-10-08T09:41:06Z</time>
      </trkpt>
      <trkpt lat="46.26239" lon="6.24974">
        <ele>476.43</ele>
        <time>2020-10-08T09:41:56Z</time>
      </trkpt>
      <trkpt lat="46.26216" lon="6.24979">
        <ele>476.43</ele>
        <time>2020-10-08T09:42:02Z</time>
      </trkpt>
      <trkpt lat="46.26196" lon="6.24966">
        <ele>476.43</ele>
        <time>2020-10-08T09:42:07Z</time>
      </trkpt>
      <trkpt lat="46.26179" lon="6.24955">
        <ele>476.43</ele>
        <time>2020-10-08T09:42:11Z</time>
      </trkpt>
      <trkpt lat="46.2616" lon="6.24944">
        <ele>476.43</ele>
        <time>2020-10-08T09:42:16Z</time>
      </trkpt>
      <trkpt lat="46.26141" lon="6.24935">
        <ele>476.43</ele>
        <time>2020-10-08T09:42:21Z</time>
      </trkpt>
      <trkpt lat="46.2612" lon="6.24926">
        <ele>476.43</ele>
        <time>2020-10-08T09:42:26Z</time>
      </trkpt>
      <trkpt lat="46.26103" lon="6.24918">
        <ele>476.43</ele>
        <time>2020-10-08T09:42:30Z</time>
      </trkpt>
      <trkpt lat="46.26085" lon="6.2491">
        <ele>476.43</ele>
        <time>2020-10-08T09:42:34Z</time>
      </trkpt>
      <trkpt lat="46.26065" lon="6.249">
        <ele>476.43</ele>
        <time>2020-10-08T09:42:38Z</time>
      </trkpt>
      <trkpt lat="46.26045" lon="6.24889">
        <ele>476.43</ele>
        <time>2020-10-08T09:42:42Z</time>
      </trkpt>
      <trkpt lat="46.26024" lon="6.24874">
        <ele>476.43</ele>
        <time>2020-10-08T09:42:46Z</time>
      </trkpt>
      <trkpt lat="46.26005" lon="6.24857">
        <ele>476.43</ele>
        <time>2020-10-08T09:42:50Z</time>
      </trkpt>
      <trkpt lat="46.25984" lon="6.24841">
        <ele>476.43</ele>
        <time>2020-10-08T09:42:54Z</time>
      </trkpt>
      <trkpt lat="46.25962" lon="6.24827">
        <ele>476.43</ele>
        <time>2020-10-08T09:42:58Z</time>
      </trkpt>
      <trkpt lat="46.25941" lon="6.24814">
        <ele>476.43</ele>
        <time>2020-10-08T09:43:02Z</time>
      </trkpt>
      <trkpt lat="46.25922" lon="6.248">
        <ele>476.43</ele>
        <time>2020-10-08T09:43:06Z</time>
      </trkpt>
      <trkpt lat="46.25903" lon="6.24785">
        <ele>476.43</ele>
        <time>2020-10-08T09:43:10Z</time>
      </trkpt>
      <trkpt lat="46.25886" lon="6.24771">
        <ele>476.43</ele>
        <time>2020-10-08T09:43:14Z</time>
      </trkpt>
      <trkpt lat="46.2587" lon="6.24758">
        <ele>476.43</ele>
        <time>2020-10-08T09:43:18Z</time>
      </trkpt>
      <trkpt lat="46.25854" lon="6.24745">
        <ele>476.43</ele>
        <time>2020-10-08T09:43:22Z</time>
      </trkpt>
      <trkpt lat="46.25835" lon="6.24731">
        <ele>476.43</ele>
        <time>2020-10-08T09:43:27Z</time>
      </trkpt>
      <trkpt lat="46.25818" lon="6.24718">
        <ele>476.43</ele>
        <time>2020-10-08T09:43:32Z</time>
      </trkpt>
      <trkpt lat="46.258" lon="6.24704">
        <ele>476.43</ele>
        <time>2020-10-08T09:43:37Z</time>
      </trkpt>
      <trkpt lat="46.25783" lon="6.24692">
        <ele>476.43</ele>
        <time>2020-10-08T09:43:41Z</time>
      </trkpt>
      <trkpt lat="46.25766" lon="6.2468">
        <ele>476.43</ele>
        <time>2020-10-08T09:43:45Z</time>
      </trkpt>
      <trkpt lat="46.25747" lon="6.24665">
        <ele>476.43</ele>
        <time>2020-10-08T09:43:50Z</time>
      </trkpt>
      <trkpt lat="46.25732" lon="6.24653">
        <ele>476.43</ele>
        <time>2020-10-08T09:43:55Z</time>
      </trkpt>
      <trkpt lat="46.25714" lon="6.24638">
        <ele>476.43</ele>
        <time>2020-10-08T09:44:01Z</time>
      </trkpt>
      <trkpt lat="46.25696" lon="6.24622">
        <ele>476.43</ele>
        <time>2020-10-08T09:44:07Z</time>
      </trkpt>
      <trkpt lat="46.25681" lon="6.24607">
        <ele>483.51</ele>
        <time>2020-10-08T09:44:11Z</time>
      </trkpt>
      <trkpt lat="46.25663" lon="6.24589">
        <ele>481.82</ele>
        <time>2020-10-08T09:44:15Z</time>
      </trkpt>
      <trkpt lat="46.25648" lon="6.24571">
        <ele>481.66</ele>
        <time>2020-10-08T09:44:18Z</time>
      </trkpt>
      <trkpt lat="46.25634" lon="6.24551">
        <ele>481.65</ele>
        <time>2020-10-08T09:44:21Z</time>
      </trkpt>
      <trkpt lat="46.25622" lon="6.24531">
        <ele>481.65</ele>
        <time>2020-10-08T09:44:24Z</time>
      </trkpt>
      <trkpt lat="46.25606" lon="6.24509">
        <ele>481.64</ele>
        <time>2020-10-08T09:44:28Z</time>
      </trkpt>
      <trkpt lat="46.25589" lon="6.2449">
        <ele>481.5</ele>
        <time>2020-10-08T09:44:32Z</time>
      </trkpt>
      <trkpt lat="46.25573" lon="6.24471">
        <ele>481.33</ele>
        <time>2020-10-08T09:44:36Z</time>
      </trkpt>
      <trkpt lat="46.25553" lon="6.24453">
        <ele>481.23</ele>
        <time>2020-10-08T09:44:40Z</time>
      </trkpt>
      <trkpt lat="46.25536" lon="6.24439">
        <ele>481.19</ele>
        <time>2020-10-08T09:44:43Z</time>
      </trkpt>
      <trkpt lat="46.25519" lon="6.24425">
        <ele>481.19</ele>
        <time>2020-10-08T09:44:47Z</time>
      </trkpt>
      <trkpt lat="46.25502" lon="6.24409">
        <ele>481.09</ele>
        <time>2020-10-08T09:44:51Z</time>
      </trkpt>
      <trkpt lat="46.25485" lon="6.24394">
        <ele>481.04</ele>
        <time>2020-10-08T09:44:55Z</time>
      </trkpt>
      <trkpt lat="46.25467" lon="6.24379">
        <ele>481.14</ele>
        <time>2020-10-08T09:44:59Z</time>
      </trkpt>
      <trkpt lat="46.25448" lon="6.24364">
        <ele>481.41</ele>
        <time>2020-10-08T09:45:03Z</time>
      </trkpt>
      <trkpt lat="46.25429" lon="6.24349">
        <ele>481.67</ele>
        <time>2020-10-08T09:45:07Z</time>
      </trkpt>
      <trkpt lat="46.25411" lon="6.24333">
        <ele>481.94</ele>
        <time>2020-10-08T09:45:11Z</time>
      </trkpt>
      <trkpt lat="46.25392" lon="6.24317">
        <ele>481.94</ele>
        <time>2020-10-08T09:45:15Z</time>
      </trkpt>
      <trkpt lat="46.25373" lon="6.243">
        <ele>481.94</ele>
        <time>2020-10-08T09:45:19Z</time>
      </trkpt>
      <trkpt lat="46.25354" lon="6.24285">
        <ele>481.94</ele>
        <time>2020-10-08T09:45:23Z</time>
      </trkpt>
      <trkpt lat="46.25337" lon="6.24269">
        <ele>481.94</ele>
        <time>2020-10-08T09:45:27Z</time>
      </trkpt>
      <trkpt lat="46.2532" lon="6.24256">
        <ele>481.94</ele>
        <time>2020-10-08T09:45:40Z</time>
      </trkpt>
      <trkpt lat="46.25302" lon="6.24237">
        <ele>481.94</ele>
        <time>2020-10-08T09:45:46Z</time>
      </trkpt>
      <trkpt lat="46.25283" lon="6.24219">
        <ele>481.94</ele>
        <time>2020-10-08T09:45:51Z</time>
      </trkpt>
      <trkpt lat="46.25265" lon="6.24202">
        <ele>481.94</ele>
        <time>2020-10-08T09:45:55Z</time>
      </trkpt>
      <trkpt lat="46.25246" lon="6.24184">
        <ele>481.94</ele>
        <time>2020-10-08T09:45:59Z</time>
      </trkpt>
      <trkpt lat="46.25227" lon="6.24165">
        <ele>481.94</ele>
        <time>2020-10-08T09:46:03Z</time>
      </trkpt>
      <trkpt lat="46.25208" lon="6.24146">
        <ele>481.94</ele>
        <time>2020-10-08T09:46:07Z</time>
      </trkpt>
      <trkpt lat="46.25188" lon="6.24126">
        <ele>481.94</ele>
        <time>2020-10-08T09:46:11Z</time>
      </trkpt>
      <trkpt lat="46.25172" lon="6.2411">
        <ele>481.94</ele>
        <time>2020-10-08T09:46:14Z</time>
      </trkpt>
      <trkpt lat="46.25157" lon="6.24094">
        <ele>481.94</ele>
        <time>2020-10-08T09:46:17Z</time>
      </trkpt>
      <trkpt lat="46.25141" lon="6.24078">
        <ele>481.94</ele>
        <time>2020-10-08T09:46:20Z</time>
      </trkpt>
      <trkpt lat="46.25124" lon="6.24064">
        <ele>481.94</ele>
        <time>2020-10-08T09:46:23Z</time>
      </trkpt>
      <trkpt lat="46.25109" lon="6.24049">
        <ele>481.94</ele>
        <time>2020-10-08T09:46:26Z</time>
      </trkpt>
      <trkpt lat="46.25089" lon="6.2403">
        <ele>481.94</ele>
        <time>2020-10-08T09:46:30Z</time>
      </trkpt>
      <trkpt lat="46.2507" lon="6.24011">
        <ele>481.94</ele>
        <time>2020-10-08T09:46:34Z</time>
      </trkpt>
      <trkpt lat="46.25052" lon="6.23993">
        <ele>481.94</ele>
        <time>2020-10-08T09:46:38Z</time>
      </trkpt>
      <trkpt lat="46.25033" lon="6.23973">
        <ele>481.94</ele>
        <time>2020-10-08T09:46:42Z</time>
      </trkpt>
      <trkpt lat="46.25016" lon="6.23953">
        <ele>481.94</ele>
        <time>2020-10-08T09:46:46Z</time>
      </trkpt>
      <trkpt lat="46.25" lon="6.23932">
        <ele>481.94</ele>
        <time>2020-10-08T09:46:50Z</time>
      </trkpt>
      <trkpt lat="46.24984" lon="6.23909">
        <ele>481.94</ele>
        <time>2020-10-08T09:46:54Z</time>
      </trkpt>
      <trkpt lat="46.2497" lon="6.23883">
        <ele>481.94</ele>
        <time>2020-10-08T09:46:58Z</time>
      </trkpt>
      <trkpt lat="46.24957" lon="6.23857">
        <ele>481.94</ele>
        <time>2020-10-08T09:47:02Z</time>
      </trkpt>
      <trkpt lat="46.24943" lon="6.23831">
        <ele>481.94</ele>
        <time>2020-10-08T09:47:06Z</time>
      </trkpt>
      <trkpt lat="46.24929" lon="6.23803">
        <ele>481.94</ele>
        <time>2020-10-08T09:47:10Z</time>
      </trkpt>
      <trkpt lat="46.24916" lon="6.23776">
        <ele>479.16</ele>
        <time>2020-10-08T09:47:14Z</time>
      </trkpt>
      <trkpt lat="46.24904" lon="6.23752">
        <ele>479.06</ele>
        <time>2020-10-08T09:47:18Z</time>
      </trkpt>
      <trkpt lat="46.24891" lon="6.23726">
        <ele>479.04</ele>
        <time>2020-10-08T09:47:23Z</time>
      </trkpt>
      <trkpt lat="46.2488" lon="6.23706">
        <ele>478.99</ele>
        <time>2020-10-08T09:47:28Z</time>
      </trkpt>
      <trkpt lat="46.24868" lon="6.23683">
        <ele>478.94</ele>
        <time>2020-10-08T09:47:34Z</time>
      </trkpt>
      <trkpt lat="46.2486" lon="6.23658">
        <ele>479.05</ele>
        <time>2020-10-08T09:47:40Z</time>
      </trkpt>
      <trkpt lat="46.24859" lon="6.2365">
        <ele>479.71</ele>
        <time>2020-10-08T09:47:50Z</time>
      </trkpt>
      <trkpt lat="46.24843" lon="6.23645">
        <ele>479.69</ele>
        <time>2020-10-08T09:48:10Z</time>
      </trkpt>
      <trkpt lat="46.24827" lon="6.23626">
        <ele>479.72</ele>
        <time>2020-10-08T09:48:15Z</time>
      </trkpt>
      <trkpt lat="46.24812" lon="6.23609">
        <ele>479.72</ele>
        <time>2020-10-08T09:48:19Z</time>
      </trkpt>
      <trkpt lat="46.24796" lon="6.23589">
        <ele>479.72</ele>
        <time>2020-10-08T09:48:24Z</time>
      </trkpt>
      <trkpt lat="46.2478" lon="6.23575">
        <ele>479.72</ele>
        <time>2020-10-08T09:48:28Z</time>
      </trkpt>
      <trkpt lat="46.24762" lon="6.23557">
        <ele>479.72</ele>
        <time>2020-10-08T09:48:33Z</time>
      </trkpt>
      <trkpt lat="46.24743" lon="6.23541">
        <ele>479.72</ele>
        <time>2020-10-08T09:48:38Z</time>
      </trkpt>
      <trkpt lat="46.24728" lon="6.23524">
        <ele>479.72</ele>
        <time>2020-10-08T09:48:43Z</time>
      </trkpt>
      <trkpt lat="46.24712" lon="6.23509">
        <ele>479.72</ele>
        <time>2020-10-08T09:48:48Z</time>
      </trkpt>
      <trkpt lat="46.24696" lon="6.23495">
        <ele>479.72</ele>
        <time>2020-10-08T09:48:52Z</time>
      </trkpt>
      <trkpt lat="46.24684" lon="6.23475">
        <ele>479.72</ele>
        <time>2020-10-08T09:48:57Z</time>
      </trkpt>
      <trkpt lat="46.2468" lon="6.23446">
        <ele>479.72</ele>
        <time>2020-10-08T09:49:03Z</time>
      </trkpt>
      <trkpt lat="46.24671" lon="6.23418">
        <ele>479.72</ele>
        <time>2020-10-08T09:49:09Z</time>
      </trkpt>
      <trkpt lat="46.24659" lon="6.23395">
        <ele>479.72</ele>
        <time>2020-10-08T09:49:14Z</time>
      </trkpt>
      <trkpt lat="46.24645" lon="6.2337">
        <ele>484.07</ele>
        <time>2020-10-08T09:49:19Z</time>
      </trkpt>
      <trkpt lat="46.24632" lon="6.23346">
        <ele>484.03</ele>
        <time>2020-10-08T09:49:23Z</time>
      </trkpt>
      <trkpt lat="46.2462" lon="6.23325">
        <ele>483.89</ele>
        <time>2020-10-08T09:49:26Z</time>
      </trkpt>
      <trkpt lat="46.24609" lon="6.23302">
        <ele>483.65</ele>
        <time>2020-10-08T09:49:29Z</time>
      </trkpt>
      <trkpt lat="46.24602" lon="6.23275">
        <ele>483.18</ele>
        <time>2020-10-08T09:49:32Z</time>
      </trkpt>
      <trkpt lat="46.246" lon="6.23248">
        <ele>482.67</ele>
        <time>2020-10-08T09:49:35Z</time>
      </trkpt>
      <trkpt lat="46.24595" lon="6.23215">
        <ele>482.15</ele>
        <time>2020-10-08T09:49:39Z</time>
      </trkpt>
      <trkpt lat="46.24591" lon="6.23187">
        <ele>481.93</ele>
        <time>2020-10-08T09:49:43Z</time>
      </trkpt>
      <trkpt lat="46.24583" lon="6.2316">
        <ele>481.85</ele>
        <time>2020-10-08T09:49:48Z</time>
      </trkpt>
      <trkpt lat="46.24573" lon="6.23135">
        <ele>481.98</ele>
        <time>2020-10-08T09:49:53Z</time>
      </trkpt>
      <trkpt lat="46.24563" lon="6.23113">
        <ele>482.27</ele>
        <time>2020-10-08T09:49:57Z</time>
      </trkpt>
      <trkpt lat="46.24551" lon="6.23089">
        <ele>482.59</ele>
        <time>2020-10-08T09:50:01Z</time>
      </trkpt>
      <trkpt lat="46.24538" lon="6.23061">
        <ele>482.72</ele>
        <time>2020-10-08T09:50:05Z</time>
      </trkpt>
      <trkpt lat="46.24524" lon="6.23034">
        <ele>482.62</ele>
        <time>2020-10-08T09:50:09Z</time>
      </trkpt>
      <trkpt lat="46.2451" lon="6.2301">
        <ele>482.29</ele>
        <time>2020-10-08T09:50:13Z</time>
      </trkpt>
      <trkpt lat="46.24497" lon="6.22986">
        <ele>482.07</ele>
        <time>2020-10-08T09:50:17Z</time>
      </trkpt>
      <trkpt lat="46.24486" lon="6.22963">
        <ele>481.91</ele>
        <time>2020-10-08T09:50:21Z</time>
      </trkpt>
      <trkpt lat="46.24474" lon="6.22942">
        <ele>481.72</ele>
        <time>2020-10-08T09:50:25Z</time>
      </trkpt>
      <trkpt lat="46.24462" lon="6.22918">
        <ele>481.4</ele>
        <time>2020-10-08T09:50:29Z</time>
      </trkpt>
      <trkpt lat="46.24451" lon="6.22893">
        <ele>481.15</ele>
        <time>2020-10-08T09:50:33Z</time>
      </trkpt>
      <trkpt lat="46.24441" lon="6.22865">
        <ele>481.09</ele>
        <time>2020-10-08T09:50:37Z</time>
      </trkpt>
      <trkpt lat="46.24432" lon="6.22838">
        <ele>481.14</ele>
        <time>2020-10-08T09:50:41Z</time>
      </trkpt>
      <trkpt lat="46.24425" lon="6.22813">
        <ele>481.19</ele>
        <time>2020-10-08T09:50:45Z</time>
      </trkpt>
      <trkpt lat="46.24419" lon="6.22786">
        <ele>481.19</ele>
        <time>2020-10-08T09:50:49Z</time>
      </trkpt>
      <trkpt lat="46.24412" lon="6.22758">
        <ele>481.28</ele>
        <time>2020-10-08T09:50:53Z</time>
      </trkpt>
      <trkpt lat="46.24403" lon="6.22728">
        <ele>481.37</ele>
        <time>2020-10-08T09:50:57Z</time>
      </trkpt>
      <trkpt lat="46.24394" lon="6.22703">
        <ele>481.32</ele>
        <time>2020-10-08T09:51:00Z</time>
      </trkpt>
      <trkpt lat="46.24383" lon="6.22679">
        <ele>481.12</ele>
        <time>2020-10-08T09:51:03Z</time>
      </trkpt>
      <trkpt lat="46.2437" lon="6.22656">
        <ele>480.7</ele>
        <time>2020-10-08T09:51:06Z</time>
      </trkpt>
      <trkpt lat="46.24356" lon="6.22634">
        <ele>480.19</ele>
        <time>2020-10-08T09:51:09Z</time>
      </trkpt>
      <trkpt lat="46.24346" lon="6.22613">
        <ele>478.79</ele>
        <time>2020-10-08T09:51:17Z</time>
      </trkpt>
      <trkpt lat="46.2433" lon="6.22591">
        <ele>478.58</ele>
        <time>2020-10-08T09:51:24Z</time>
      </trkpt>
      <trkpt lat="46.24315" lon="6.22576">
        <ele>478.81</ele>
        <time>2020-10-08T09:51:28Z</time>
      </trkpt>
      <trkpt lat="46.24299" lon="6.22557">
        <ele>478.86</ele>
        <time>2020-10-08T09:51:32Z</time>
      </trkpt>
      <trkpt lat="46.2428" lon="6.22536">
        <ele>478.77</ele>
        <time>2020-10-08T09:51:36Z</time>
      </trkpt>
      <trkpt lat="46.24264" lon="6.22517">
        <ele>478.71</ele>
        <time>2020-10-08T09:51:39Z</time>
      </trkpt>
      <trkpt lat="46.24248" lon="6.225">
        <ele>478.71</ele>
        <time>2020-10-08T09:51:42Z</time>
      </trkpt>
      <trkpt lat="46.24234" lon="6.22485">
        <ele>478.75</ele>
        <time>2020-10-08T09:51:45Z</time>
      </trkpt>
      <trkpt lat="46.24215" lon="6.22467">
        <ele>478.82</ele>
        <time>2020-10-08T09:51:49Z</time>
      </trkpt>
      <trkpt lat="46.24198" lon="6.22452">
        <ele>478.59</ele>
        <time>2020-10-08T09:51:53Z</time>
      </trkpt>
      <trkpt lat="46.2418" lon="6.22439">
        <ele>478.03</ele>
        <time>2020-10-08T09:51:57Z</time>
      </trkpt>
      <trkpt lat="46.24159" lon="6.22426">
        <ele>477.61</ele>
        <time>2020-10-08T09:52:01Z</time>
      </trkpt>
      <trkpt lat="46.24137" lon="6.22415">
        <ele>477.29</ele>
        <time>2020-10-08T09:52:05Z</time>
      </trkpt>
      <trkpt lat="46.24119" lon="6.22406">
        <ele>477.06</ele>
        <time>2020-10-08T09:52:08Z</time>
      </trkpt>
      <trkpt lat="46.241" lon="6.22399">
        <ele>476.9</ele>
        <time>2020-10-08T09:52:11Z</time>
      </trkpt>
      <trkpt lat="46.24081" lon="6.22391">
        <ele>476.66</ele>
        <time>2020-10-08T09:52:14Z</time>
      </trkpt>
      <trkpt lat="46.24062" lon="6.22383">
        <ele>476.49</ele>
        <time>2020-10-08T09:52:17Z</time>
      </trkpt>
      <trkpt lat="46.24044" lon="6.22375">
        <ele>476.29</ele>
        <time>2020-10-08T09:52:20Z</time>
      </trkpt>
      <trkpt lat="46.24022" lon="6.22364">
        <ele>476.07</ele>
        <time>2020-10-08T09:52:24Z</time>
      </trkpt>
      <trkpt lat="46.24002" lon="6.22352">
        <ele>475.78</ele>
        <time>2020-10-08T09:52:28Z</time>
      </trkpt>
      <trkpt lat="46.23984" lon="6.22338">
        <ele>475.48</ele>
        <time>2020-10-08T09:52:32Z</time>
      </trkpt>
      <trkpt lat="46.23967" lon="6.2232">
        <ele>475.35</ele>
        <time>2020-10-08T09:52:36Z</time>
      </trkpt>
      <trkpt lat="46.23954" lon="6.22302">
        <ele>475.3</ele>
        <time>2020-10-08T09:52:40Z</time>
      </trkpt>
      <trkpt lat="46.23942" lon="6.2228">
        <ele>475.34</ele>
        <time>2020-10-08T09:52:45Z</time>
      </trkpt>
      <trkpt lat="46.23932" lon="6.22255">
        <ele>475.57</ele>
        <time>2020-10-08T09:52:50Z</time>
      </trkpt>
      <trkpt lat="46.23923" lon="6.22228">
        <ele>476.17</ele>
        <time>2020-10-08T09:52:55Z</time>
      </trkpt>
      <trkpt lat="46.23915" lon="6.222">
        <ele>476.98</ele>
        <time>2020-10-08T09:53:00Z</time>
      </trkpt>
      <trkpt lat="46.23909" lon="6.22174">
        <ele>477.71</ele>
        <time>2020-10-08T09:53:05Z</time>
      </trkpt>
      <trkpt lat="46.23902" lon="6.22147">
        <ele>478.65</ele>
        <time>2020-10-08T09:53:10Z</time>
      </trkpt>
      <trkpt lat="46.23897" lon="6.22122">
        <ele>479.66</ele>
        <time>2020-10-08T09:53:15Z</time>
      </trkpt>
      <trkpt lat="46.23891" lon="6.22097">
        <ele>480.46</ele>
        <time>2020-10-08T09:53:20Z</time>
      </trkpt>
      <trkpt lat="46.23885" lon="6.22071">
        <ele>481.11</ele>
        <time>2020-10-08T09:53:25Z</time>
      </trkpt>
      <trkpt lat="46.23878" lon="6.22046">
        <ele>482.01</ele>
        <time>2020-10-08T09:53:30Z</time>
      </trkpt>
      <trkpt lat="46.23873" lon="6.22021">
        <ele>482.75</ele>
        <time>2020-10-08T09:53:35Z</time>
      </trkpt>
      <trkpt lat="46.23867" lon="6.21995">
        <ele>483.66</ele>
        <time>2020-10-08T09:53:40Z</time>
      </trkpt>
      <trkpt lat="46.2386" lon="6.21966">
        <ele>484.55</ele>
        <time>2020-10-08T09:53:45Z</time>
      </trkpt>
      <trkpt lat="46.23854" lon="6.2194">
        <ele>485.68</ele>
        <time>2020-10-08T09:53:50Z</time>
      </trkpt>
      <trkpt lat="46.23847" lon="6.21911">
        <ele>486.81</ele>
        <time>2020-10-08T09:53:56Z</time>
      </trkpt>
      <trkpt lat="46.23839" lon="6.21885">
        <ele>487.98</ele>
        <time>2020-10-08T09:54:02Z</time>
      </trkpt>
      <trkpt lat="46.23828" lon="6.21861">
        <ele>489.59</ele>
        <time>2020-10-08T09:54:08Z</time>
      </trkpt>
      <trkpt lat="46.23815" lon="6.21841">
        <ele>491.53</ele>
        <time>2020-10-08T09:54:15Z</time>
      </trkpt>
      <trkpt lat="46.23799" lon="6.21824">
        <ele>493.68</ele>
        <time>2020-10-08T09:54:22Z</time>
      </trkpt>
      <trkpt lat="46.23782" lon="6.21811">
        <ele>495.45</ele>
        <time>2020-10-08T09:54:29Z</time>
      </trkpt>
      <trkpt lat="46.23764" lon="6.21802">
        <ele>496.69</ele>
        <time>2020-10-08T09:54:35Z</time>
      </trkpt>
      <trkpt lat="46.23746" lon="6.21794">
        <ele>498.23</ele>
        <time>2020-10-08T09:54:42Z</time>
      </trkpt>
      <trkpt lat="46.23727" lon="6.21785">
        <ele>499.77</ele>
        <time>2020-10-08T09:54:49Z</time>
      </trkpt>
      <trkpt lat="46.23707" lon="6.21775">
        <ele>501.3</ele>
        <time>2020-10-08T09:54:56Z</time>
      </trkpt>
      <trkpt lat="46.23689" lon="6.21764">
        <ele>502.82</ele>
        <time>2020-10-08T09:55:03Z</time>
      </trkpt>
      <trkpt lat="46.23671" lon="6.21752">
        <ele>504.46</ele>
        <time>2020-10-08T09:55:10Z</time>
      </trkpt>
      <trkpt lat="46.23654" lon="6.21738">
        <ele>506.2</ele>
        <time>2020-10-08T09:55:17Z</time>
      </trkpt>
      <trkpt lat="46.23636" lon="6.21724">
        <ele>507.58</ele>
        <time>2020-10-08T09:55:24Z</time>
      </trkpt>
      <trkpt lat="46.2362" lon="6.2171">
        <ele>508.57</ele>
        <time>2020-10-08T09:55:30Z</time>
      </trkpt>
      <trkpt lat="46.23603" lon="6.21696">
        <ele>509.5</ele>
        <time>2020-10-08T09:55:36Z</time>
      </trkpt>
      <trkpt lat="46.23588" lon="6.21682">
        <ele>510.21</ele>
        <time>2020-10-08T09:55:43Z</time>
      </trkpt>
      <trkpt lat="46.2357" lon="6.21666">
        <ele>510.9</ele>
        <time>2020-10-08T09:55:50Z</time>
      </trkpt>
      <trkpt lat="46.23555" lon="6.21651">
        <ele>511.58</ele>
        <time>2020-10-08T09:55:56Z</time>
      </trkpt>
      <trkpt lat="46.23538" lon="6.21636">
        <ele>512.04</ele>
        <time>2020-10-08T09:56:03Z</time>
      </trkpt>
      <trkpt lat="46.23521" lon="6.21624">
        <ele>512.55</ele>
        <time>2020-10-08T09:56:10Z</time>
      </trkpt>
      <trkpt lat="46.23501" lon="6.21614">
        <ele>512.75</ele>
        <time>2020-10-08T09:56:16Z</time>
      </trkpt>
      <trkpt lat="46.23489" lon="6.21615">
        <ele>513.25</ele>
        <time>2020-10-08T09:56:24Z</time>
      </trkpt>
      <trkpt lat="46.2351" lon="6.21622">
        <ele>513.29</ele>
        <time>2020-10-08T09:56:30Z</time>
      </trkpt>
      <trkpt lat="46.2353" lon="6.21633">
        <ele>513.31</ele>
        <time>2020-10-08T09:56:35Z</time>
      </trkpt>
      <trkpt lat="46.23548" lon="6.21647">
        <ele>513.01</ele>
        <time>2020-10-08T09:56:41Z</time>
      </trkpt>
      <trkpt lat="46.23564" lon="6.21654">
        <ele>512.71</ele>
        <time>2020-10-08T09:56:47Z</time>
      </trkpt>
      <trkpt lat="46.23566" lon="6.21628">
        <ele>512.46</ele>
        <time>2020-10-08T09:56:55Z</time>
      </trkpt>
      <trkpt lat="46.23571" lon="6.21599">
        <ele>512.63</ele>
        <time>2020-10-08T09:57:00Z</time>
      </trkpt>
      <trkpt lat="46.23576" lon="6.21569">
        <ele>513.08</ele>
        <time>2020-10-08T09:57:04Z</time>
      </trkpt>
      <trkpt lat="46.23583" lon="6.21536">
        <ele>513.17</ele>
        <time>2020-10-08T09:57:08Z</time>
      </trkpt>
      <trkpt lat="46.2359" lon="6.21509">
        <ele>512.65</ele>
        <time>2020-10-08T09:57:11Z</time>
      </trkpt>
      <trkpt lat="46.23596" lon="6.21481">
        <ele>512.13</ele>
        <time>2020-10-08T09:57:14Z</time>
      </trkpt>
      <trkpt lat="46.23601" lon="6.21454">
        <ele>511.54</ele>
        <time>2020-10-08T09:57:17Z</time>
      </trkpt>
      <trkpt lat="46.23608" lon="6.21428">
        <ele>511.03</ele>
        <time>2020-10-08T09:57:20Z</time>
      </trkpt>
      <trkpt lat="46.23619" lon="6.21398">
        <ele>510.59</ele>
        <time>2020-10-08T09:57:24Z</time>
      </trkpt>
      <trkpt lat="46.23632" lon="6.21373">
        <ele>510.17</ele>
        <time>2020-10-08T09:57:28Z</time>
      </trkpt>
      <trkpt lat="46.23648" lon="6.21351">
        <ele>509.92</ele>
        <time>2020-10-08T09:57:32Z</time>
      </trkpt>
      <trkpt lat="46.23655" lon="6.21325">
        <ele>509.63</ele>
        <time>2020-10-08T09:57:37Z</time>
      </trkpt>
      <trkpt lat="46.23643" lon="6.21303">
        <ele>509.48</ele>
        <time>2020-10-08T09:57:42Z</time>
      </trkpt>
      <trkpt lat="46.2363" lon="6.21281">
        <ele>509.58</ele>
        <time>2020-10-08T09:57:46Z</time>
      </trkpt>
      <trkpt lat="46.23617" lon="6.21256">
        <ele>509.81</ele>
        <time>2020-10-08T09:57:50Z</time>
      </trkpt>
      <trkpt lat="46.23604" lon="6.21233">
        <ele>510.14</ele>
        <time>2020-10-08T09:57:54Z</time>
      </trkpt>
      <trkpt lat="46.23593" lon="6.2121">
        <ele>510.33</ele>
        <time>2020-10-08T09:57:58Z</time>
      </trkpt>
      <trkpt lat="46.23583" lon="6.21182">
        <ele>510.37</ele>
        <time>2020-10-08T09:58:03Z</time>
      </trkpt>
      <trkpt lat="46.23574" lon="6.21152">
        <ele>510.4</ele>
        <time>2020-10-08T09:58:08Z</time>
      </trkpt>
      <trkpt lat="46.23566" lon="6.21128">
        <ele>510.49</ele>
        <time>2020-10-08T09:58:12Z</time>
      </trkpt>
      <trkpt lat="46.23556" lon="6.21107">
        <ele>510.79</ele>
        <time>2020-10-08T09:58:16Z</time>
      </trkpt>
      <trkpt lat="46.23542" lon="6.21083">
        <ele>511.36</ele>
        <time>2020-10-08T09:58:21Z</time>
      </trkpt>
      <trkpt lat="46.23529" lon="6.2106">
        <ele>512.23</ele>
        <time>2020-10-08T09:58:27Z</time>
      </trkpt>
      <trkpt lat="46.23516" lon="6.2104">
        <ele>512.87</ele>
        <time>2020-10-08T09:58:32Z</time>
      </trkpt>
      <trkpt lat="46.235" lon="6.2102">
        <ele>513.51</ele>
        <time>2020-10-08T09:58:37Z</time>
      </trkpt>
      <trkpt lat="46.23484" lon="6.21003">
        <ele>513.67</ele>
        <time>2020-10-08T09:58:41Z</time>
      </trkpt>
      <trkpt lat="46.23466" lon="6.20988">
        <ele>513.96</ele>
        <time>2020-10-08T09:58:45Z</time>
      </trkpt>
      <trkpt lat="46.2345" lon="6.20973">
        <ele>514.13</ele>
        <time>2020-10-08T09:58:49Z</time>
      </trkpt>
      <trkpt lat="46.23437" lon="6.20955">
        <ele>514.3</ele>
        <time>2020-10-08T09:58:54Z</time>
      </trkpt>
      <trkpt lat="46.2345" lon="6.20931">
        <ele>514.29</ele>
        <time>2020-10-08T09:59:00Z</time>
      </trkpt>
      <trkpt lat="46.23462" lon="6.20909">
        <ele>514.57</ele>
        <time>2020-10-08T09:59:05Z</time>
      </trkpt>
      <trkpt lat="46.23476" lon="6.20885">
        <ele>515.08</ele>
        <time>2020-10-08T09:59:10Z</time>
      </trkpt>
      <trkpt lat="46.23492" lon="6.20861">
        <ele>515.66</ele>
        <time>2020-10-08T09:59:15Z</time>
      </trkpt>
      <trkpt lat="46.2351" lon="6.20842">
        <ele>516.24</ele>
        <time>2020-10-08T09:59:20Z</time>
      </trkpt>
      <trkpt lat="46.23529" lon="6.20826">
        <ele>516.78</ele>
        <time>2020-10-08T09:59:25Z</time>
      </trkpt>
      <trkpt lat="46.23546" lon="6.2081">
        <ele>517.46</ele>
        <time>2020-10-08T09:59:30Z</time>
      </trkpt>
      <trkpt lat="46.23559" lon="6.20785">
        <ele>517.99</ele>
        <time>2020-10-08T09:59:36Z</time>
      </trkpt>
      <trkpt lat="46.23568" lon="6.20761">
        <ele>518.31</ele>
        <time>2020-10-08T09:59:41Z</time>
      </trkpt>
      <trkpt lat="46.23565" lon="6.20734">
        <ele>517.98</ele>
        <time>2020-10-08T09:59:47Z</time>
      </trkpt>
      <trkpt lat="46.23563" lon="6.20702">
        <ele>517.53</ele>
        <time>2020-10-08T09:59:52Z</time>
      </trkpt>
      <trkpt lat="46.23561" lon="6.20673">
        <ele>516.92</ele>
        <time>2020-10-08T09:59:56Z</time>
      </trkpt>
      <trkpt lat="46.23559" lon="6.20641">
        <ele>516.34</ele>
        <time>2020-10-08T10:00:00Z</time>
      </trkpt>
      <trkpt lat="46.23557" lon="6.20607">
        <ele>515.56</ele>
        <time>2020-10-08T10:00:04Z</time>
      </trkpt>
      <trkpt lat="46.23556" lon="6.2058">
        <ele>515.01</ele>
        <time>2020-10-08T10:00:07Z</time>
      </trkpt>
      <trkpt lat="46.23556" lon="6.20549">
        <ele>514.14</ele>
        <time>2020-10-08T10:00:10Z</time>
      </trkpt>
      <trkpt lat="46.2355" lon="6.20519">
        <ele>513.2</ele>
        <time>2020-10-08T10:00:13Z</time>
      </trkpt>
      <trkpt lat="46.23538" lon="6.2049">
        <ele>511.8</ele>
        <time>2020-10-08T10:00:17Z</time>
      </trkpt>
      <trkpt lat="46.23527" lon="6.20464">
        <ele>510.68</ele>
        <time>2020-10-08T10:00:21Z</time>
      </trkpt>
      <trkpt lat="46.2352" lon="6.20438">
        <ele>508.92</ele>
        <time>2020-10-08T10:00:27Z</time>
      </trkpt>
      <trkpt lat="46.23508" lon="6.20415">
        <ele>506.52</ele>
        <time>2020-10-08T10:00:59Z</time>
      </trkpt>
      <trkpt lat="46.23491" lon="6.20397">
        <ele>506.73</ele>
        <time>2020-10-08T10:01:03Z</time>
      </trkpt>
      <trkpt lat="46.23473" lon="6.20379">
        <ele>507.27</ele>
        <time>2020-10-08T10:01:07Z</time>
      </trkpt>
      <trkpt lat="46.23456" lon="6.20359">
        <ele>507.74</ele>
        <time>2020-10-08T10:01:11Z</time>
      </trkpt>
      <trkpt lat="46.23439" lon="6.2034">
        <ele>507.66</ele>
        <time>2020-10-08T10:01:15Z</time>
      </trkpt>
      <trkpt lat="46.23422" lon="6.20323">
        <ele>507.4</ele>
        <time>2020-10-08T10:01:19Z</time>
      </trkpt>
      <trkpt lat="46.23405" lon="6.20305">
        <ele>506.98</ele>
        <time>2020-10-08T10:01:23Z</time>
      </trkpt>
      <trkpt lat="46.23389" lon="6.20286">
        <ele>506.57</ele>
        <time>2020-10-08T10:01:27Z</time>
      </trkpt>
      <trkpt lat="46.23374" lon="6.20267">
        <ele>506.19</ele>
        <time>2020-10-08T10:01:31Z</time>
      </trkpt>
      <trkpt lat="46.23357" lon="6.20249">
        <ele>505.84</ele>
        <time>2020-10-08T10:01:35Z</time>
      </trkpt>
      <trkpt lat="46.23342" lon="6.20231">
        <ele>505.57</ele>
        <time>2020-10-08T10:01:39Z</time>
      </trkpt>
      <trkpt lat="46.23328" lon="6.20214">
        <ele>505.32</ele>
        <time>2020-10-08T10:01:43Z</time>
      </trkpt>
      <trkpt lat="46.23312" lon="6.20197">
        <ele>505.19</ele>
        <time>2020-10-08T10:01:47Z</time>
      </trkpt>
      <trkpt lat="46.23296" lon="6.20178">
        <ele>505.12</ele>
        <time>2020-10-08T10:01:51Z</time>
      </trkpt>
      <trkpt lat="46.23281" lon="6.20158">
        <ele>505.1</ele>
        <time>2020-10-08T10:01:55Z</time>
      </trkpt>
      <trkpt lat="46.23262" lon="6.20137">
        <ele>505.09</ele>
        <time>2020-10-08T10:01:59Z</time>
      </trkpt>
      <trkpt lat="46.23245" lon="6.20117">
        <ele>505.3</ele>
        <time>2020-10-08T10:02:03Z</time>
      </trkpt>
      <trkpt lat="46.23229" lon="6.20101">
        <ele>505.86</ele>
        <time>2020-10-08T10:02:07Z</time>
      </trkpt>
      <trkpt lat="46.23213" lon="6.20082">
        <ele>506.67</ele>
        <time>2020-10-08T10:02:12Z</time>
      </trkpt>
      <trkpt lat="46.23198" lon="6.20065">
        <ele>507.21</ele>
        <time>2020-10-08T10:02:17Z</time>
      </trkpt>
      <trkpt lat="46.23182" lon="6.20046">
        <ele>508.01</ele>
        <time>2020-10-08T10:02:22Z</time>
      </trkpt>
      <trkpt lat="46.23166" lon="6.20027">
        <ele>508.95</ele>
        <time>2020-10-08T10:02:27Z</time>
      </trkpt>
      <trkpt lat="46.2315" lon="6.20008">
        <ele>509.66</ele>
        <time>2020-10-08T10:02:32Z</time>
      </trkpt>
      <trkpt lat="46.23134" lon="6.1999">
        <ele>510.5</ele>
        <time>2020-10-08T10:02:37Z</time>
      </trkpt>
      <trkpt lat="46.23119" lon="6.19972">
        <ele>511.24</ele>
        <time>2020-10-08T10:02:42Z</time>
      </trkpt>
      <trkpt lat="46.23104" lon="6.19954">
        <ele>512.07</ele>
        <time>2020-10-08T10:02:47Z</time>
      </trkpt>
      <trkpt lat="46.23089" lon="6.19935">
        <ele>512.88</ele>
        <time>2020-10-08T10:02:52Z</time>
      </trkpt>
      <trkpt lat="46.23074" lon="6.19918">
        <ele>513.65</ele>
        <time>2020-10-08T10:02:57Z</time>
      </trkpt>
      <trkpt lat="46.23059" lon="6.19901">
        <ele>514.69</ele>
        <time>2020-10-08T10:03:02Z</time>
      </trkpt>
      <trkpt lat="46.23044" lon="6.19883">
        <ele>515.84</ele>
        <time>2020-10-08T10:03:07Z</time>
      </trkpt>
      <trkpt lat="46.23027" lon="6.19864">
        <ele>516.78</ele>
        <time>2020-10-08T10:03:13Z</time>
      </trkpt>
      <trkpt lat="46.23011" lon="6.19846">
        <ele>517.57</ele>
        <time>2020-10-08T10:03:19Z</time>
      </trkpt>
      <trkpt lat="46.22996" lon="6.19826">
        <ele>518.37</ele>
        <time>2020-10-08T10:03:25Z</time>
      </trkpt>
      <trkpt lat="46.22979" lon="6.19807">
        <ele>519.08</ele>
        <time>2020-10-08T10:03:31Z</time>
      </trkpt>
      <trkpt lat="46.22963" lon="6.19789">
        <ele>519.86</ele>
        <time>2020-10-08T10:03:37Z</time>
      </trkpt>
      <trkpt lat="46.22947" lon="6.1977">
        <ele>520.62</ele>
        <time>2020-10-08T10:03:43Z</time>
      </trkpt>
      <trkpt lat="46.2293" lon="6.19751">
        <ele>521.43</ele>
        <time>2020-10-08T10:03:49Z</time>
      </trkpt>
      <trkpt lat="46.22914" lon="6.19731">
        <ele>522.18</ele>
        <time>2020-10-08T10:03:55Z</time>
      </trkpt>
      <trkpt lat="46.229" lon="6.19714">
        <ele>523</ele>
        <time>2020-10-08T10:04:00Z</time>
      </trkpt>
      <trkpt lat="46.22886" lon="6.19698">
        <ele>523.7</ele>
        <time>2020-10-08T10:04:06Z</time>
      </trkpt>
      <trkpt lat="46.2287" lon="6.19679">
        <ele>524.48</ele>
        <time>2020-10-08T10:04:12Z</time>
      </trkpt>
      <trkpt lat="46.22853" lon="6.19659">
        <ele>525.42</ele>
        <time>2020-10-08T10:04:18Z</time>
      </trkpt>
      <trkpt lat="46.22838" lon="6.19641">
        <ele>526.35</ele>
        <time>2020-10-08T10:04:23Z</time>
      </trkpt>
      <trkpt lat="46.22821" lon="6.19622">
        <ele>527.2</ele>
        <time>2020-10-08T10:04:28Z</time>
      </trkpt>
      <trkpt lat="46.22803" lon="6.19603">
        <ele>527.83</ele>
        <time>2020-10-08T10:04:33Z</time>
      </trkpt>
      <trkpt lat="46.22786" lon="6.19582">
        <ele>528.58</ele>
        <time>2020-10-08T10:04:39Z</time>
      </trkpt>
      <trkpt lat="46.22771" lon="6.19564">
        <ele>529.07</ele>
        <time>2020-10-08T10:04:44Z</time>
      </trkpt>
      <trkpt lat="46.22753" lon="6.19544">
        <ele>529.68</ele>
        <time>2020-10-08T10:04:49Z</time>
      </trkpt>
      <trkpt lat="46.22738" lon="6.19526">
        <ele>530.06</ele>
        <time>2020-10-08T10:04:53Z</time>
      </trkpt>
      <trkpt lat="46.22723" lon="6.19509">
        <ele>530.58</ele>
        <time>2020-10-08T10:04:58Z</time>
      </trkpt>
      <trkpt lat="46.22707" lon="6.19489">
        <ele>530.99</ele>
        <time>2020-10-08T10:05:04Z</time>
      </trkpt>
      <trkpt lat="46.22692" lon="6.19472">
        <ele>531.45</ele>
        <time>2020-10-08T10:05:09Z</time>
      </trkpt>
      <trkpt lat="46.22675" lon="6.19452">
        <ele>531.96</ele>
        <time>2020-10-08T10:05:14Z</time>
      </trkpt>
      <trkpt lat="46.22659" lon="6.19434">
        <ele>532.26</ele>
        <time>2020-10-08T10:05:18Z</time>
      </trkpt>
      <trkpt lat="46.22642" lon="6.19412">
        <ele>532.53</ele>
        <time>2020-10-08T10:05:22Z</time>
      </trkpt>
      <trkpt lat="46.22627" lon="6.19396">
        <ele>532.71</ele>
        <time>2020-10-08T10:05:25Z</time>
      </trkpt>
      <trkpt lat="46.2261" lon="6.19375">
        <ele>533.03</ele>
        <time>2020-10-08T10:05:29Z</time>
      </trkpt>
      <trkpt lat="46.22595" lon="6.19358">
        <ele>533.18</ele>
        <time>2020-10-08T10:05:33Z</time>
      </trkpt>
      <trkpt lat="46.2258" lon="6.19341">
        <ele>533.35</ele>
        <time>2020-10-08T10:05:37Z</time>
      </trkpt>
      <trkpt lat="46.22564" lon="6.19323">
        <ele>533.45</ele>
        <time>2020-10-08T10:05:41Z</time>
      </trkpt>
      <trkpt lat="46.22548" lon="6.19303">
        <ele>533.68</ele>
        <time>2020-10-08T10:05:45Z</time>
      </trkpt>
      <trkpt lat="46.22531" lon="6.19283">
        <ele>534.03</ele>
        <time>2020-10-08T10:05:49Z</time>
      </trkpt>
      <trkpt lat="46.22513" lon="6.19263">
        <ele>534.23</ele>
        <time>2020-10-08T10:05:53Z</time>
      </trkpt>
      <trkpt lat="46.22499" lon="6.19245">
        <ele>534.5</ele>
        <time>2020-10-08T10:05:57Z</time>
      </trkpt>
      <trkpt lat="46.22483" lon="6.19227">
        <ele>534.72</ele>
        <time>2020-10-08T10:06:02Z</time>
      </trkpt>
      <trkpt lat="46.22466" lon="6.19207">
        <ele>534.98</ele>
        <time>2020-10-08T10:06:08Z</time>
      </trkpt>
      <trkpt lat="46.22451" lon="6.19189">
        <ele>535.18</ele>
        <time>2020-10-08T10:06:13Z</time>
      </trkpt>
      <trkpt lat="46.22433" lon="6.19169">
        <ele>535.24</ele>
        <time>2020-10-08T10:06:18Z</time>
      </trkpt>
      <trkpt lat="46.22418" lon="6.19154">
        <ele>535.45</ele>
        <time>2020-10-08T10:06:22Z</time>
      </trkpt>
      <trkpt lat="46.22402" lon="6.19136">
        <ele>535.68</ele>
        <time>2020-10-08T10:06:26Z</time>
      </trkpt>
      <trkpt lat="46.22382" lon="6.19115">
        <ele>535.92</ele>
        <time>2020-10-08T10:06:30Z</time>
      </trkpt>
      <trkpt lat="46.22366" lon="6.19098">
        <ele>536.16</ele>
        <time>2020-10-08T10:06:33Z</time>
      </trkpt>
      <trkpt lat="46.22351" lon="6.19082">
        <ele>536.31</ele>
        <time>2020-10-08T10:06:36Z</time>
      </trkpt>
      <trkpt lat="46.22332" lon="6.19061">
        <ele>536.39</ele>
        <time>2020-10-08T10:06:40Z</time>
      </trkpt>
      <trkpt lat="46.22314" lon="6.19042">
        <ele>536.28</ele>
        <time>2020-10-08T10:06:44Z</time>
      </trkpt>
      <trkpt lat="46.22296" lon="6.19021">
        <ele>536.01</ele>
        <time>2020-10-08T10:06:48Z</time>
      </trkpt>
      <trkpt lat="46.22279" lon="6.18998">
        <ele>535.6</ele>
        <time>2020-10-08T10:06:52Z</time>
      </trkpt>
      <trkpt lat="46.22262" lon="6.18973">
        <ele>534.94</ele>
        <time>2020-10-08T10:06:56Z</time>
      </trkpt>
      <trkpt lat="46.22248" lon="6.18955">
        <ele>534.32</ele>
        <time>2020-10-08T10:06:59Z</time>
      </trkpt>
      <trkpt lat="46.22233" lon="6.18936">
        <ele>533.82</ele>
        <time>2020-10-08T10:07:02Z</time>
      </trkpt>
      <trkpt lat="46.22217" lon="6.18917">
        <ele>533.34</ele>
        <time>2020-10-08T10:07:05Z</time>
      </trkpt>
      <trkpt lat="46.222" lon="6.18897">
        <ele>532.69</ele>
        <time>2020-10-08T10:07:08Z</time>
      </trkpt>
      <trkpt lat="46.22182" lon="6.18877">
        <ele>531.87</ele>
        <time>2020-10-08T10:07:11Z</time>
      </trkpt>
      <trkpt lat="46.22162" lon="6.18856">
        <ele>530.9</ele>
        <time>2020-10-08T10:07:14Z</time>
      </trkpt>
      <trkpt lat="46.2214" lon="6.18833">
        <ele>529.75</ele>
        <time>2020-10-08T10:07:17Z</time>
      </trkpt>
      <trkpt lat="46.22125" lon="6.18818">
        <ele>528.89</ele>
        <time>2020-10-08T10:07:19Z</time>
      </trkpt>
      <trkpt lat="46.22109" lon="6.18801">
        <ele>528.02</ele>
        <time>2020-10-08T10:07:21Z</time>
      </trkpt>
      <trkpt lat="46.22094" lon="6.18785">
        <ele>527.09</ele>
        <time>2020-10-08T10:07:23Z</time>
      </trkpt>
      <trkpt lat="46.22077" lon="6.18768">
        <ele>526.01</ele>
        <time>2020-10-08T10:07:25Z</time>
      </trkpt>
      <trkpt lat="46.22062" lon="6.18752">
        <ele>524.84</ele>
        <time>2020-10-08T10:07:27Z</time>
      </trkpt>
      <trkpt lat="46.22043" lon="6.18731">
        <ele>523.11</ele>
        <time>2020-10-08T10:07:30Z</time>
      </trkpt>
      <trkpt lat="46.22025" lon="6.18711">
        <ele>521.38</ele>
        <time>2020-10-08T10:07:33Z</time>
      </trkpt>
      <trkpt lat="46.22009" lon="6.18685">
        <ele>519.57</ele>
        <time>2020-10-08T10:07:36Z</time>
      </trkpt>
      <trkpt lat="46.21993" lon="6.18655">
        <ele>517.94</ele>
        <time>2020-10-08T10:07:39Z</time>
      </trkpt>
      <trkpt lat="46.21981" lon="6.18633">
        <ele>516.88</ele>
        <time>2020-10-08T10:07:41Z</time>
      </trkpt>
      <trkpt lat="46.21969" lon="6.18609">
        <ele>515.68</ele>
        <time>2020-10-08T10:07:43Z</time>
      </trkpt>
      <trkpt lat="46.21958" lon="6.18586">
        <ele>514.33</ele>
        <time>2020-10-08T10:07:45Z</time>
      </trkpt>
      <trkpt lat="46.21943" lon="6.18554">
        <ele>512.31</ele>
        <time>2020-10-08T10:07:48Z</time>
      </trkpt>
      <trkpt lat="46.21934" lon="6.18531">
        <ele>511.01</ele>
        <time>2020-10-08T10:07:50Z</time>
      </trkpt>
      <trkpt lat="46.21926" lon="6.18506">
        <ele>509.76</ele>
        <time>2020-10-08T10:07:52Z</time>
      </trkpt>
      <trkpt lat="46.21916" lon="6.18482">
        <ele>508.48</ele>
        <time>2020-10-08T10:07:54Z</time>
      </trkpt>
      <trkpt lat="46.21905" lon="6.1846">
        <ele>507.06</ele>
        <time>2020-10-08T10:07:56Z</time>
      </trkpt>
      <trkpt lat="46.2189" lon="6.18444">
        <ele>505.69</ele>
        <time>2020-10-08T10:07:58Z</time>
      </trkpt>
      <trkpt lat="46.21867" lon="6.18423">
        <ele>504.15</ele>
        <time>2020-10-08T10:08:01Z</time>
      </trkpt>
      <trkpt lat="46.21845" lon="6.18403">
        <ele>503.05</ele>
        <time>2020-10-08T10:08:04Z</time>
      </trkpt>
      <trkpt lat="46.21824" lon="6.18385">
        <ele>502.14</ele>
        <time>2020-10-08T10:08:07Z</time>
      </trkpt>
      <trkpt lat="46.21802" lon="6.18373">
        <ele>501.32</ele>
        <time>2020-10-08T10:08:10Z</time>
      </trkpt>
      <trkpt lat="46.2178" lon="6.18362">
        <ele>500.56</ele>
        <time>2020-10-08T10:08:13Z</time>
      </trkpt>
      <trkpt lat="46.21761" lon="6.18346">
        <ele>499.9</ele>
        <time>2020-10-08T10:08:16Z</time>
      </trkpt>
      <trkpt lat="46.21746" lon="6.18321">
        <ele>499.04</ele>
        <time>2020-10-08T10:08:19Z</time>
      </trkpt>
      <trkpt lat="46.21731" lon="6.18295">
        <ele>498.16</ele>
        <time>2020-10-08T10:08:22Z</time>
      </trkpt>
      <trkpt lat="46.21715" lon="6.1827">
        <ele>497.37</ele>
        <time>2020-10-08T10:08:25Z</time>
      </trkpt>
      <trkpt lat="46.21697" lon="6.18247">
        <ele>496.41</ele>
        <time>2020-10-08T10:08:28Z</time>
      </trkpt>
      <trkpt lat="46.21677" lon="6.18222">
        <ele>495.46</ele>
        <time>2020-10-08T10:08:31Z</time>
      </trkpt>
      <trkpt lat="46.21658" lon="6.18198">
        <ele>494.31</ele>
        <time>2020-10-08T10:08:34Z</time>
      </trkpt>
      <trkpt lat="46.21644" lon="6.18175">
        <ele>492.8</ele>
        <time>2020-10-08T10:08:37Z</time>
      </trkpt>
      <trkpt lat="46.21629" lon="6.1815">
        <ele>491.4</ele>
        <time>2020-10-08T10:08:40Z</time>
      </trkpt>
      <trkpt lat="46.21613" lon="6.18126">
        <ele>490.01</ele>
        <time>2020-10-08T10:08:43Z</time>
      </trkpt>
      <trkpt lat="46.21599" lon="6.18109">
        <ele>488.48</ele>
        <time>2020-10-08T10:08:46Z</time>
      </trkpt>
      <trkpt lat="46.21584" lon="6.18085">
        <ele>486.24</ele>
        <time>2020-10-08T10:08:50Z</time>
      </trkpt>
      <trkpt lat="46.21573" lon="6.18063">
        <ele>484.94</ele>
        <time>2020-10-08T10:08:53Z</time>
      </trkpt>
      <trkpt lat="46.21559" lon="6.18041">
        <ele>484.07</ele>
        <time>2020-10-08T10:08:56Z</time>
      </trkpt>
      <trkpt lat="46.2154" lon="6.18025">
        <ele>483.1</ele>
        <time>2020-10-08T10:08:59Z</time>
      </trkpt>
      <trkpt lat="46.21518" lon="6.18012">
        <ele>481.99</ele>
        <time>2020-10-08T10:09:02Z</time>
      </trkpt>
      <trkpt lat="46.21496" lon="6.17995">
        <ele>480.95</ele>
        <time>2020-10-08T10:09:05Z</time>
      </trkpt>
      <trkpt lat="46.21478" lon="6.17975">
        <ele>479.79</ele>
        <time>2020-10-08T10:09:08Z</time>
      </trkpt>
      <trkpt lat="46.21459" lon="6.17948">
        <ele>478.44</ele>
        <time>2020-10-08T10:09:11Z</time>
      </trkpt>
      <trkpt lat="46.21447" lon="6.17926">
        <ele>477.4</ele>
        <time>2020-10-08T10:09:13Z</time>
      </trkpt>
      <trkpt lat="46.21435" lon="6.17903">
        <ele>476.27</ele>
        <time>2020-10-08T10:09:15Z</time>
      </trkpt>
      <trkpt lat="46.21421" lon="6.1788">
        <ele>475.13</ele>
        <time>2020-10-08T10:09:17Z</time>
      </trkpt>
      <trkpt lat="46.21408" lon="6.17862">
        <ele>473.94</ele>
        <time>2020-10-08T10:09:19Z</time>
      </trkpt>
      <trkpt lat="46.21395" lon="6.17845">
        <ele>472.03</ele>
        <time>2020-10-08T10:09:22Z</time>
      </trkpt>
      <trkpt lat="46.21378" lon="6.17822">
        <ele>469.17</ele>
        <time>2020-10-08T10:09:26Z</time>
      </trkpt>
      <trkpt lat="46.21362" lon="6.17802">
        <ele>467.13</ele>
        <time>2020-10-08T10:09:29Z</time>
      </trkpt>
      <trkpt lat="46.21346" lon="6.17779">
        <ele>465.06</ele>
        <time>2020-10-08T10:09:32Z</time>
      </trkpt>
      <trkpt lat="46.21326" lon="6.17748">
        <ele>462.72</ele>
        <time>2020-10-08T10:09:35Z</time>
      </trkpt>
      <trkpt lat="46.21313" lon="6.17726">
        <ele>461.18</ele>
        <time>2020-10-08T10:09:37Z</time>
      </trkpt>
      <trkpt lat="46.21299" lon="6.17704">
        <ele>459.71</ele>
        <time>2020-10-08T10:09:39Z</time>
      </trkpt>
      <trkpt lat="46.21284" lon="6.17681">
        <ele>458.3</ele>
        <time>2020-10-08T10:09:41Z</time>
      </trkpt>
      <trkpt lat="46.21269" lon="6.1766">
        <ele>457</ele>
        <time>2020-10-08T10:09:43Z</time>
      </trkpt>
      <trkpt lat="46.21256" lon="6.17639">
        <ele>455.69</ele>
        <time>2020-10-08T10:09:45Z</time>
      </trkpt>
      <trkpt lat="46.21242" lon="6.17618">
        <ele>454.34</ele>
        <time>2020-10-08T10:09:47Z</time>
      </trkpt>
      <trkpt lat="46.21229" lon="6.176">
        <ele>452.91</ele>
        <time>2020-10-08T10:09:49Z</time>
      </trkpt>
      <trkpt lat="46.21216" lon="6.1758">
        <ele>451.34</ele>
        <time>2020-10-08T10:09:51Z</time>
      </trkpt>
      <trkpt lat="46.21197" lon="6.17553">
        <ele>448.96</ele>
        <time>2020-10-08T10:09:54Z</time>
      </trkpt>
      <trkpt lat="46.21179" lon="6.17527">
        <ele>446.24</ele>
        <time>2020-10-08T10:09:57Z</time>
      </trkpt>
      <trkpt lat="46.21163" lon="6.17502">
        <ele>443.38</ele>
        <time>2020-10-08T10:10:00Z</time>
      </trkpt>
      <trkpt lat="46.21148" lon="6.17477">
        <ele>440.53</ele>
        <time>2020-10-08T10:10:03Z</time>
      </trkpt>
      <trkpt lat="46.21137" lon="6.17449">
        <ele>437.25</ele>
        <time>2020-10-08T10:10:06Z</time>
      </trkpt>
      <trkpt lat="46.21133" lon="6.17423">
        <ele>433.88</ele>
        <time>2020-10-08T10:10:09Z</time>
      </trkpt>
      <trkpt lat="46.21139" lon="6.17395">
        <ele>430.84</ele>
        <time>2020-10-08T10:10:12Z</time>
      </trkpt>
      <trkpt lat="46.21149" lon="6.17361">
        <ele>428.18</ele>
        <time>2020-10-08T10:10:15Z</time>
      </trkpt>
      <trkpt lat="46.21162" lon="6.17326">
        <ele>425.93</ele>
        <time>2020-10-08T10:10:18Z</time>
      </trkpt>
      <trkpt lat="46.21175" lon="6.173">
        <ele>423.3</ele>
        <time>2020-10-08T10:10:22Z</time>
      </trkpt>
      <trkpt lat="46.21187" lon="6.17275">
        <ele>420.04</ele>
        <time>2020-10-08T10:11:53Z</time>
      </trkpt>
      <trkpt lat="46.21183" lon="6.17248">
        <ele>420.04</ele>
        <time>2020-10-08T10:11:57Z</time>
      </trkpt>
      <trkpt lat="46.21173" lon="6.17218">
        <ele>420.04</ele>
        <time>2020-10-08T10:12:01Z</time>
      </trkpt>
      <trkpt lat="46.21166" lon="6.17193">
        <ele>420.04</ele>
        <time>2020-10-08T10:12:05Z</time>
      </trkpt>
      <trkpt lat="46.21152" lon="6.17174">
        <ele>420.04</ele>
        <time>2020-10-08T10:12:11Z</time>
      </trkpt>
      <trkpt lat="46.2114" lon="6.17147">
        <ele>420.04</ele>
        <time>2020-10-08T10:12:16Z</time>
      </trkpt>
      <trkpt lat="46.21128" lon="6.17121">
        <ele>420.04</ele>
        <time>2020-10-08T10:12:20Z</time>
      </trkpt>
      <trkpt lat="46.21115" lon="6.17093">
        <ele>420.04</ele>
        <time>2020-10-08T10:12:24Z</time>
      </trkpt>
      <trkpt lat="46.21103" lon="6.17065">
        <ele>420.04</ele>
        <time>2020-10-08T10:12:28Z</time>
      </trkpt>
      <trkpt lat="46.21091" lon="6.1704">
        <ele>420.04</ele>
        <time>2020-10-08T10:12:32Z</time>
      </trkpt>
      <trkpt lat="46.2108" lon="6.17017">
        <ele>420.04</ele>
        <time>2020-10-08T10:12:36Z</time>
      </trkpt>
      <trkpt lat="46.2107" lon="6.16994">
        <ele>420.04</ele>
        <time>2020-10-08T10:12:40Z</time>
      </trkpt>
      <trkpt lat="46.21059" lon="6.16969">
        <ele>420.04</ele>
        <time>2020-10-08T10:12:44Z</time>
      </trkpt>
      <trkpt lat="46.21047" lon="6.16942">
        <ele>420.04</ele>
        <time>2020-10-08T10:12:48Z</time>
      </trkpt>
      <trkpt lat="46.21036" lon="6.16916">
        <ele>420.04</ele>
        <time>2020-10-08T10:12:52Z</time>
      </trkpt>
      <trkpt lat="46.21026" lon="6.16893">
        <ele>420.04</ele>
        <time>2020-10-08T10:12:56Z</time>
      </trkpt>
      <trkpt lat="46.21019" lon="6.16867">
        <ele>420.04</ele>
        <time>2020-10-08T10:13:01Z</time>
      </trkpt>
      <trkpt lat="46.21012" lon="6.16842">
        <ele>420.04</ele>
        <time>2020-10-08T10:13:07Z</time>
      </trkpt>
      <trkpt lat="46.21" lon="6.16817">
        <ele>420.04</ele>
        <time>2020-10-08T10:13:12Z</time>
      </trkpt>
      <trkpt lat="46.20988" lon="6.16791">
        <ele>420.04</ele>
        <time>2020-10-08T10:13:17Z</time>
      </trkpt>
      <trkpt lat="46.20976" lon="6.16763">
        <ele>420.04</ele>
        <time>2020-10-08T10:13:22Z</time>
      </trkpt>
      <trkpt lat="46.20963" lon="6.16733">
        <ele>420.04</ele>
        <time>2020-10-08T10:13:27Z</time>
      </trkpt>
      <trkpt lat="46.2095" lon="6.16704">
        <ele>420.04</ele>
        <time>2020-10-08T10:13:32Z</time>
      </trkpt>
      <trkpt lat="46.20938" lon="6.16681">
        <ele>420.04</ele>
        <time>2020-10-08T10:13:36Z</time>
      </trkpt>
      <trkpt lat="46.20928" lon="6.16659">
        <ele>420.04</ele>
        <time>2020-10-08T10:13:40Z</time>
      </trkpt>
      <trkpt lat="46.20918" lon="6.16636">
        <ele>420.04</ele>
        <time>2020-10-08T10:13:44Z</time>
      </trkpt>
      <trkpt lat="46.20905" lon="6.1661">
        <ele>420.04</ele>
        <time>2020-10-08T10:13:48Z</time>
      </trkpt>
      <trkpt lat="46.20892" lon="6.16583">
        <ele>420.04</ele>
        <time>2020-10-08T10:13:52Z</time>
      </trkpt>
      <trkpt lat="46.20881" lon="6.16556">
        <ele>420.04</ele>
        <time>2020-10-08T10:13:56Z</time>
      </trkpt>
      <trkpt lat="46.20871" lon="6.16532">
        <ele>420.04</ele>
        <time>2020-10-08T10:14:00Z</time>
      </trkpt>
      <trkpt lat="46.2086" lon="6.16507">
        <ele>420.04</ele>
        <time>2020-10-08T10:14:05Z</time>
      </trkpt>
      <trkpt lat="46.20849" lon="6.1648">
        <ele>420.04</ele>
        <time>2020-10-08T10:14:10Z</time>
      </trkpt>
      <trkpt lat="46.20834" lon="6.16452">
        <ele>420.04</ele>
        <time>2020-10-08T10:14:15Z</time>
      </trkpt>
      <trkpt lat="46.20822" lon="6.16425">
        <ele>420.04</ele>
        <time>2020-10-08T10:14:20Z</time>
      </trkpt>
      <trkpt lat="46.20814" lon="6.16399">
        <ele>420.04</ele>
        <time>2020-10-08T10:14:24Z</time>
      </trkpt>
      <trkpt lat="46.20806" lon="6.1637">
        <ele>420.04</ele>
        <time>2020-10-08T10:14:28Z</time>
      </trkpt>
      <trkpt lat="46.20798" lon="6.16341">
        <ele>420.04</ele>
        <time>2020-10-08T10:14:32Z</time>
      </trkpt>
      <trkpt lat="46.20794" lon="6.16313">
        <ele>420.04</ele>
        <time>2020-10-08T10:14:36Z</time>
      </trkpt>
      <trkpt lat="46.20789" lon="6.16283">
        <ele>420.04</ele>
        <time>2020-10-08T10:14:41Z</time>
      </trkpt>
      <trkpt lat="46.20781" lon="6.16253">
        <ele>420.04</ele>
        <time>2020-10-08T10:14:46Z</time>
      </trkpt>
      <trkpt lat="46.20771" lon="6.16227">
        <ele>420.04</ele>
        <time>2020-10-08T10:14:50Z</time>
      </trkpt>
      <trkpt lat="46.20762" lon="6.162">
        <ele>420.04</ele>
        <time>2020-10-08T10:14:54Z</time>
      </trkpt>
      <trkpt lat="46.2075" lon="6.16172">
        <ele>420.04</ele>
        <time>2020-10-08T10:14:58Z</time>
      </trkpt>
      <trkpt lat="46.20739" lon="6.16149">
        <ele>420.04</ele>
        <time>2020-10-08T10:15:02Z</time>
      </trkpt>
      <trkpt lat="46.20726" lon="6.1612">
        <ele>420.04</ele>
        <time>2020-10-08T10:15:07Z</time>
      </trkpt>
      <trkpt lat="46.20714" lon="6.16095">
        <ele>420.04</ele>
        <time>2020-10-08T10:15:11Z</time>
      </trkpt>
      <trkpt lat="46.20703" lon="6.16069">
        <ele>420.04</ele>
        <time>2020-10-08T10:15:15Z</time>
      </trkpt>
      <trkpt lat="46.2069" lon="6.16041">
        <ele>420.04</ele>
        <time>2020-10-08T10:15:19Z</time>
      </trkpt>
      <trkpt lat="46.20678" lon="6.16018">
        <ele>420.04</ele>
        <time>2020-10-08T10:15:23Z</time>
      </trkpt>
      <trkpt lat="46.20665" lon="6.15992">
        <ele>420.04</ele>
        <time>2020-10-08T10:15:28Z</time>
      </trkpt>
      <trkpt lat="46.20653" lon="6.15966">
        <ele>420.04</ele>
        <time>2020-10-08T10:15:33Z</time>
      </trkpt>
      <trkpt lat="46.20642" lon="6.15943">
        <ele>420.04</ele>
        <time>2020-10-08T10:15:38Z</time>
      </trkpt>
      <trkpt lat="46.2063" lon="6.15918">
        <ele>420.04</ele>
        <time>2020-10-08T10:15:43Z</time>
      </trkpt>
      <trkpt lat="46.20617" lon="6.15889">
        <ele>420.04</ele>
        <time>2020-10-08T10:15:49Z</time>
      </trkpt>
      <trkpt lat="46.20605" lon="6.15863">
        <ele>420.04</ele>
        <time>2020-10-08T10:15:54Z</time>
      </trkpt>
      <trkpt lat="46.20592" lon="6.15836">
        <ele>420.04</ele>
        <time>2020-10-08T10:15:58Z</time>
      </trkpt>
      <trkpt lat="46.20576" lon="6.15807">
        <ele>420.04</ele>
        <time>2020-10-08T10:16:02Z</time>
      </trkpt>
      <trkpt lat="46.20563" lon="6.15785">
        <ele>420.04</ele>
        <time>2020-10-08T10:16:06Z</time>
      </trkpt>
      <trkpt lat="46.20551" lon="6.15756">
        <ele>420.04</ele>
        <time>2020-10-08T10:16:13Z</time>
      </trkpt>
      <trkpt lat="46.20538" lon="6.15727">
        <ele>420.04</ele>
        <time>2020-10-08T10:16:18Z</time>
      </trkpt>
      <trkpt lat="46.20526" lon="6.15702">
        <ele>420.04</ele>
        <time>2020-10-08T10:16:22Z</time>
      </trkpt>
      <trkpt lat="46.20513" lon="6.15674">
        <ele>420.04</ele>
        <time>2020-10-08T10:16:26Z</time>
      </trkpt>
      <trkpt lat="46.20503" lon="6.15649">
        <ele>420.04</ele>
        <time>2020-10-08T10:16:30Z</time>
      </trkpt>
      <trkpt lat="46.20489" lon="6.15623">
        <ele>420.04</ele>
        <time>2020-10-08T10:16:35Z</time>
      </trkpt>
      <trkpt lat="46.20476" lon="6.15597">
        <ele>420.04</ele>
        <time>2020-10-08T10:16:40Z</time>
      </trkpt>
      <trkpt lat="46.20465" lon="6.15573">
        <ele>420.04</ele>
        <time>2020-10-08T10:16:45Z</time>
      </trkpt>
      <trkpt lat="46.20453" lon="6.15549">
        <ele>420.04</ele>
        <time>2020-10-08T10:16:50Z</time>
      </trkpt>
      <trkpt lat="46.20442" lon="6.15523">
        <ele>420.04</ele>
        <time>2020-10-08T10:16:54Z</time>
      </trkpt>
      <trkpt lat="46.20431" lon="6.155">
        <ele>420.04</ele>
        <time>2020-10-08T10:16:58Z</time>
      </trkpt>
      <trkpt lat="46.20419" lon="6.15476">
        <ele>420.04</ele>
        <time>2020-10-08T10:17:03Z</time>
      </trkpt>
      <trkpt lat="46.20404" lon="6.15448">
        <ele>420.04</ele>
        <time>2020-10-08T10:17:08Z</time>
      </trkpt>
      <trkpt lat="46.20392" lon="6.15421">
        <ele>420.04</ele>
        <time>2020-10-08T10:17:12Z</time>
      </trkpt>
      <trkpt lat="46.2038" lon="6.15398">
        <ele>420.04</ele>
        <time>2020-10-08T10:17:16Z</time>
      </trkpt>
      <trkpt lat="46.20369" lon="6.15375">
        <ele>420.04</ele>
        <time>2020-10-08T10:17:20Z</time>
      </trkpt>
      <trkpt lat="46.20359" lon="6.15347">
        <ele>420.04</ele>
        <time>2020-10-08T10:17:25Z</time>
      </trkpt>
      <trkpt lat="46.20355" lon="6.15321">
        <ele>420.04</ele>
        <time>2020-10-08T10:17:30Z</time>
      </trkpt>
      <trkpt lat="46.20365" lon="6.15293">
        <ele>420.04</ele>
        <time>2020-10-08T10:17:36Z</time>
      </trkpt>
      <trkpt lat="46.20371" lon="6.15267">
        <ele>420.04</ele>
        <time>2020-10-08T10:17:40Z</time>
      </trkpt>
      <trkpt lat="46.20376" lon="6.1524">
        <ele>420.04</ele>
        <time>2020-10-08T10:17:44Z</time>
      </trkpt>
      <trkpt lat="46.2038" lon="6.15207">
        <ele>420.04</ele>
        <time>2020-10-08T10:17:48Z</time>
      </trkpt>
      <trkpt lat="46.20386" lon="6.15181">
        <ele>420.04</ele>
        <time>2020-10-08T10:17:52Z</time>
      </trkpt>
      <trkpt lat="46.20393" lon="6.15154">
        <ele>420.04</ele>
        <time>2020-10-08T10:17:57Z</time>
      </trkpt>
      <trkpt lat="46.204" lon="6.15124">
        <ele>420.04</ele>
        <time>2020-10-08T10:18:03Z</time>
      </trkpt>
      <trkpt lat="46.20405" lon="6.1509">
        <ele>420.04</ele>
        <time>2020-10-08T10:18:09Z</time>
      </trkpt>
      <trkpt lat="46.20419" lon="6.15074">
        <ele>420.04</ele>
        <time>2020-10-08T10:18:36Z</time>
      </trkpt>
      <trkpt lat="46.20438" lon="6.15076">
        <ele>420.04</ele>
        <time>2020-10-08T10:18:42Z</time>
      </trkpt>
      <trkpt lat="46.20453" lon="6.15058">
        <ele>420.04</ele>
        <time>2020-10-08T10:18:49Z</time>
      </trkpt>
      <trkpt lat="46.20461" lon="6.15029">
        <ele>420.04</ele>
        <time>2020-10-08T10:18:55Z</time>
      </trkpt>
      <trkpt lat="46.20477" lon="6.15009">
        <ele>420.04</ele>
        <time>2020-10-08T10:19:00Z</time>
      </trkpt>
      <trkpt lat="46.20492" lon="6.14995">
        <ele>420.04</ele>
        <time>2020-10-08T10:19:05Z</time>
      </trkpt>
      <trkpt lat="46.20501" lon="6.14971">
        <ele>420.04</ele>
        <time>2020-10-08T10:19:12Z</time>
      </trkpt>
      <trkpt lat="46.20519" lon="6.14953">
        <ele>420.04</ele>
        <time>2020-10-08T10:19:17Z</time>
      </trkpt>
      <trkpt lat="46.20536" lon="6.14936">
        <ele>420.04</ele>
        <time>2020-10-08T10:19:21Z</time>
      </trkpt>
      <trkpt lat="46.20556" lon="6.14918">
        <ele>420.04</ele>
        <time>2020-10-08T10:19:25Z</time>
      </trkpt>
      <trkpt lat="46.20571" lon="6.14903">
        <ele>420.04</ele>
        <time>2020-10-08T10:19:28Z</time>
      </trkpt>
      <trkpt lat="46.2059" lon="6.14885">
        <ele>420.04</ele>
        <time>2020-10-08T10:19:32Z</time>
      </trkpt>
      <trkpt lat="46.20607" lon="6.1487">
        <ele>420.04</ele>
        <time>2020-10-08T10:19:36Z</time>
      </trkpt>
      <trkpt lat="46.20623" lon="6.14854">
        <ele>420.04</ele>
        <time>2020-10-08T10:19:40Z</time>
      </trkpt>
      <trkpt lat="46.20642" lon="6.14836">
        <ele>420.04</ele>
        <time>2020-10-08T10:19:44Z</time>
      </trkpt>
      <trkpt lat="46.20661" lon="6.14818">
        <ele>420.04</ele>
        <time>2020-10-08T10:19:48Z</time>
      </trkpt>
      <trkpt lat="46.20679" lon="6.14802">
        <ele>420.04</ele>
        <time>2020-10-08T10:19:52Z</time>
      </trkpt>
      <trkpt lat="46.20697" lon="6.14793">
        <ele>420.04</ele>
        <time>2020-10-08T10:19:57Z</time>
      </trkpt>
      <trkpt lat="46.20707" lon="6.14784">
        <ele>420.04</ele>
        <time>2020-10-08T10:21:22Z</time>
      </trkpt>
      <trkpt lat="46.2071" lon="6.14764">
        <ele>420.04</ele>
        <time>2020-10-08T10:21:39Z</time>
      </trkpt>
      <trkpt lat="46.20701" lon="6.14747">
        <ele>420.04</ele>
        <time>2020-10-08T10:22:32Z</time>
      </trkpt>
      <trkpt lat="46.20687" lon="6.14729">
        <ele>420.04</ele>
        <time>2020-10-08T10:22:52Z</time>
      </trkpt>
      <trkpt lat="46.20681" lon="6.14704">
        <ele>420.04</ele>
        <time>2020-10-08T10:23:01Z</time>
      </trkpt>
      <trkpt lat="46.20674" lon="6.14679">
        <ele>420.04</ele>
        <time>2020-10-08T10:23:07Z</time>
      </trkpt>
      <trkpt lat="46.20667" lon="6.14652">
        <ele>420.04</ele>
        <time>2020-10-08T10:23:13Z</time>
      </trkpt>
      <trkpt lat="46.2066" lon="6.14628">
        <ele>420.04</ele>
        <time>2020-10-08T10:23:19Z</time>
      </trkpt>
      <trkpt lat="46.20655" lon="6.14602">
        <ele>420.04</ele>
        <time>2020-10-08T10:23:25Z</time>
      </trkpt>
      <trkpt lat="46.20647" lon="6.14578">
        <ele>420.04</ele>
        <time>2020-10-08T10:23:33Z</time>
      </trkpt>
      <trkpt lat="46.20641" lon="6.14554">
        <ele>420.04</ele>
        <time>2020-10-08T10:23:39Z</time>
      </trkpt>
      <trkpt lat="46.20634" lon="6.14526">
        <ele>420.04</ele>
        <time>2020-10-08T10:23:45Z</time>
      </trkpt>
      <trkpt lat="46.20628" lon="6.145">
        <ele>420.04</ele>
        <time>2020-10-08T10:23:52Z</time>
      </trkpt>
      <trkpt lat="46.20623" lon="6.14473">
        <ele>420.04</ele>
        <time>2020-10-08T10:24:00Z</time>
      </trkpt>
      <trkpt lat="46.20614" lon="6.14449">
        <ele>420.04</ele>
        <time>2020-10-08T10:24:05Z</time>
      </trkpt>
      <trkpt lat="46.20606" lon="6.14421">
        <ele>420.04</ele>
        <time>2020-10-08T10:24:10Z</time>
      </trkpt>
      <trkpt lat="46.20597" lon="6.14392">
        <ele>420.04</ele>
        <time>2020-10-08T10:24:15Z</time>
      </trkpt>
      <trkpt lat="46.2059" lon="6.14367">
        <ele>420.04</ele>
        <time>2020-10-08T10:24:20Z</time>
      </trkpt>
      <trkpt lat="46.20583" lon="6.14343">
        <ele>420.04</ele>
        <time>2020-10-08T10:24:28Z</time>
      </trkpt>
      <trkpt lat="46.20576" lon="6.14317">
        <ele>420.04</ele>
        <time>2020-10-08T10:24:37Z</time>
      </trkpt>
      <trkpt lat="46.2057" lon="6.14292">
        <ele>420.04</ele>
        <time>2020-10-08T10:24:56Z</time>
      </trkpt>
      <trkpt lat="46.20566" lon="6.14264">
        <ele>420.04</ele>
        <time>2020-10-08T10:25:02Z</time>
      </trkpt>
      <trkpt lat="46.20558" lon="6.14239">
        <ele>420.04</ele>
        <time>2020-10-08T10:25:09Z</time>
      </trkpt>
      <trkpt lat="46.20557" lon="6.14211">
        <ele>420.04</ele>
        <time>2020-10-08T10:25:16Z</time>
      </trkpt>
      <trkpt lat="46.20553" lon="6.14181">
        <ele>420.04</ele>
        <time>2020-10-08T10:25:22Z</time>
      </trkpt>
      <trkpt lat="46.20551" lon="6.14149">
        <ele>420.04</ele>
        <time>2020-10-08T10:25:28Z</time>
      </trkpt>
      <trkpt lat="46.20548" lon="6.14119">
        <ele>420.04</ele>
        <time>2020-10-08T10:25:34Z</time>
      </trkpt>
      <trkpt lat="46.20545" lon="6.14092">
        <ele>420.04</ele>
        <time>2020-10-08T10:25:39Z</time>
      </trkpt>
      <trkpt lat="46.20539" lon="6.14062">
        <ele>420.04</ele>
        <time>2020-10-08T10:25:46Z</time>
      </trkpt>
      <trkpt lat="46.20538" lon="6.14035">
        <ele>420.04</ele>
        <time>2020-10-08T10:25:51Z</time>
      </trkpt>
      <trkpt lat="46.20538" lon="6.14004">
        <ele>420.04</ele>
        <time>2020-10-08T10:25:57Z</time>
      </trkpt>
      <trkpt lat="46.20536" lon="6.13976">
        <ele>420.04</ele>
        <time>2020-10-08T10:26:02Z</time>
      </trkpt>
      <trkpt lat="46.20533" lon="6.13951">
        <ele>420.04</ele>
        <time>2020-10-08T10:26:10Z</time>
      </trkpt>
      <trkpt lat="46.20532" lon="6.13917">
        <ele>420.04</ele>
        <time>2020-10-08T10:26:16Z</time>
      </trkpt>
      <trkpt lat="46.20533" lon="6.1389">
        <ele>420.04</ele>
        <time>2020-10-08T10:26:20Z</time>
      </trkpt>
      <trkpt lat="46.20535" lon="6.13861">
        <ele>420.04</ele>
        <time>2020-10-08T10:26:25Z</time>
      </trkpt>
      <trkpt lat="46.20534" lon="6.13832">
        <ele>420.04</ele>
        <time>2020-10-08T10:26:30Z</time>
      </trkpt>
      <trkpt lat="46.20536" lon="6.13804">
        <ele>420.04</ele>
        <time>2020-10-08T10:26:34Z</time>
      </trkpt>
      <trkpt lat="46.20538" lon="6.13771">
        <ele>420.04</ele>
        <time>2020-10-08T10:26:38Z</time>
      </trkpt>
      <trkpt lat="46.2054" lon="6.13739">
        <ele>420.04</ele>
        <time>2020-10-08T10:26:42Z</time>
      </trkpt>
      <trkpt lat="46.20541" lon="6.1371">
        <ele>420.04</ele>
        <time>2020-10-08T10:26:46Z</time>
      </trkpt>
      <trkpt lat="46.20542" lon="6.13683">
        <ele>420.04</ele>
        <time>2020-10-08T10:26:50Z</time>
      </trkpt>
      <trkpt lat="46.20539" lon="6.13656">
        <ele>420.04</ele>
        <time>2020-10-08T10:26:58Z</time>
      </trkpt>
      <trkpt lat="46.20534" lon="6.13626">
        <ele>420.04</ele>
        <time>2020-10-08T10:27:04Z</time>
      </trkpt>
      <trkpt lat="46.20525" lon="6.13599">
        <ele>420.04</ele>
        <time>2020-10-08T10:27:09Z</time>
      </trkpt>
      <trkpt lat="46.20515" lon="6.13577">
        <ele>420.04</ele>
        <time>2020-10-08T10:27:13Z</time>
      </trkpt>
      <trkpt lat="46.20501" lon="6.13552">
        <ele>420.04</ele>
        <time>2020-10-08T10:27:18Z</time>
      </trkpt>
      <trkpt lat="46.20488" lon="6.13532">
        <ele>420.04</ele>
        <time>2020-10-08T10:27:23Z</time>
      </trkpt>
      <trkpt lat="46.20475" lon="6.13513">
        <ele>420.04</ele>
        <time>2020-10-08T10:27:29Z</time>
      </trkpt>
      <trkpt lat="46.20461" lon="6.13503">
        <ele>420.04</ele>
        <time>2020-10-08T10:27:37Z</time>
      </trkpt>
      <trkpt lat="46.20447" lon="6.13522">
        <ele>420.04</ele>
        <time>2020-10-08T10:27:43Z</time>
      </trkpt>
      <trkpt lat="46.2043" lon="6.13538">
        <ele>420.04</ele>
        <time>2020-10-08T10:27:48Z</time>
      </trkpt>
      <trkpt lat="46.20411" lon="6.13543">
        <ele>420.04</ele>
        <time>2020-10-08T10:27:53Z</time>
      </trkpt>
      <trkpt lat="46.20396" lon="6.13527">
        <ele>420.04</ele>
        <time>2020-10-08T10:28:00Z</time>
      </trkpt>
      <trkpt lat="46.20396" lon="6.13524">
        <ele>420.04</ele>
        <time>2020-10-08T10:28:17Z</time>
      </trkpt>
      <trkpt lat="46.20405" lon="6.13547">
        <ele>420.04</ele>
        <time>2020-10-08T10:28:32Z</time>
      </trkpt>
      <trkpt lat="46.20409" lon="6.13578">
        <ele>420.04</ele>
        <time>2020-10-08T10:28:43Z</time>
      </trkpt>
      <trkpt lat="46.20415" lon="6.13607">
        <ele>420.04</ele>
        <time>2020-10-08T10:28:48Z</time>
      </trkpt>
      <trkpt lat="46.20414" lon="6.13634">
        <ele>420.04</ele>
        <time>2020-10-08T10:28:53Z</time>
      </trkpt>
      <trkpt lat="46.20396" lon="6.13647">
        <ele>420.04</ele>
        <time>2020-10-08T10:28:59Z</time>
      </trkpt>
      <trkpt lat="46.20385" lon="6.13628">
        <ele>420.04</ele>
        <time>2020-10-08T10:29:08Z</time>
      </trkpt>
      <trkpt lat="46.20381" lon="6.13602">
        <ele>420.04</ele>
        <time>2020-10-08T10:29:15Z</time>
      </trkpt>
      <trkpt lat="46.20382" lon="6.13571">
        <ele>420.04</ele>
        <time>2020-10-08T10:29:20Z</time>
      </trkpt>
      <trkpt lat="46.20385" lon="6.13544">
        <ele>420.04</ele>
        <time>2020-10-08T10:29:25Z</time>
      </trkpt>
      <trkpt lat="46.20375" lon="6.13517">
        <ele>420.04</ele>
        <time>2020-10-08T10:29:31Z</time>
      </trkpt>
      <trkpt lat="46.20365" lon="6.13488">
        <ele>420.04</ele>
        <time>2020-10-08T10:29:36Z</time>
      </trkpt>
      <trkpt lat="46.20356" lon="6.13462">
        <ele>420.04</ele>
        <time>2020-10-08T10:29:40Z</time>
      </trkpt>
      <trkpt lat="46.20344" lon="6.13436">
        <ele>420.04</ele>
        <time>2020-10-08T10:29:44Z</time>
      </trkpt>
      <trkpt lat="46.20331" lon="6.13408">
        <ele>420.04</ele>
        <time>2020-10-08T10:29:49Z</time>
      </trkpt>
      <trkpt lat="46.20321" lon="6.13379">
        <ele>420.04</ele>
        <time>2020-10-08T10:29:55Z</time>
      </trkpt>
      <trkpt lat="46.20312" lon="6.13351">
        <ele>420.04</ele>
        <time>2020-10-08T10:30:00Z</time>
      </trkpt>
      <trkpt lat="46.20304" lon="6.13326">
        <ele>420.04</ele>
        <time>2020-10-08T10:30:04Z</time>
      </trkpt>
      <trkpt lat="46.20294" lon="6.13299">
        <ele>420.04</ele>
        <time>2020-10-08T10:30:09Z</time>
      </trkpt>
      <trkpt lat="46.20286" lon="6.13271">
        <ele>420.04</ele>
        <time>2020-10-08T10:30:15Z</time>
      </trkpt>
      <trkpt lat="46.20282" lon="6.13243">
        <ele>420.04</ele>
        <time>2020-10-08T10:30:20Z</time>
      </trkpt>
      <trkpt lat="46.20278" lon="6.13216">
        <ele>420.04</ele>
        <time>2020-10-08T10:30:24Z</time>
      </trkpt>
      <trkpt lat="46.20275" lon="6.13187">
        <ele>420.04</ele>
        <time>2020-10-08T10:30:30Z</time>
      </trkpt>
      <trkpt lat="46.20271" lon="6.1316">
        <ele>420.04</ele>
        <time>2020-10-08T10:30:35Z</time>
      </trkpt>
      <trkpt lat="46.20275" lon="6.13131">
        <ele>420.04</ele>
        <time>2020-10-08T10:30:41Z</time>
      </trkpt>
      <trkpt lat="46.20266" lon="6.13101">
        <ele>420.04</ele>
        <time>2020-10-08T10:30:49Z</time>
      </trkpt>
      <trkpt lat="46.20264" lon="6.13072">
        <ele>420.04</ele>
        <time>2020-10-08T10:30:54Z</time>
      </trkpt>
      <trkpt lat="46.20265" lon="6.1304">
        <ele>420.04</ele>
        <time>2020-10-08T10:30:59Z</time>
      </trkpt>
      <trkpt lat="46.20266" lon="6.13009">
        <ele>420.04</ele>
        <time>2020-10-08T10:31:04Z</time>
      </trkpt>
      <trkpt lat="46.20265" lon="6.12982">
        <ele>420.04</ele>
        <time>2020-10-08T10:31:09Z</time>
      </trkpt>
      <trkpt lat="46.20266" lon="6.12949">
        <ele>420.04</ele>
        <time>2020-10-08T10:31:14Z</time>
      </trkpt>
      <trkpt lat="46.20266" lon="6.12917">
        <ele>420.04</ele>
        <time>2020-10-08T10:31:19Z</time>
      </trkpt>
      <trkpt lat="46.20266" lon="6.12889">
        <ele>420.04</ele>
        <time>2020-10-08T10:31:24Z</time>
      </trkpt>
      <trkpt lat="46.20264" lon="6.12859">
        <ele>420.04</ele>
        <time>2020-10-08T10:31:30Z</time>
      </trkpt>
      <trkpt lat="46.20265" lon="6.12832">
        <ele>420.04</ele>
        <time>2020-10-08T10:31:35Z</time>
      </trkpt>
      <trkpt lat="46.20262" lon="6.12804">
        <ele>420.04</ele>
        <time>2020-10-08T10:31:40Z</time>
      </trkpt>
      <trkpt lat="46.20259" lon="6.12769">
        <ele>420.04</ele>
        <time>2020-10-08T10:31:45Z</time>
      </trkpt>
      <trkpt lat="46.20256" lon="6.12737">
        <ele>420.04</ele>
        <time>2020-10-08T10:31:50Z</time>
      </trkpt>
      <trkpt lat="46.20253" lon="6.12705">
        <ele>420.04</ele>
        <time>2020-10-08T10:31:54Z</time>
      </trkpt>
      <trkpt lat="46.20248" lon="6.12674">
        <ele>420.04</ele>
        <time>2020-10-08T10:31:58Z</time>
      </trkpt>
      <trkpt lat="46.20244" lon="6.12645">
        <ele>420.04</ele>
        <time>2020-10-08T10:32:02Z</time>
      </trkpt>
      <trkpt lat="46.20238" lon="6.12617">
        <ele>420.04</ele>
        <time>2020-10-08T10:32:08Z</time>
      </trkpt>
      <trkpt lat="46.20215" lon="6.12614">
        <ele>420.04</ele>
        <time>2020-10-08T10:32:15Z</time>
      </trkpt>
      <trkpt lat="46.20187" lon="6.12605">
        <ele>420.04</ele>
        <time>2020-10-08T10:32:20Z</time>
      </trkpt>
      <trkpt lat="46.20167" lon="6.12601">
        <ele>420.04</ele>
        <time>2020-10-08T10:32:24Z</time>
      </trkpt>
      <trkpt lat="46.20148" lon="6.12599">
        <ele>420.04</ele>
        <time>2020-10-08T10:32:29Z</time>
      </trkpt>
      <trkpt lat="46.2013" lon="6.12596">
        <ele>420.04</ele>
        <time>2020-10-08T10:32:34Z</time>
      </trkpt>
      <trkpt lat="46.20109" lon="6.12591">
        <ele>420.04</ele>
        <time>2020-10-08T10:32:40Z</time>
      </trkpt>
      <trkpt lat="46.20091" lon="6.12584">
        <ele>420.04</ele>
        <time>2020-10-08T10:32:46Z</time>
      </trkpt>
      <trkpt lat="46.20075" lon="6.12575">
        <ele>420.04</ele>
        <time>2020-10-08T10:32:52Z</time>
      </trkpt>
      <trkpt lat="46.20056" lon="6.12561">
        <ele>420.04</ele>
        <time>2020-10-08T10:32:58Z</time>
      </trkpt>
      <trkpt lat="46.20039" lon="6.1255">
        <ele>420.04</ele>
        <time>2020-10-08T10:33:03Z</time>
      </trkpt>
      <trkpt lat="46.20022" lon="6.12539">
        <ele>420.04</ele>
        <time>2020-10-08T10:33:09Z</time>
      </trkpt>
      <trkpt lat="46.20013" lon="6.1252">
        <ele>420.04</ele>
        <time>2020-10-08T10:33:19Z</time>
      </trkpt>
      <trkpt lat="46.20018" lon="6.12494">
        <ele>420.04</ele>
        <time>2020-10-08T10:33:25Z</time>
      </trkpt>
      <trkpt lat="46.20024" lon="6.12466">
        <ele>420.04</ele>
        <time>2020-10-08T10:33:31Z</time>
      </trkpt>
      <trkpt lat="46.20026" lon="6.12437">
        <ele>420.04</ele>
        <time>2020-10-08T10:33:38Z</time>
      </trkpt>
      <trkpt lat="46.20012" lon="6.12423">
        <ele>420.04</ele>
        <time>2020-10-08T10:33:48Z</time>
      </trkpt>
      <trkpt lat="46.20009" lon="6.1245">
        <ele>420.04</ele>
        <time>2020-10-08T10:33:53Z</time>
      </trkpt>
      <trkpt lat="46.20006" lon="6.12476">
        <ele>420.04</ele>
        <time>2020-10-08T10:33:57Z</time>
      </trkpt>
      <trkpt lat="46.20002" lon="6.12503">
        <ele>424.84</ele>
        <time>2020-10-08T10:34:02Z</time>
      </trkpt>
      <trkpt lat="46.20001" lon="6.12527">
        <ele>424.13</ele>
        <time>2020-10-08T10:34:14Z</time>
      </trkpt>
      <trkpt lat="46.19997" lon="6.12554">
        <ele>424.21</ele>
        <time>2020-10-08T10:34:18Z</time>
      </trkpt>
      <trkpt lat="46.19995" lon="6.12583">
        <ele>424.6</ele>
        <time>2020-10-08T10:34:22Z</time>
      </trkpt>
      <trkpt lat="46.19993" lon="6.12615">
        <ele>424.97</ele>
        <time>2020-10-08T10:34:26Z</time>
      </trkpt>
      <trkpt lat="46.19989" lon="6.1265">
        <ele>425.15</ele>
        <time>2020-10-08T10:34:31Z</time>
      </trkpt>
      <trkpt lat="46.19982" lon="6.12679">
        <ele>425.18</ele>
        <time>2020-10-08T10:34:35Z</time>
      </trkpt>
      <trkpt lat="46.19971" lon="6.12711">
        <ele>425.3</ele>
        <time>2020-10-08T10:34:39Z</time>
      </trkpt>
      <trkpt lat="46.19952" lon="6.12744">
        <ele>425.38</ele>
        <time>2020-10-08T10:34:43Z</time>
      </trkpt>
      <trkpt lat="46.19935" lon="6.12766">
        <ele>425.38</ele>
        <time>2020-10-08T10:34:47Z</time>
      </trkpt>
      <trkpt lat="46.1992" lon="6.12786">
        <ele>425.41</ele>
        <time>2020-10-08T10:34:54Z</time>
      </trkpt>
      <trkpt lat="46.19931" lon="6.12783">
        <ele>424.38</ele>
        <time>2020-10-08T10:35:39Z</time>
      </trkpt>
      <trkpt lat="46.19918" lon="6.12809">
        <ele>422.84</ele>
        <time>2020-10-08T10:35:51Z</time>
      </trkpt>
      <trkpt lat="46.19903" lon="6.12833">
        <ele>421.81</ele>
        <time>2020-10-08T10:35:56Z</time>
      </trkpt>
      <trkpt lat="46.19889" lon="6.12868">
        <ele>421.3</ele>
        <time>2020-10-08T10:36:02Z</time>
      </trkpt>
      <trkpt lat="46.19876" lon="6.1289">
        <ele>421.17</ele>
        <time>2020-10-08T10:36:07Z</time>
      </trkpt>
      <trkpt lat="46.19863" lon="6.12915">
        <ele>421.15</ele>
        <time>2020-10-08T10:36:13Z</time>
      </trkpt>
      <trkpt lat="46.1985" lon="6.12938">
        <ele>421.12</ele>
        <time>2020-10-08T10:36:19Z</time>
      </trkpt>
      <trkpt lat="46.19838" lon="6.12959">
        <ele>421.08</ele>
        <time>2020-10-08T10:36:25Z</time>
      </trkpt>
      <trkpt lat="46.19825" lon="6.1298">
        <ele>421.18</ele>
        <time>2020-10-08T10:36:40Z</time>
      </trkpt>
      <trkpt lat="46.19809" lon="6.13006">
        <ele>421.3</ele>
        <time>2020-10-08T10:36:46Z</time>
      </trkpt>
      <trkpt lat="46.19792" lon="6.13029">
        <ele>421.2</ele>
        <time>2020-10-08T10:36:51Z</time>
      </trkpt>
      <trkpt lat="46.19777" lon="6.13051">
        <ele>420.91</ele>
        <time>2020-10-08T10:36:56Z</time>
      </trkpt>
      <trkpt lat="46.19758" lon="6.1307">
        <ele>421.29</ele>
        <time>2020-10-08T10:37:03Z</time>
      </trkpt>
      <trkpt lat="46.19744" lon="6.13089">
        <ele>422.81</ele>
        <time>2020-10-08T10:37:13Z</time>
      </trkpt>
      <trkpt lat="46.19722" lon="6.13112">
        <ele>422.96</ele>
        <time>2020-10-08T10:37:20Z</time>
      </trkpt>
      <trkpt lat="46.1971" lon="6.13137">
        <ele>422.96</ele>
        <time>2020-10-08T10:37:26Z</time>
      </trkpt>
      <trkpt lat="46.19695" lon="6.1316">
        <ele>422.91</ele>
        <time>2020-10-08T10:37:31Z</time>
      </trkpt>
      <trkpt lat="46.19682" lon="6.13182">
        <ele>423.05</ele>
        <time>2020-10-08T10:37:36Z</time>
      </trkpt>
      <trkpt lat="46.19668" lon="6.13205">
        <ele>423.1</ele>
        <time>2020-10-08T10:37:41Z</time>
      </trkpt>
      <trkpt lat="46.19654" lon="6.13231">
        <ele>422.77</ele>
        <time>2020-10-08T10:37:45Z</time>
      </trkpt>
      <trkpt lat="46.19641" lon="6.13258">
        <ele>422.04</ele>
        <time>2020-10-08T10:37:49Z</time>
      </trkpt>
      <trkpt lat="46.19628" lon="6.13287">
        <ele>421.73</ele>
        <time>2020-10-08T10:37:54Z</time>
      </trkpt>
      <trkpt lat="46.19614" lon="6.13313">
        <ele>421.58</ele>
        <time>2020-10-08T10:37:59Z</time>
      </trkpt>
      <trkpt lat="46.196" lon="6.13335">
        <ele>421.55</ele>
        <time>2020-10-08T10:38:03Z</time>
      </trkpt>
      <trkpt lat="46.19585" lon="6.13361">
        <ele>421.72</ele>
        <time>2020-10-08T10:38:07Z</time>
      </trkpt>
      <trkpt lat="46.19569" lon="6.13387">
        <ele>421.72</ele>
        <time>2020-10-08T10:38:11Z</time>
      </trkpt>
      <trkpt lat="46.19554" lon="6.13415">
        <ele>421.72</ele>
        <time>2020-10-08T10:38:15Z</time>
      </trkpt>
      <trkpt lat="46.19541" lon="6.13441">
        <ele>421.72</ele>
        <time>2020-10-08T10:38:19Z</time>
      </trkpt>
      <trkpt lat="46.19529" lon="6.13463">
        <ele>421.72</ele>
        <time>2020-10-08T10:38:23Z</time>
      </trkpt>
      <trkpt lat="46.19516" lon="6.13485">
        <ele>421.72</ele>
        <time>2020-10-08T10:38:28Z</time>
      </trkpt>
      <trkpt lat="46.19503" lon="6.1351">
        <ele>421.72</ele>
        <time>2020-10-08T10:38:34Z</time>
      </trkpt>
      <trkpt lat="46.19492" lon="6.13535">
        <ele>421.72</ele>
        <time>2020-10-08T10:38:39Z</time>
      </trkpt>
      <trkpt lat="46.19487" lon="6.13561">
        <ele>421.72</ele>
        <time>2020-10-08T10:39:24Z</time>
      </trkpt>
      <trkpt lat="46.19479" lon="6.13581">
        <ele>421.72</ele>
        <time>2020-10-08T10:39:45Z</time>
      </trkpt>
      <trkpt lat="46.19467" lon="6.13602">
        <ele>421.72</ele>
        <time>2020-10-08T10:40:03Z</time>
      </trkpt>
      <trkpt lat="46.19455" lon="6.13624">
        <ele>421.72</ele>
        <time>2020-10-08T10:40:08Z</time>
      </trkpt>
      <trkpt lat="46.19441" lon="6.13646">
        <ele>421.72</ele>
        <time>2020-10-08T10:40:13Z</time>
      </trkpt>
      <trkpt lat="46.19428" lon="6.13672">
        <ele>421.72</ele>
        <time>2020-10-08T10:40:19Z</time>
      </trkpt>
      <trkpt lat="46.19413" lon="6.13696">
        <ele>421.72</ele>
        <time>2020-10-08T10:40:26Z</time>
      </trkpt>
      <trkpt lat="46.194" lon="6.13719">
        <ele>421.72</ele>
        <time>2020-10-08T10:40:32Z</time>
      </trkpt>
      <trkpt lat="46.19386" lon="6.13742">
        <ele>421.72</ele>
        <time>2020-10-08T10:40:37Z</time>
      </trkpt>
      <trkpt lat="46.19373" lon="6.13765">
        <ele>421.72</ele>
        <time>2020-10-08T10:40:42Z</time>
      </trkpt>
      <trkpt lat="46.19357" lon="6.13792">
        <ele>421.72</ele>
        <time>2020-10-08T10:40:48Z</time>
      </trkpt>
      <trkpt lat="46.19343" lon="6.13816">
        <ele>421.72</ele>
        <time>2020-10-08T10:40:53Z</time>
      </trkpt>
      <trkpt lat="46.1933" lon="6.13843">
        <ele>421.72</ele>
        <time>2020-10-08T10:40:58Z</time>
      </trkpt>
      <trkpt lat="46.19314" lon="6.13863">
        <ele>421.72</ele>
        <time>2020-10-08T10:41:03Z</time>
      </trkpt>
      <trkpt lat="46.19296" lon="6.1388">
        <ele>421.72</ele>
        <time>2020-10-08T10:41:21Z</time>
      </trkpt>
      <trkpt lat="46.1928" lon="6.13898">
        <ele>421.72</ele>
        <time>2020-10-08T10:41:26Z</time>
      </trkpt>
      <trkpt lat="46.1926" lon="6.13913">
        <ele>421.72</ele>
        <time>2020-10-08T10:41:31Z</time>
      </trkpt>
      <trkpt lat="46.19239" lon="6.13924">
        <ele>421.72</ele>
        <time>2020-10-08T10:41:36Z</time>
      </trkpt>
      <trkpt lat="46.19219" lon="6.13932">
        <ele>421.72</ele>
        <time>2020-10-08T10:41:41Z</time>
      </trkpt>
      <trkpt lat="46.19199" lon="6.13938">
        <ele>421.72</ele>
        <time>2020-10-08T10:41:46Z</time>
      </trkpt>
      <trkpt lat="46.1918" lon="6.13947">
        <ele>421.72</ele>
        <time>2020-10-08T10:41:51Z</time>
      </trkpt>
      <trkpt lat="46.19158" lon="6.13957">
        <ele>421.72</ele>
        <time>2020-10-08T10:41:56Z</time>
      </trkpt>
      <trkpt lat="46.19137" lon="6.13966">
        <ele>421.72</ele>
        <time>2020-10-08T10:42:01Z</time>
      </trkpt>
      <trkpt lat="46.19116" lon="6.13974">
        <ele>421.72</ele>
        <time>2020-10-08T10:42:06Z</time>
      </trkpt>
      <trkpt lat="46.19094" lon="6.1398">
        <ele>421.72</ele>
        <time>2020-10-08T10:42:11Z</time>
      </trkpt>
      <trkpt lat="46.1908" lon="6.13996">
        <ele>421.72</ele>
        <time>2020-10-08T10:42:40Z</time>
      </trkpt>
      <trkpt lat="46.19058" lon="6.14009">
        <ele>421.72</ele>
        <time>2020-10-08T10:42:47Z</time>
      </trkpt>
      <trkpt lat="46.19038" lon="6.14018">
        <ele>421.72</ele>
        <time>2020-10-08T10:42:53Z</time>
      </trkpt>
      <trkpt lat="46.19018" lon="6.14025">
        <ele>421.72</ele>
        <time>2020-10-08T10:43:00Z</time>
      </trkpt>
      <trkpt lat="46.18996" lon="6.14035">
        <ele>421.72</ele>
        <time>2020-10-08T10:43:08Z</time>
      </trkpt>
      <trkpt lat="46.18976" lon="6.14044">
        <ele>421.72</ele>
        <time>2020-10-08T10:43:17Z</time>
      </trkpt>
      <trkpt lat="46.18953" lon="6.14058">
        <ele>421.72</ele>
        <time>2020-10-08T10:43:26Z</time>
      </trkpt>
      <trkpt lat="46.18929" lon="6.14068">
        <ele>421.72</ele>
        <time>2020-10-08T10:43:32Z</time>
      </trkpt>
      <trkpt lat="46.18905" lon="6.14083">
        <ele>421.72</ele>
        <time>2020-10-08T10:43:38Z</time>
      </trkpt>
      <trkpt lat="46.18882" lon="6.14094">
        <ele>421.72</ele>
        <time>2020-10-08T10:43:43Z</time>
      </trkpt>
      <trkpt lat="46.18859" lon="6.1411">
        <ele>421.72</ele>
        <time>2020-10-08T10:43:49Z</time>
      </trkpt>
      <trkpt lat="46.18839" lon="6.1412">
        <ele>421.72</ele>
        <time>2020-10-08T10:43:55Z</time>
      </trkpt>
      <trkpt lat="46.18816" lon="6.14135">
        <ele>421.72</ele>
        <time>2020-10-08T10:44:02Z</time>
      </trkpt>
      <trkpt lat="46.18795" lon="6.14143">
        <ele>426.09</ele>
        <time>2020-10-08T10:44:40Z</time>
      </trkpt>
      <trkpt lat="46.18775" lon="6.14158">
        <ele>426.1</ele>
        <time>2020-10-08T10:44:47Z</time>
      </trkpt>
      <trkpt lat="46.18758" lon="6.14173">
        <ele>426.1</ele>
        <time>2020-10-08T10:44:52Z</time>
      </trkpt>
      <trkpt lat="46.18744" lon="6.14193">
        <ele>425.62</ele>
        <time>2020-10-08T10:44:58Z</time>
      </trkpt>
      <trkpt lat="46.18729" lon="6.14213">
        <ele>425.05</ele>
        <time>2020-10-08T10:45:04Z</time>
      </trkpt>
      <trkpt lat="46.18713" lon="6.14241">
        <ele>424.54</ele>
        <time>2020-10-08T10:45:11Z</time>
      </trkpt>
      <trkpt lat="46.18701" lon="6.14272">
        <ele>424.28</ele>
        <time>2020-10-08T10:45:17Z</time>
      </trkpt>
      <trkpt lat="46.18687" lon="6.14302">
        <ele>423.83</ele>
        <time>2020-10-08T10:45:25Z</time>
      </trkpt>
      <trkpt lat="46.18677" lon="6.14332">
        <ele>423.57</ele>
        <time>2020-10-08T10:45:32Z</time>
      </trkpt>
      <trkpt lat="46.18672" lon="6.1436">
        <ele>423.63</ele>
        <time>2020-10-08T10:45:38Z</time>
      </trkpt>
      <trkpt lat="46.18667" lon="6.14389">
        <ele>423.8</ele>
        <time>2020-10-08T10:45:43Z</time>
      </trkpt>
      <trkpt lat="46.18658" lon="6.14424">
        <ele>424.01</ele>
        <time>2020-10-08T10:45:51Z</time>
      </trkpt>
      <trkpt lat="46.1865" lon="6.14457">
        <ele>424.01</ele>
        <time>2020-10-08T10:45:56Z</time>
      </trkpt>
      <trkpt lat="46.18648" lon="6.14489">
        <ele>424.13</ele>
        <time>2020-10-08T10:46:01Z</time>
      </trkpt>
      <trkpt lat="46.18643" lon="6.14522">
        <ele>423.88</ele>
        <time>2020-10-08T10:46:06Z</time>
      </trkpt>
      <trkpt lat="46.18639" lon="6.14554">
        <ele>423.34</ele>
        <time>2020-10-08T10:46:12Z</time>
      </trkpt>
      <trkpt lat="46.18632" lon="6.14584">
        <ele>423.04</ele>
        <time>2020-10-08T10:46:18Z</time>
      </trkpt>
      <trkpt lat="46.1864" lon="6.14613">
        <ele>422.98</ele>
        <time>2020-10-08T10:46:24Z</time>
      </trkpt>
      <trkpt lat="46.18646" lon="6.14639">
        <ele>423.23</ele>
        <time>2020-10-08T10:46:30Z</time>
      </trkpt>
      <trkpt lat="46.18646" lon="6.14678">
        <ele>422.55</ele>
        <time>2020-10-08T10:46:42Z</time>
      </trkpt>
      <trkpt lat="46.18643" lon="6.14711">
        <ele>423.59</ele>
        <time>2020-10-08T10:46:51Z</time>
      </trkpt>
      <trkpt lat="46.18647" lon="6.14746">
        <ele>423.94</ele>
        <time>2020-10-08T10:47:03Z</time>
      </trkpt>
      <trkpt lat="46.18647" lon="6.14781">
        <ele>424.12</ele>
        <time>2020-10-08T10:47:10Z</time>
      </trkpt>
      <trkpt lat="46.18647" lon="6.14814">
        <ele>424.21</ele>
        <time>2020-10-08T10:47:16Z</time>
      </trkpt>
      <trkpt lat="46.18651" lon="6.14848">
        <ele>424.22</ele>
        <time>2020-10-08T10:47:21Z</time>
      </trkpt>
      <trkpt lat="46.1865" lon="6.14884">
        <ele>424.16</ele>
        <time>2020-10-08T10:47:27Z</time>
      </trkpt>
      <trkpt lat="46.18645" lon="6.14915">
        <ele>424.21</ele>
        <time>2020-10-08T10:47:34Z</time>
      </trkpt>
      <trkpt lat="46.18643" lon="6.14948">
        <ele>424.44</ele>
        <time>2020-10-08T10:47:40Z</time>
      </trkpt>
      <trkpt lat="46.18643" lon="6.14983">
        <ele>424.57</ele>
        <time>2020-10-08T10:47:44Z</time>
      </trkpt>
      <trkpt lat="46.18643" lon="6.15021">
        <ele>424.81</ele>
        <time>2020-10-08T10:47:48Z</time>
      </trkpt>
      <trkpt lat="46.18641" lon="6.15052">
        <ele>424.91</ele>
        <time>2020-10-08T10:47:52Z</time>
      </trkpt>
      <trkpt lat="46.18626" lon="6.15078">
        <ele>424.7</ele>
        <time>2020-10-08T10:48:31Z</time>
      </trkpt>
      <trkpt lat="46.18602" lon="6.15071">
        <ele>424.7</ele>
        <time>2020-10-08T10:48:39Z</time>
      </trkpt>
      <trkpt lat="46.18583" lon="6.15068">
        <ele>424.7</ele>
        <time>2020-10-08T10:48:43Z</time>
      </trkpt>
      <trkpt lat="46.18563" lon="6.15066">
        <ele>424.7</ele>
        <time>2020-10-08T10:48:47Z</time>
      </trkpt>
      <trkpt lat="46.18541" lon="6.15064">
        <ele>424.7</ele>
        <time>2020-10-08T10:48:52Z</time>
      </trkpt>
      <trkpt lat="46.18521" lon="6.15054">
        <ele>424.7</ele>
        <time>2020-10-08T10:48:58Z</time>
      </trkpt>
      <trkpt lat="46.18504" lon="6.15041">
        <ele>424.7</ele>
        <time>2020-10-08T10:49:03Z</time>
      </trkpt>
      <trkpt lat="46.18486" lon="6.1503">
        <ele>424.7</ele>
        <time>2020-10-08T10:49:08Z</time>
      </trkpt>
      <trkpt lat="46.18467" lon="6.15034">
        <ele>428.12</ele>
        <time>2020-10-08T10:50:00Z</time>
      </trkpt>
      <trkpt lat="46.1846" lon="6.15057">
        <ele>428.64</ele>
        <time>2020-10-08T10:50:20Z</time>
      </trkpt>
      <trkpt lat="46.1845" lon="6.15086">
        <ele>428.64</ele>
        <time>2020-10-08T10:50:27Z</time>
      </trkpt>
      <trkpt lat="46.18441" lon="6.15112">
        <ele>428.64</ele>
        <time>2020-10-08T10:50:32Z</time>
      </trkpt>
      <trkpt lat="46.18428" lon="6.15124">
        <ele>428.64</ele>
        <time>2020-10-08T10:50:40Z</time>
      </trkpt>
      <trkpt lat="46.18416" lon="6.15142">
        <ele>428.64</ele>
        <time>2020-10-08T10:50:47Z</time>
      </trkpt>
      <trkpt lat="46.18404" lon="6.15169">
        <ele>428.64</ele>
        <time>2020-10-08T10:50:52Z</time>
      </trkpt>
      <trkpt lat="46.18396" lon="6.15195">
        <ele>428.64</ele>
        <time>2020-10-08T10:50:57Z</time>
      </trkpt>
      <trkpt lat="46.18389" lon="6.15222">
        <ele>428.64</ele>
        <time>2020-10-08T10:51:02Z</time>
      </trkpt>
      <trkpt lat="46.18378" lon="6.15249">
        <ele>428.64</ele>
        <time>2020-10-08T10:51:07Z</time>
      </trkpt>
      <trkpt lat="46.18371" lon="6.15276">
        <ele>428.64</ele>
        <time>2020-10-08T10:51:13Z</time>
      </trkpt>
      <trkpt lat="46.18359" lon="6.15299">
        <ele>428.64</ele>
        <time>2020-10-08T10:51:19Z</time>
      </trkpt>
      <trkpt lat="46.1835" lon="6.15324">
        <ele>428.64</ele>
        <time>2020-10-08T10:51:25Z</time>
      </trkpt>
      <trkpt lat="46.18345" lon="6.1535">
        <ele>428.64</ele>
        <time>2020-10-08T10:51:32Z</time>
      </trkpt>
      <trkpt lat="46.18336" lon="6.15374">
        <ele>428.64</ele>
        <time>2020-10-08T10:51:37Z</time>
      </trkpt>
      <trkpt lat="46.18327" lon="6.15401">
        <ele>428.64</ele>
        <time>2020-10-08T10:51:41Z</time>
      </trkpt>
      <trkpt lat="46.18317" lon="6.15429">
        <ele>428.64</ele>
        <time>2020-10-08T10:51:45Z</time>
      </trkpt>
      <trkpt lat="46.18308" lon="6.15456">
        <ele>428.64</ele>
        <time>2020-10-08T10:51:49Z</time>
      </trkpt>
      <trkpt lat="46.18294" lon="6.15462">
        <ele>428.64</ele>
        <time>2020-10-08T10:52:32Z</time>
      </trkpt>
      <trkpt lat="46.18275" lon="6.15454">
        <ele>428.64</ele>
        <time>2020-10-08T10:52:43Z</time>
      </trkpt>
      <trkpt lat="46.18253" lon="6.15444">
        <ele>428.64</ele>
        <time>2020-10-08T10:52:55Z</time>
      </trkpt>
      <trkpt lat="46.18235" lon="6.15438">
        <ele>428.64</ele>
        <time>2020-10-08T10:53:03Z</time>
      </trkpt>
      <trkpt lat="46.18212" lon="6.15435">
        <ele>428.64</ele>
        <time>2020-10-08T10:53:24Z</time>
      </trkpt>
      <trkpt lat="46.18193" lon="6.15431">
        <ele>428.64</ele>
        <time>2020-10-08T10:53:30Z</time>
      </trkpt>
      <trkpt lat="46.1817" lon="6.15425">
        <ele>428.64</ele>
        <time>2020-10-08T10:53:37Z</time>
      </trkpt>
      <trkpt lat="46.18151" lon="6.1542">
        <ele>428.64</ele>
        <time>2020-10-08T10:53:44Z</time>
      </trkpt>
      <trkpt lat="46.18129" lon="6.15413">
        <ele>428.64</ele>
        <time>2020-10-08T10:53:51Z</time>
      </trkpt>
      <trkpt lat="46.1811" lon="6.15408">
        <ele>428.64</ele>
        <time>2020-10-08T10:53:56Z</time>
      </trkpt>
      <trkpt lat="46.1809" lon="6.15407">
        <ele>428.64</ele>
        <time>2020-10-08T10:54:01Z</time>
      </trkpt>
      <trkpt lat="46.18069" lon="6.15408">
        <ele>428.64</ele>
        <time>2020-10-08T10:54:07Z</time>
      </trkpt>
      <trkpt lat="46.18051" lon="6.15418">
        <ele>428.64</ele>
        <time>2020-10-08T10:54:21Z</time>
      </trkpt>
      <trkpt lat="46.18029" lon="6.15434">
        <ele>428.64</ele>
        <time>2020-10-08T10:54:26Z</time>
      </trkpt>
      <trkpt lat="46.18006" lon="6.15438">
        <ele>428.64</ele>
        <time>2020-10-08T10:54:31Z</time>
      </trkpt>
      <trkpt lat="46.17985" lon="6.15447">
        <ele>428.64</ele>
        <time>2020-10-08T10:54:36Z</time>
      </trkpt>
      <trkpt lat="46.17964" lon="6.15462">
        <ele>428.64</ele>
        <time>2020-10-08T10:54:41Z</time>
      </trkpt>
      <trkpt lat="46.17944" lon="6.15471">
        <ele>428.64</ele>
        <time>2020-10-08T10:54:45Z</time>
      </trkpt>
      <trkpt lat="46.17924" lon="6.15482">
        <ele>428.64</ele>
        <time>2020-10-08T10:54:49Z</time>
      </trkpt>
      <trkpt lat="46.17904" lon="6.15493">
        <ele>428.64</ele>
        <time>2020-10-08T10:54:54Z</time>
      </trkpt>
      <trkpt lat="46.17892" lon="6.15513">
        <ele>428.64</ele>
        <time>2020-10-08T10:55:00Z</time>
      </trkpt>
      <trkpt lat="46.1788" lon="6.15543">
        <ele>428.64</ele>
        <time>2020-10-08T10:55:05Z</time>
      </trkpt>
      <trkpt lat="46.1787" lon="6.15577">
        <ele>428.64</ele>
        <time>2020-10-08T10:55:09Z</time>
      </trkpt>
      <trkpt lat="46.17862" lon="6.15605">
        <ele>428.64</ele>
        <time>2020-10-08T10:55:12Z</time>
      </trkpt>
      <trkpt lat="46.17854" lon="6.15638">
        <ele>428.64</ele>
        <time>2020-10-08T10:55:16Z</time>
      </trkpt>
      <trkpt lat="46.17846" lon="6.15665">
        <ele>428.64</ele>
        <time>2020-10-08T10:55:20Z</time>
      </trkpt>
      <trkpt lat="46.17839" lon="6.15693">
        <ele>428.64</ele>
        <time>2020-10-08T10:55:25Z</time>
      </trkpt>
      <trkpt lat="46.17832" lon="6.15725">
        <ele>428.64</ele>
        <time>2020-10-08T10:55:30Z</time>
      </trkpt>
      <trkpt lat="46.17827" lon="6.15755">
        <ele>428.64</ele>
        <time>2020-10-08T10:55:35Z</time>
      </trkpt>
      <trkpt lat="46.17832" lon="6.15784">
        <ele>428.64</ele>
        <time>2020-10-08T10:55:42Z</time>
      </trkpt>
      <trkpt lat="46.17843" lon="6.15809">
        <ele>428.64</ele>
        <time>2020-10-08T10:55:48Z</time>
      </trkpt>
      <trkpt lat="46.17856" lon="6.15834">
        <ele>428.64</ele>
        <time>2020-10-08T10:55:53Z</time>
      </trkpt>
      <trkpt lat="46.17871" lon="6.15859">
        <ele>428.64</ele>
        <time>2020-10-08T10:55:58Z</time>
      </trkpt>
      <trkpt lat="46.17886" lon="6.15876">
        <ele>428.64</ele>
        <time>2020-10-08T10:56:02Z</time>
      </trkpt>
      <trkpt lat="46.17904" lon="6.15889">
        <ele>428.64</ele>
        <time>2020-10-08T10:56:07Z</time>
      </trkpt>
      <trkpt lat="46.17923" lon="6.15898">
        <ele>428.64</ele>
        <time>2020-10-08T10:56:13Z</time>
      </trkpt>
      <trkpt lat="46.17945" lon="6.15905">
        <ele>428.64</ele>
        <time>2020-10-08T10:56:19Z</time>
      </trkpt>
      <trkpt lat="46.17966" lon="6.15906">
        <ele>428.64</ele>
        <time>2020-10-08T10:56:23Z</time>
      </trkpt>
      <trkpt lat="46.17988" lon="6.15908">
        <ele>428.64</ele>
        <time>2020-10-08T10:56:27Z</time>
      </trkpt>
      <trkpt lat="46.18008" lon="6.15908">
        <ele>428.64</ele>
        <time>2020-10-08T10:56:31Z</time>
      </trkpt>
      <trkpt lat="46.18029" lon="6.15916">
        <ele>428.64</ele>
        <time>2020-10-08T10:56:35Z</time>
      </trkpt>
      <trkpt lat="46.1805" lon="6.15922">
        <ele>428.64</ele>
        <time>2020-10-08T10:56:39Z</time>
      </trkpt>
      <trkpt lat="46.18069" lon="6.15924">
        <ele>428.64</ele>
        <time>2020-10-08T10:56:44Z</time>
      </trkpt>
      <trkpt lat="46.1809" lon="6.15927">
        <ele>428.64</ele>
        <time>2020-10-08T10:56:49Z</time>
      </trkpt>
      <trkpt lat="46.18111" lon="6.15929">
        <ele>428.64</ele>
        <time>2020-10-08T10:56:55Z</time>
      </trkpt>
      <trkpt lat="46.18109" lon="6.1596">
        <ele>428.64</ele>
        <time>2020-10-08T10:57:09Z</time>
      </trkpt>
      <trkpt lat="46.18103" lon="6.1599">
        <ele>428.64</ele>
        <time>2020-10-08T10:57:14Z</time>
      </trkpt>
      <trkpt lat="46.18097" lon="6.16021">
        <ele>428.64</ele>
        <time>2020-10-08T10:57:21Z</time>
      </trkpt>
      <trkpt lat="46.18092" lon="6.16049">
        <ele>434.39</ele>
        <time>2020-10-08T10:57:25Z</time>
      </trkpt>
      <trkpt lat="46.18089" lon="6.16078">
        <ele>434.23</ele>
        <time>2020-10-08T10:57:30Z</time>
      </trkpt>
      <trkpt lat="46.18094" lon="6.16108">
        <ele>434.35</ele>
        <time>2020-10-08T10:57:36Z</time>
      </trkpt>
      <trkpt lat="46.18104" lon="6.16133">
        <ele>434.47</ele>
        <time>2020-10-08T10:57:40Z</time>
      </trkpt>
      <trkpt lat="46.18115" lon="6.16156">
        <ele>434.67</ele>
        <time>2020-10-08T10:57:43Z</time>
      </trkpt>
      <trkpt lat="46.18127" lon="6.16177">
        <ele>434.69</ele>
        <time>2020-10-08T10:57:46Z</time>
      </trkpt>
      <trkpt lat="46.18141" lon="6.16194">
        <ele>434.56</ele>
        <time>2020-10-08T10:57:51Z</time>
      </trkpt>
      <trkpt lat="46.18162" lon="6.16209">
        <ele>434.43</ele>
        <time>2020-10-08T10:57:56Z</time>
      </trkpt>
      <trkpt lat="46.18181" lon="6.16227">
        <ele>434.37</ele>
        <time>2020-10-08T10:58:00Z</time>
      </trkpt>
      <trkpt lat="46.18197" lon="6.16242">
        <ele>434.36</ele>
        <time>2020-10-08T10:58:04Z</time>
      </trkpt>
      <trkpt lat="46.18212" lon="6.16265">
        <ele>434.33</ele>
        <time>2020-10-08T10:58:09Z</time>
      </trkpt>
      <trkpt lat="46.18225" lon="6.16286">
        <ele>434.18</ele>
        <time>2020-10-08T10:58:14Z</time>
      </trkpt>
      <trkpt lat="46.18238" lon="6.16308">
        <ele>434.09</ele>
        <time>2020-10-08T10:58:19Z</time>
      </trkpt>
      <trkpt lat="46.18252" lon="6.16336">
        <ele>434.39</ele>
        <time>2020-10-08T10:58:24Z</time>
      </trkpt>
      <trkpt lat="46.18265" lon="6.16359">
        <ele>434.39</ele>
        <time>2020-10-08T10:58:28Z</time>
      </trkpt>
      <trkpt lat="46.18281" lon="6.16377">
        <ele>434.39</ele>
        <time>2020-10-08T10:58:32Z</time>
      </trkpt>
      <trkpt lat="46.18299" lon="6.16395">
        <ele>434.39</ele>
        <time>2020-10-08T10:58:37Z</time>
      </trkpt>
      <trkpt lat="46.18317" lon="6.16416">
        <ele>434.39</ele>
        <time>2020-10-08T10:58:42Z</time>
      </trkpt>
      <trkpt lat="46.18332" lon="6.16434">
        <ele>434.39</ele>
        <time>2020-10-08T10:58:46Z</time>
      </trkpt>
      <trkpt lat="46.18347" lon="6.16454">
        <ele>434.39</ele>
        <time>2020-10-08T10:58:50Z</time>
      </trkpt>
      <trkpt lat="46.18362" lon="6.16473">
        <ele>434.39</ele>
        <time>2020-10-08T10:58:54Z</time>
      </trkpt>
      <trkpt lat="46.18384" lon="6.1648">
        <ele>434.39</ele>
        <time>2020-10-08T10:58:59Z</time>
      </trkpt>
      <trkpt lat="46.18404" lon="6.16481">
        <ele>434.39</ele>
        <time>2020-10-08T10:59:04Z</time>
      </trkpt>
      <trkpt lat="46.18427" lon="6.16481">
        <ele>434.39</ele>
        <time>2020-10-08T10:59:09Z</time>
      </trkpt>
      <trkpt lat="46.18444" lon="6.16495">
        <ele>434.39</ele>
        <time>2020-10-08T10:59:14Z</time>
      </trkpt>
      <trkpt lat="46.18458" lon="6.16513">
        <ele>434.39</ele>
        <time>2020-10-08T10:59:19Z</time>
      </trkpt>
      <trkpt lat="46.18467" lon="6.16534">
        <ele>434.39</ele>
        <time>2020-10-08T10:59:25Z</time>
      </trkpt>
      <trkpt lat="46.18469" lon="6.16517">
        <ele>434.39</ele>
        <time>2020-10-08T10:59:33Z</time>
      </trkpt>
      <trkpt lat="46.1847" lon="6.16488">
        <ele>434.39</ele>
        <time>2020-10-08T10:59:37Z</time>
      </trkpt>
      <trkpt lat="46.18473" lon="6.16452">
        <ele>434.39</ele>
        <time>2020-10-08T10:59:41Z</time>
      </trkpt>
      <trkpt lat="46.18474" lon="6.16424">
        <ele>434.39</ele>
        <time>2020-10-08T10:59:44Z</time>
      </trkpt>
      <trkpt lat="46.18477" lon="6.1639">
        <ele>434.39</ele>
        <time>2020-10-08T10:59:48Z</time>
      </trkpt>
      <trkpt lat="46.18482" lon="6.1636">
        <ele>434.39</ele>
        <time>2020-10-08T10:59:52Z</time>
      </trkpt>
      <trkpt lat="46.18487" lon="6.16334">
        <ele>434.39</ele>
        <time>2020-10-08T10:59:56Z</time>
      </trkpt>
      <trkpt lat="46.18499" lon="6.16312">
        <ele>434.39</ele>
        <time>2020-10-08T11:00:01Z</time>
      </trkpt>
      <trkpt lat="46.18518" lon="6.16313">
        <ele>434.39</ele>
        <time>2020-10-08T11:00:07Z</time>
      </trkpt>
      <trkpt lat="46.18533" lon="6.1633">
        <ele>434.39</ele>
        <time>2020-10-08T11:00:12Z</time>
      </trkpt>
      <trkpt lat="46.18554" lon="6.16347">
        <ele>434.39</ele>
        <time>2020-10-08T11:00:19Z</time>
      </trkpt>
      <trkpt lat="46.18575" lon="6.16366">
        <ele>434.39</ele>
        <time>2020-10-08T11:00:25Z</time>
      </trkpt>
      <trkpt lat="46.18598" lon="6.16372">
        <ele>430.92</ele>
        <time>2020-10-08T11:00:29Z</time>
      </trkpt>
      <trkpt lat="46.18625" lon="6.16375">
        <ele>430.93</ele>
        <time>2020-10-08T11:00:33Z</time>
      </trkpt>
      <trkpt lat="46.18645" lon="6.16378">
        <ele>431.09</ele>
        <time>2020-10-08T11:00:36Z</time>
      </trkpt>
      <trkpt lat="46.18664" lon="6.16381">
        <ele>431.24</ele>
        <time>2020-10-08T11:00:39Z</time>
      </trkpt>
      <trkpt lat="46.18685" lon="6.16391">
        <ele>431.31</ele>
        <time>2020-10-08T11:00:43Z</time>
      </trkpt>
      <trkpt lat="46.18704" lon="6.1641">
        <ele>430.97</ele>
        <time>2020-10-08T11:00:48Z</time>
      </trkpt>
      <trkpt lat="46.18717" lon="6.16431">
        <ele>430.88</ele>
        <time>2020-10-08T11:00:52Z</time>
      </trkpt>
      <trkpt lat="46.18731" lon="6.16456">
        <ele>431.05</ele>
        <time>2020-10-08T11:00:56Z</time>
      </trkpt>
      <trkpt lat="46.18743" lon="6.16476">
        <ele>431.18</ele>
        <time>2020-10-08T11:00:59Z</time>
      </trkpt>
      <trkpt lat="46.18755" lon="6.16499">
        <ele>431.27</ele>
        <time>2020-10-08T11:01:02Z</time>
      </trkpt>
      <trkpt lat="46.18766" lon="6.1652">
        <ele>431.32</ele>
        <time>2020-10-08T11:01:05Z</time>
      </trkpt>
      <trkpt lat="46.1877" lon="6.16549">
        <ele>431.27</ele>
        <time>2020-10-08T11:01:09Z</time>
      </trkpt>
      <trkpt lat="46.18768" lon="6.16577">
        <ele>431.2</ele>
        <time>2020-10-08T11:01:14Z</time>
      </trkpt>
      <trkpt lat="46.18759" lon="6.16606">
        <ele>431.31</ele>
        <time>2020-10-08T11:01:20Z</time>
      </trkpt>
      <trkpt lat="46.18749" lon="6.16631">
        <ele>431.45</ele>
        <time>2020-10-08T11:01:24Z</time>
      </trkpt>
      <trkpt lat="46.18739" lon="6.16658">
        <ele>431.59</ele>
        <time>2020-10-08T11:01:28Z</time>
      </trkpt>
      <trkpt lat="46.18728" lon="6.16681">
        <ele>431.74</ele>
        <time>2020-10-08T11:01:32Z</time>
      </trkpt>
      <trkpt lat="46.18716" lon="6.16706">
        <ele>431.81</ele>
        <time>2020-10-08T11:01:36Z</time>
      </trkpt>
      <trkpt lat="46.18702" lon="6.16734">
        <ele>431.83</ele>
        <time>2020-10-08T11:01:40Z</time>
      </trkpt>
      <trkpt lat="46.18686" lon="6.16758">
        <ele>431.87</ele>
        <time>2020-10-08T11:01:44Z</time>
      </trkpt>
      <trkpt lat="46.1867" lon="6.16775">
        <ele>432.01</ele>
        <time>2020-10-08T11:01:49Z</time>
      </trkpt>
      <trkpt lat="46.18656" lon="6.16792">
        <ele>432.8</ele>
        <time>2020-10-08T11:01:54Z</time>
      </trkpt>
      <trkpt lat="46.18642" lon="6.16815">
        <ele>433.39</ele>
        <time>2020-10-08T11:01:59Z</time>
      </trkpt>
      <trkpt lat="46.18626" lon="6.16835">
        <ele>433.82</ele>
        <time>2020-10-08T11:02:03Z</time>
      </trkpt>
      <trkpt lat="46.18609" lon="6.16846">
        <ele>433.91</ele>
        <time>2020-10-08T11:02:07Z</time>
      </trkpt>
      <trkpt lat="46.18592" lon="6.1686">
        <ele>433.9</ele>
        <time>2020-10-08T11:02:12Z</time>
      </trkpt>
      <trkpt lat="46.18575" lon="6.16879">
        <ele>433.94</ele>
        <time>2020-10-08T11:02:18Z</time>
      </trkpt>
      <trkpt lat="46.18559" lon="6.16894">
        <ele>434.07</ele>
        <time>2020-10-08T11:02:23Z</time>
      </trkpt>
      <trkpt lat="46.18542" lon="6.16901">
        <ele>434.21</ele>
        <time>2020-10-08T11:02:29Z</time>
      </trkpt>
      <trkpt lat="46.18525" lon="6.16912">
        <ele>434.55</ele>
        <time>2020-10-08T11:02:35Z</time>
      </trkpt>
      <trkpt lat="46.18505" lon="6.16926">
        <ele>434.87</ele>
        <time>2020-10-08T11:02:41Z</time>
      </trkpt>
      <trkpt lat="46.18487" lon="6.16934">
        <ele>435.43</ele>
        <time>2020-10-08T11:02:47Z</time>
      </trkpt>
      <trkpt lat="46.18468" lon="6.16945">
        <ele>436.02</ele>
        <time>2020-10-08T11:02:56Z</time>
      </trkpt>
      <trkpt lat="46.18448" lon="6.16952">
        <ele>436.61</ele>
        <time>2020-10-08T11:03:05Z</time>
      </trkpt>
      <trkpt lat="46.18427" lon="6.16959">
        <ele>436.78</ele>
        <time>2020-10-08T11:03:14Z</time>
      </trkpt>
      <trkpt lat="46.18405" lon="6.16965">
        <ele>436.93</ele>
        <time>2020-10-08T11:03:20Z</time>
      </trkpt>
      <trkpt lat="46.18385" lon="6.16971">
        <ele>437.33</ele>
        <time>2020-10-08T11:03:26Z</time>
      </trkpt>
      <trkpt lat="46.18366" lon="6.16986">
        <ele>437.63</ele>
        <time>2020-10-08T11:03:34Z</time>
      </trkpt>
      <trkpt lat="46.18351" lon="6.1701">
        <ele>437.09</ele>
        <time>2020-10-08T11:03:38Z</time>
      </trkpt>
      <trkpt lat="46.18331" lon="6.17023">
        <ele>435.65</ele>
        <time>2020-10-08T11:03:42Z</time>
      </trkpt>
      <trkpt lat="46.18309" lon="6.17032">
        <ele>434.89</ele>
        <time>2020-10-08T11:03:47Z</time>
      </trkpt>
      <trkpt lat="46.18288" lon="6.17039">
        <ele>434.95</ele>
        <time>2020-10-08T11:03:52Z</time>
      </trkpt>
      <trkpt lat="46.18268" lon="6.17045">
        <ele>435.21</ele>
        <time>2020-10-08T11:03:56Z</time>
      </trkpt>
      <trkpt lat="46.18248" lon="6.1705">
        <ele>435.44</ele>
        <time>2020-10-08T11:04:00Z</time>
      </trkpt>
      <trkpt lat="46.1823" lon="6.17062">
        <ele>435.65</ele>
        <time>2020-10-08T11:04:05Z</time>
      </trkpt>
      <trkpt lat="46.18208" lon="6.17069">
        <ele>435.78</ele>
        <time>2020-10-08T11:04:11Z</time>
      </trkpt>
      <trkpt lat="46.18183" lon="6.17078">
        <ele>435.86</ele>
        <time>2020-10-08T11:04:17Z</time>
      </trkpt>
      <trkpt lat="46.18162" lon="6.17084">
        <ele>435.88</ele>
        <time>2020-10-08T11:04:21Z</time>
      </trkpt>
      <trkpt lat="46.1814" lon="6.17091">
        <ele>436.09</ele>
        <time>2020-10-08T11:04:25Z</time>
      </trkpt>
      <trkpt lat="46.18117" lon="6.17094">
        <ele>436.2</ele>
        <time>2020-10-08T11:04:30Z</time>
      </trkpt>
      <trkpt lat="46.18092" lon="6.17095">
        <ele>436.48</ele>
        <time>2020-10-08T11:04:36Z</time>
      </trkpt>
      <trkpt lat="46.18072" lon="6.17094">
        <ele>436.74</ele>
        <time>2020-10-08T11:04:40Z</time>
      </trkpt>
      <trkpt lat="46.18051" lon="6.17093">
        <ele>436.91</ele>
        <time>2020-10-08T11:04:45Z</time>
      </trkpt>
      <trkpt lat="46.18031" lon="6.17094">
        <ele>437</ele>
        <time>2020-10-08T11:04:52Z</time>
      </trkpt>
      <trkpt lat="46.18007" lon="6.17085">
        <ele>436.87</ele>
        <time>2020-10-08T11:04:58Z</time>
      </trkpt>
      <trkpt lat="46.17987" lon="6.17083">
        <ele>436.63</ele>
        <time>2020-10-08T11:05:03Z</time>
      </trkpt>
      <trkpt lat="46.17977" lon="6.17056">
        <ele>436.34</ele>
        <time>2020-10-08T11:05:12Z</time>
      </trkpt>
      <trkpt lat="46.17963" lon="6.17037">
        <ele>435.95</ele>
        <time>2020-10-08T11:05:19Z</time>
      </trkpt>
      <trkpt lat="46.17945" lon="6.17019">
        <ele>435.92</ele>
        <time>2020-10-08T11:05:25Z</time>
      </trkpt>
      <trkpt lat="46.17927" lon="6.17002">
        <ele>436.28</ele>
        <time>2020-10-08T11:05:30Z</time>
      </trkpt>
      <trkpt lat="46.1791" lon="6.16993">
        <ele>436.62</ele>
        <time>2020-10-08T11:05:34Z</time>
      </trkpt>
      <trkpt lat="46.17892" lon="6.16987">
        <ele>436.62</ele>
        <time>2020-10-08T11:05:40Z</time>
      </trkpt>
      <trkpt lat="46.17908" lon="6.16981">
        <ele>436.62</ele>
        <time>2020-10-08T11:05:56Z</time>
      </trkpt>
      <trkpt lat="46.17911" lon="6.1697">
        <ele>436.62</ele>
        <time>2020-10-08T11:06:18Z</time>
      </trkpt>
      <trkpt lat="46.1789" lon="6.16953">
        <ele>436.62</ele>
        <time>2020-10-08T11:06:25Z</time>
      </trkpt>
      <trkpt lat="46.17869" lon="6.16944">
        <ele>436.62</ele>
        <time>2020-10-08T11:06:30Z</time>
      </trkpt>
      <trkpt lat="46.17848" lon="6.16933">
        <ele>436.62</ele>
        <time>2020-10-08T11:06:35Z</time>
      </trkpt>
      <trkpt lat="46.17828" lon="6.16921">
        <ele>436.62</ele>
        <time>2020-10-08T11:06:40Z</time>
      </trkpt>
      <trkpt lat="46.17809" lon="6.16909">
        <ele>436.62</ele>
        <time>2020-10-08T11:06:45Z</time>
      </trkpt>
      <trkpt lat="46.17793" lon="6.16894">
        <ele>436.62</ele>
        <time>2020-10-08T11:06:50Z</time>
      </trkpt>
      <trkpt lat="46.17774" lon="6.16876">
        <ele>436.62</ele>
        <time>2020-10-08T11:06:55Z</time>
      </trkpt>
      <trkpt lat="46.17754" lon="6.16863">
        <ele>436.62</ele>
        <time>2020-10-08T11:07:00Z</time>
      </trkpt>
      <trkpt lat="46.17732" lon="6.16855">
        <ele>436.62</ele>
        <time>2020-10-08T11:07:05Z</time>
      </trkpt>
      <trkpt lat="46.17714" lon="6.16852">
        <ele>436.62</ele>
        <time>2020-10-08T11:07:12Z</time>
      </trkpt>
      <trkpt lat="46.17695" lon="6.16852">
        <ele>436.62</ele>
        <time>2020-10-08T11:07:19Z</time>
      </trkpt>
      <trkpt lat="46.177" lon="6.16846">
        <ele>436.62</ele>
        <time>2020-10-08T11:07:57Z</time>
      </trkpt>
      <trkpt lat="46.17721" lon="6.16846">
        <ele>436.62</ele>
        <time>2020-10-08T11:08:07Z</time>
      </trkpt>
      <trkpt lat="46.17743" lon="6.16853">
        <ele>436.62</ele>
        <time>2020-10-08T11:08:13Z</time>
      </trkpt>
      <trkpt lat="46.17767" lon="6.16864">
        <ele>436.62</ele>
        <time>2020-10-08T11:08:18Z</time>
      </trkpt>
      <trkpt lat="46.17786" lon="6.16878">
        <ele>436.62</ele>
        <time>2020-10-08T11:08:23Z</time>
      </trkpt>
      <trkpt lat="46.17805" lon="6.16898">
        <ele>436.62</ele>
        <time>2020-10-08T11:08:28Z</time>
      </trkpt>
      <trkpt lat="46.17823" lon="6.16907">
        <ele>436.62</ele>
        <time>2020-10-08T11:08:33Z</time>
      </trkpt>
      <trkpt lat="46.17843" lon="6.16922">
        <ele>436.62</ele>
        <time>2020-10-08T11:08:39Z</time>
      </trkpt>
      <trkpt lat="46.17862" lon="6.16937">
        <ele>436.62</ele>
        <time>2020-10-08T11:08:47Z</time>
      </trkpt>
      <trkpt lat="46.17883" lon="6.1695">
        <ele>436.62</ele>
        <time>2020-10-08T11:08:52Z</time>
      </trkpt>
      <trkpt lat="46.17903" lon="6.16963">
        <ele>436.62</ele>
        <time>2020-10-08T11:08:57Z</time>
      </trkpt>
      <trkpt lat="46.17924" lon="6.16973">
        <ele>436.62</ele>
        <time>2020-10-08T11:09:01Z</time>
      </trkpt>
      <trkpt lat="46.17942" lon="6.16982">
        <ele>436.62</ele>
        <time>2020-10-08T11:09:05Z</time>
      </trkpt>
      <trkpt lat="46.17963" lon="6.16986">
        <ele>436.62</ele>
        <time>2020-10-08T11:09:10Z</time>
      </trkpt>
      <trkpt lat="46.17983" lon="6.16984">
        <ele>436.62</ele>
        <time>2020-10-08T11:09:16Z</time>
      </trkpt>
      <trkpt lat="46.18005" lon="6.16988">
        <ele>436.62</ele>
        <time>2020-10-08T11:09:23Z</time>
      </trkpt>
      <trkpt lat="46.18024" lon="6.16987">
        <ele>436.62</ele>
        <time>2020-10-08T11:09:30Z</time>
      </trkpt>
      <trkpt lat="46.18049" lon="6.16988">
        <ele>441.56</ele>
        <time>2020-10-08T11:09:44Z</time>
      </trkpt>
      <trkpt lat="46.18068" lon="6.16988">
        <ele>441.66</ele>
        <time>2020-10-08T11:09:48Z</time>
      </trkpt>
      <trkpt lat="46.18091" lon="6.16985">
        <ele>441.78</ele>
        <time>2020-10-08T11:09:53Z</time>
      </trkpt>
      <trkpt lat="46.18113" lon="6.16977">
        <ele>441.8</ele>
        <time>2020-10-08T11:09:59Z</time>
      </trkpt>
      <trkpt lat="46.18136" lon="6.16969">
        <ele>441.78</ele>
        <time>2020-10-08T11:10:04Z</time>
      </trkpt>
      <trkpt lat="46.18154" lon="6.1695">
        <ele>441.8</ele>
        <time>2020-10-08T11:10:10Z</time>
      </trkpt>
      <trkpt lat="46.18174" lon="6.16931">
        <ele>442.23</ele>
        <time>2020-10-08T11:10:16Z</time>
      </trkpt>
      <trkpt lat="46.18196" lon="6.16914">
        <ele>443.32</ele>
        <time>2020-10-08T11:10:22Z</time>
      </trkpt>
      <trkpt lat="46.18218" lon="6.16897">
        <ele>444.91</ele>
        <time>2020-10-08T11:10:28Z</time>
      </trkpt>
      <trkpt lat="46.18236" lon="6.16882">
        <ele>446.04</ele>
        <time>2020-10-08T11:10:33Z</time>
      </trkpt>
      <trkpt lat="46.18256" lon="6.16865">
        <ele>447.26</ele>
        <time>2020-10-08T11:10:39Z</time>
      </trkpt>
      <trkpt lat="46.18272" lon="6.1685">
        <ele>448.95</ele>
        <time>2020-10-08T11:10:44Z</time>
      </trkpt>
      <trkpt lat="46.1829" lon="6.1683">
        <ele>450.71</ele>
        <time>2020-10-08T11:10:50Z</time>
      </trkpt>
      <trkpt lat="46.18306" lon="6.16814">
        <ele>451.5</ele>
        <time>2020-10-08T11:10:57Z</time>
      </trkpt>
      <trkpt lat="46.18314" lon="6.1679">
        <ele>451.58</ele>
        <time>2020-10-08T11:11:03Z</time>
      </trkpt>
      <trkpt lat="46.18308" lon="6.16763">
        <ele>451.73</ele>
        <time>2020-10-08T11:11:09Z</time>
      </trkpt>
      <trkpt lat="46.18308" lon="6.16736">
        <ele>451.99</ele>
        <time>2020-10-08T11:11:14Z</time>
      </trkpt>
      <trkpt lat="46.18308" lon="6.16706">
        <ele>452.29</ele>
        <time>2020-10-08T11:11:19Z</time>
      </trkpt>
      <trkpt lat="46.18297" lon="6.16683">
        <ele>452.88</ele>
        <time>2020-10-08T11:11:24Z</time>
      </trkpt>
      <trkpt lat="46.18291" lon="6.16656">
        <ele>453.14</ele>
        <time>2020-10-08T11:11:31Z</time>
      </trkpt>
      <trkpt lat="46.18291" lon="6.16626">
        <ele>453.29</ele>
        <time>2020-10-08T11:11:36Z</time>
      </trkpt>
      <trkpt lat="46.18293" lon="6.16598">
        <ele>453.54</ele>
        <time>2020-10-08T11:11:42Z</time>
      </trkpt>
      <trkpt lat="46.18275" lon="6.16585">
        <ele>453.87</ele>
        <time>2020-10-08T11:11:48Z</time>
      </trkpt>
      <trkpt lat="46.18255" lon="6.16577">
        <ele>454.49</ele>
        <time>2020-10-08T11:11:52Z</time>
      </trkpt>
      <trkpt lat="46.18234" lon="6.16568">
        <ele>455.14</ele>
        <time>2020-10-08T11:11:56Z</time>
      </trkpt>
      <trkpt lat="46.18213" lon="6.16558">
        <ele>455.45</ele>
        <time>2020-10-08T11:12:01Z</time>
      </trkpt>
      <trkpt lat="46.18195" lon="6.1655">
        <ele>455.52</ele>
        <time>2020-10-08T11:12:05Z</time>
      </trkpt>
      <trkpt lat="46.18175" lon="6.16537">
        <ele>455.37</ele>
        <time>2020-10-08T11:12:10Z</time>
      </trkpt>
      <trkpt lat="46.18157" lon="6.16524">
        <ele>455.3</ele>
        <time>2020-10-08T11:12:15Z</time>
      </trkpt>
      <trkpt lat="46.18144" lon="6.16536">
        <ele>455.34</ele>
        <time>2020-10-08T11:12:20Z</time>
      </trkpt>
      <trkpt lat="46.18136" lon="6.16562">
        <ele>455.52</ele>
        <time>2020-10-08T11:12:24Z</time>
      </trkpt>
      <trkpt lat="46.18127" lon="6.1659">
        <ele>456.21</ele>
        <time>2020-10-08T11:12:28Z</time>
      </trkpt>
      <trkpt lat="46.18119" lon="6.16616">
        <ele>456.67</ele>
        <time>2020-10-08T11:12:32Z</time>
      </trkpt>
      <trkpt lat="46.18105" lon="6.16634">
        <ele>457.34</ele>
        <time>2020-10-08T11:12:37Z</time>
      </trkpt>
      <trkpt lat="46.18089" lon="6.16621">
        <ele>457.77</ele>
        <time>2020-10-08T11:12:42Z</time>
      </trkpt>
      <trkpt lat="46.18072" lon="6.16608">
        <ele>457.89</ele>
        <time>2020-10-08T11:12:46Z</time>
      </trkpt>
      <trkpt lat="46.18052" lon="6.16591">
        <ele>458.2</ele>
        <time>2020-10-08T11:12:50Z</time>
      </trkpt>
      <trkpt lat="46.18035" lon="6.16576">
        <ele>458.47</ele>
        <time>2020-10-08T11:12:53Z</time>
      </trkpt>
      <trkpt lat="46.18018" lon="6.16563">
        <ele>458.79</ele>
        <time>2020-10-08T11:12:56Z</time>
      </trkpt>
      <trkpt lat="46.18001" lon="6.16548">
        <ele>459.15</ele>
        <time>2020-10-08T11:13:00Z</time>
      </trkpt>
      <trkpt lat="46.17981" lon="6.16532">
        <ele>459.24</ele>
        <time>2020-10-08T11:13:05Z</time>
      </trkpt>
      <trkpt lat="46.17965" lon="6.16519">
        <ele>459.42</ele>
        <time>2020-10-08T11:13:09Z</time>
      </trkpt>
      <trkpt lat="46.17946" lon="6.16504">
        <ele>459.88</ele>
        <time>2020-10-08T11:13:14Z</time>
      </trkpt>
      <trkpt lat="46.1793" lon="6.16514">
        <ele>460.46</ele>
        <time>2020-10-08T11:13:20Z</time>
      </trkpt>
      <trkpt lat="46.17926" lon="6.16548">
        <ele>460.71</ele>
        <time>2020-10-08T11:13:25Z</time>
      </trkpt>
      <trkpt lat="46.17919" lon="6.16576">
        <ele>460.8</ele>
        <time>2020-10-08T11:13:29Z</time>
      </trkpt>
      <trkpt lat="46.17908" lon="6.16597">
        <ele>460.79</ele>
        <time>2020-10-08T11:13:35Z</time>
      </trkpt>
      <trkpt lat="46.1789" lon="6.16604">
        <ele>460.76</ele>
        <time>2020-10-08T11:13:41Z</time>
      </trkpt>
      <trkpt lat="46.17872" lon="6.16598">
        <ele>460.88</ele>
        <time>2020-10-08T11:13:45Z</time>
      </trkpt>
      <trkpt lat="46.17851" lon="6.16586">
        <ele>461.41</ele>
        <time>2020-10-08T11:13:49Z</time>
      </trkpt>
      <trkpt lat="46.17834" lon="6.16576">
        <ele>461.82</ele>
        <time>2020-10-08T11:13:53Z</time>
      </trkpt>
      <trkpt lat="46.17813" lon="6.16564">
        <ele>462.24</ele>
        <time>2020-10-08T11:13:58Z</time>
      </trkpt>
      <trkpt lat="46.17794" lon="6.16553">
        <ele>462.7</ele>
        <time>2020-10-08T11:14:02Z</time>
      </trkpt>
      <trkpt lat="46.17773" lon="6.1654">
        <ele>463.22</ele>
        <time>2020-10-08T11:14:06Z</time>
      </trkpt>
      <trkpt lat="46.17754" lon="6.16531">
        <ele>463.33</ele>
        <time>2020-10-08T11:14:10Z</time>
      </trkpt>
      <trkpt lat="46.17736" lon="6.16526">
        <ele>463.04</ele>
        <time>2020-10-08T11:14:14Z</time>
      </trkpt>
      <trkpt lat="46.17724" lon="6.16546">
        <ele>462.66</ele>
        <time>2020-10-08T11:14:19Z</time>
      </trkpt>
      <trkpt lat="46.17711" lon="6.16575">
        <ele>461.96</ele>
        <time>2020-10-08T11:14:26Z</time>
      </trkpt>
      <trkpt lat="46.17691" lon="6.16595">
        <ele>461.81</ele>
        <time>2020-10-08T11:14:31Z</time>
      </trkpt>
      <trkpt lat="46.17676" lon="6.16614">
        <ele>461.87</ele>
        <time>2020-10-08T11:14:36Z</time>
      </trkpt>
      <trkpt lat="46.17658" lon="6.1663">
        <ele>461.89</ele>
        <time>2020-10-08T11:14:42Z</time>
      </trkpt>
      <trkpt lat="46.17649" lon="6.16648">
        <ele>461.5</ele>
        <time>2020-10-08T11:15:00Z</time>
      </trkpt>
      <trkpt lat="46.17646" lon="6.16678">
        <ele>461.52</ele>
        <time>2020-10-08T11:15:14Z</time>
      </trkpt>
      <trkpt lat="46.17636" lon="6.16707">
        <ele>461.81</ele>
        <time>2020-10-08T11:15:20Z</time>
      </trkpt>
      <trkpt lat="46.17625" lon="6.16735">
        <ele>462.21</ele>
        <time>2020-10-08T11:15:25Z</time>
      </trkpt>
      <trkpt lat="46.17615" lon="6.16765">
        <ele>462.41</ele>
        <time>2020-10-08T11:15:29Z</time>
      </trkpt>
      <trkpt lat="46.17607" lon="6.16791">
        <ele>462.52</ele>
        <time>2020-10-08T11:15:33Z</time>
      </trkpt>
      <trkpt lat="46.17599" lon="6.16816">
        <ele>462.52</ele>
        <time>2020-10-08T11:15:38Z</time>
      </trkpt>
      <trkpt lat="46.17586" lon="6.16835">
        <ele>462.42</ele>
        <time>2020-10-08T11:15:44Z</time>
      </trkpt>
      <trkpt lat="46.17566" lon="6.16841">
        <ele>462.29</ele>
        <time>2020-10-08T11:15:49Z</time>
      </trkpt>
      <trkpt lat="46.17549" lon="6.16849">
        <ele>462.37</ele>
        <time>2020-10-08T11:15:54Z</time>
      </trkpt>
      <trkpt lat="46.17531" lon="6.16855">
        <ele>462.2</ele>
        <time>2020-10-08T11:16:00Z</time>
      </trkpt>
      <trkpt lat="46.17511" lon="6.16855">
        <ele>462.23</ele>
        <time>2020-10-08T11:16:05Z</time>
      </trkpt>
      <trkpt lat="46.17492" lon="6.1685">
        <ele>462.62</ele>
        <time>2020-10-08T11:16:10Z</time>
      </trkpt>
      <trkpt lat="46.17472" lon="6.16849">
        <ele>463.15</ele>
        <time>2020-10-08T11:16:15Z</time>
      </trkpt>
      <trkpt lat="46.17455" lon="6.1685">
        <ele>464.37</ele>
        <time>2020-10-08T11:16:49Z</time>
      </trkpt>
      <trkpt lat="46.17448" lon="6.16875">
        <ele>464.42</ele>
        <time>2020-10-08T11:16:55Z</time>
      </trkpt>
      <trkpt lat="46.17441" lon="6.16901">
        <ele>464.67</ele>
        <time>2020-10-08T11:16:59Z</time>
      </trkpt>
      <trkpt lat="46.17432" lon="6.16925">
        <ele>465.46</ele>
        <time>2020-10-08T11:17:05Z</time>
      </trkpt>
      <trkpt lat="46.17413" lon="6.16939">
        <ele>466.33</ele>
        <time>2020-10-08T11:17:18Z</time>
      </trkpt>
      <trkpt lat="46.17407" lon="6.16953">
        <ele>467.01</ele>
        <time>2020-10-08T11:20:07Z</time>
      </trkpt>
      <trkpt lat="46.17403" lon="6.16972">
        <ele>467.01</ele>
        <time>2020-10-08T11:21:17Z</time>
      </trkpt>
      <trkpt lat="46.17417" lon="6.1699">
        <ele>467.01</ele>
        <time>2020-10-08T11:21:35Z</time>
      </trkpt>
      <trkpt lat="46.1743" lon="6.17016">
        <ele>467.01</ele>
        <time>2020-10-08T11:21:40Z</time>
      </trkpt>
      <trkpt lat="46.17436" lon="6.17046">
        <ele>467.01</ele>
        <time>2020-10-08T11:21:44Z</time>
      </trkpt>
      <trkpt lat="46.17441" lon="6.17077">
        <ele>467.01</ele>
        <time>2020-10-08T11:21:48Z</time>
      </trkpt>
      <trkpt lat="46.17446" lon="6.17104">
        <ele>467.01</ele>
        <time>2020-10-08T11:21:52Z</time>
      </trkpt>
      <trkpt lat="46.17452" lon="6.17136">
        <ele>467.01</ele>
        <time>2020-10-08T11:21:57Z</time>
      </trkpt>
      <trkpt lat="46.17456" lon="6.17161">
        <ele>467.01</ele>
        <time>2020-10-08T11:22:01Z</time>
      </trkpt>
      <trkpt lat="46.17463" lon="6.17192">
        <ele>467.01</ele>
        <time>2020-10-08T11:22:05Z</time>
      </trkpt>
      <trkpt lat="46.17468" lon="6.17219">
        <ele>467.01</ele>
        <time>2020-10-08T11:22:08Z</time>
      </trkpt>
      <trkpt lat="46.17473" lon="6.17247">
        <ele>467.01</ele>
        <time>2020-10-08T11:22:11Z</time>
      </trkpt>
      <trkpt lat="46.17479" lon="6.17274">
        <ele>467.01</ele>
        <time>2020-10-08T11:22:14Z</time>
      </trkpt>
      <trkpt lat="46.17484" lon="6.17302">
        <ele>467.01</ele>
        <time>2020-10-08T11:22:17Z</time>
      </trkpt>
      <trkpt lat="46.17489" lon="6.1733">
        <ele>467.01</ele>
        <time>2020-10-08T11:22:20Z</time>
      </trkpt>
      <trkpt lat="46.17495" lon="6.17355">
        <ele>467.01</ele>
        <time>2020-10-08T11:22:23Z</time>
      </trkpt>
      <trkpt lat="46.17504" lon="6.17386">
        <ele>467.01</ele>
        <time>2020-10-08T11:22:27Z</time>
      </trkpt>
      <trkpt lat="46.1751" lon="6.17419">
        <ele>467.01</ele>
        <time>2020-10-08T11:22:31Z</time>
      </trkpt>
      <trkpt lat="46.17517" lon="6.1745">
        <ele>467.01</ele>
        <time>2020-10-08T11:22:35Z</time>
      </trkpt>
      <trkpt lat="46.17523" lon="6.17477">
        <ele>467.01</ele>
        <time>2020-10-08T11:22:39Z</time>
      </trkpt>
      <trkpt lat="46.17531" lon="6.17506">
        <ele>467.01</ele>
        <time>2020-10-08T11:22:43Z</time>
      </trkpt>
      <trkpt lat="46.17537" lon="6.17533">
        <ele>467.01</ele>
        <time>2020-10-08T11:22:46Z</time>
      </trkpt>
      <trkpt lat="46.17546" lon="6.17566">
        <ele>464.54</ele>
        <time>2020-10-08T11:22:50Z</time>
      </trkpt>
      <trkpt lat="46.17554" lon="6.17595">
        <ele>464.21</ele>
        <time>2020-10-08T11:22:54Z</time>
      </trkpt>
      <trkpt lat="46.17562" lon="6.17622">
        <ele>464.16</ele>
        <time>2020-10-08T11:22:58Z</time>
      </trkpt>
      <trkpt lat="46.17569" lon="6.17649">
        <ele>463.98</ele>
        <time>2020-10-08T11:23:02Z</time>
      </trkpt>
      <trkpt lat="46.17578" lon="6.17679">
        <ele>463.62</ele>
        <time>2020-10-08T11:23:06Z</time>
      </trkpt>
      <trkpt lat="46.17587" lon="6.17711">
        <ele>463.55</ele>
        <time>2020-10-08T11:23:10Z</time>
      </trkpt>
      <trkpt lat="46.17595" lon="6.17738">
        <ele>463.54</ele>
        <time>2020-10-08T11:23:13Z</time>
      </trkpt>
      <trkpt lat="46.17602" lon="6.17765">
        <ele>463.45</ele>
        <time>2020-10-08T11:23:16Z</time>
      </trkpt>
      <trkpt lat="46.1761" lon="6.17791">
        <ele>463.29</ele>
        <time>2020-10-08T11:23:19Z</time>
      </trkpt>
      <trkpt lat="46.17618" lon="6.17817">
        <ele>463.15</ele>
        <time>2020-10-08T11:23:22Z</time>
      </trkpt>
      <trkpt lat="46.17627" lon="6.17845">
        <ele>463.03</ele>
        <time>2020-10-08T11:23:25Z</time>
      </trkpt>
      <trkpt lat="46.17636" lon="6.17871">
        <ele>462.92</ele>
        <time>2020-10-08T11:23:28Z</time>
      </trkpt>
      <trkpt lat="46.17644" lon="6.17899">
        <ele>462.82</ele>
        <time>2020-10-08T11:23:31Z</time>
      </trkpt>
      <trkpt lat="46.17652" lon="6.17924">
        <ele>462.61</ele>
        <time>2020-10-08T11:23:34Z</time>
      </trkpt>
      <trkpt lat="46.1766" lon="6.17949">
        <ele>462.41</ele>
        <time>2020-10-08T11:23:37Z</time>
      </trkpt>
      <trkpt lat="46.17665" lon="6.17982">
        <ele>462.21</ele>
        <time>2020-10-08T11:23:41Z</time>
      </trkpt>
      <trkpt lat="46.17682" lon="6.17985">
        <ele>462.1</ele>
        <time>2020-10-08T11:23:45Z</time>
      </trkpt>
      <trkpt lat="46.17701" lon="6.17983">
        <ele>461.45</ele>
        <time>2020-10-08T11:23:50Z</time>
      </trkpt>
      <trkpt lat="46.1772" lon="6.17987">
        <ele>460.68</ele>
        <time>2020-10-08T11:23:55Z</time>
      </trkpt>
      <trkpt lat="46.1774" lon="6.18001">
        <ele>459.94</ele>
        <time>2020-10-08T11:23:59Z</time>
      </trkpt>
      <trkpt lat="46.17759" lon="6.18022">
        <ele>459.29</ele>
        <time>2020-10-08T11:24:02Z</time>
      </trkpt>
      <trkpt lat="46.17772" lon="6.18041">
        <ele>458.79</ele>
        <time>2020-10-08T11:24:04Z</time>
      </trkpt>
      <trkpt lat="46.17784" lon="6.18062">
        <ele>458.13</ele>
        <time>2020-10-08T11:24:06Z</time>
      </trkpt>
      <trkpt lat="46.17796" lon="6.18084">
        <ele>457.39</ele>
        <time>2020-10-08T11:24:08Z</time>
      </trkpt>
      <trkpt lat="46.17809" lon="6.18107">
        <ele>456.63</ele>
        <time>2020-10-08T11:24:10Z</time>
      </trkpt>
      <trkpt lat="46.1782" lon="6.18131">
        <ele>455.85</ele>
        <time>2020-10-08T11:24:12Z</time>
      </trkpt>
      <trkpt lat="46.17834" lon="6.18155">
        <ele>454.92</ele>
        <time>2020-10-08T11:24:14Z</time>
      </trkpt>
      <trkpt lat="46.17847" lon="6.1818">
        <ele>453.72</ele>
        <time>2020-10-08T11:24:16Z</time>
      </trkpt>
      <trkpt lat="46.1786" lon="6.18204">
        <ele>452.52</ele>
        <time>2020-10-08T11:24:18Z</time>
      </trkpt>
      <trkpt lat="46.17873" lon="6.18229">
        <ele>451.4</ele>
        <time>2020-10-08T11:24:20Z</time>
      </trkpt>
      <trkpt lat="46.17887" lon="6.1825">
        <ele>450.35</ele>
        <time>2020-10-08T11:24:22Z</time>
      </trkpt>
      <trkpt lat="46.17903" lon="6.18265">
        <ele>449.37</ele>
        <time>2020-10-08T11:24:24Z</time>
      </trkpt>
      <trkpt lat="46.1792" lon="6.18273">
        <ele>448.64</ele>
        <time>2020-10-08T11:24:26Z</time>
      </trkpt>
      <trkpt lat="46.17946" lon="6.18278">
        <ele>447.88</ele>
        <time>2020-10-08T11:24:29Z</time>
      </trkpt>
      <trkpt lat="46.17967" lon="6.18282">
        <ele>447.31</ele>
        <time>2020-10-08T11:24:32Z</time>
      </trkpt>
      <trkpt lat="46.17984" lon="6.18287">
        <ele>446.78</ele>
        <time>2020-10-08T11:24:36Z</time>
      </trkpt>
      <trkpt lat="46.17998" lon="6.1831">
        <ele>446.1</ele>
        <time>2020-10-08T11:24:41Z</time>
      </trkpt>
      <trkpt lat="46.18011" lon="6.18335">
        <ele>445.7</ele>
        <time>2020-10-08T11:24:45Z</time>
      </trkpt>
      <trkpt lat="46.18021" lon="6.18358">
        <ele>445.51</ele>
        <time>2020-10-08T11:24:48Z</time>
      </trkpt>
      <trkpt lat="46.18031" lon="6.18383">
        <ele>445.26</ele>
        <time>2020-10-08T11:24:51Z</time>
      </trkpt>
      <trkpt lat="46.18038" lon="6.18411">
        <ele>444.93</ele>
        <time>2020-10-08T11:24:54Z</time>
      </trkpt>
      <trkpt lat="46.18042" lon="6.18441">
        <ele>444.33</ele>
        <time>2020-10-08T11:24:57Z</time>
      </trkpt>
      <trkpt lat="46.18043" lon="6.1847">
        <ele>444</ele>
        <time>2020-10-08T11:25:00Z</time>
      </trkpt>
      <trkpt lat="46.18043" lon="6.18496">
        <ele>443.69</ele>
        <time>2020-10-08T11:25:03Z</time>
      </trkpt>
      <trkpt lat="46.18042" lon="6.18529">
        <ele>443.46</ele>
        <time>2020-10-08T11:25:07Z</time>
      </trkpt>
      <trkpt lat="46.1804" lon="6.1856">
        <ele>443.25</ele>
        <time>2020-10-08T11:25:11Z</time>
      </trkpt>
      <trkpt lat="46.18039" lon="6.18592">
        <ele>443.17</ele>
        <time>2020-10-08T11:25:15Z</time>
      </trkpt>
      <trkpt lat="46.18039" lon="6.18626">
        <ele>443.08</ele>
        <time>2020-10-08T11:25:19Z</time>
      </trkpt>
      <trkpt lat="46.18042" lon="6.18652">
        <ele>443.06</ele>
        <time>2020-10-08T11:25:22Z</time>
      </trkpt>
      <trkpt lat="46.18046" lon="6.18677">
        <ele>443.07</ele>
        <time>2020-10-08T11:25:25Z</time>
      </trkpt>
      <trkpt lat="46.18053" lon="6.18702">
        <ele>443.07</ele>
        <time>2020-10-08T11:25:28Z</time>
      </trkpt>
      <trkpt lat="46.18062" lon="6.18726">
        <ele>443.03</ele>
        <time>2020-10-08T11:25:31Z</time>
      </trkpt>
      <trkpt lat="46.18073" lon="6.18749">
        <ele>442.92</ele>
        <time>2020-10-08T11:25:34Z</time>
      </trkpt>
      <trkpt lat="46.18085" lon="6.18769">
        <ele>442.86</ele>
        <time>2020-10-08T11:25:37Z</time>
      </trkpt>
      <trkpt lat="46.181" lon="6.18787">
        <ele>442.87</ele>
        <time>2020-10-08T11:25:40Z</time>
      </trkpt>
      <trkpt lat="46.18115" lon="6.18802">
        <ele>442.85</ele>
        <time>2020-10-08T11:25:43Z</time>
      </trkpt>
      <trkpt lat="46.18135" lon="6.18817">
        <ele>442.78</ele>
        <time>2020-10-08T11:25:47Z</time>
      </trkpt>
      <trkpt lat="46.18152" lon="6.18827">
        <ele>442.77</ele>
        <time>2020-10-08T11:25:51Z</time>
      </trkpt>
      <trkpt lat="46.18167" lon="6.18842">
        <ele>442.89</ele>
        <time>2020-10-08T11:25:57Z</time>
      </trkpt>
      <trkpt lat="46.18164" lon="6.18871">
        <ele>443.03</ele>
        <time>2020-10-08T11:26:03Z</time>
      </trkpt>
      <trkpt lat="46.1816" lon="6.18897">
        <ele>442.98</ele>
        <time>2020-10-08T11:26:07Z</time>
      </trkpt>
      <trkpt lat="46.18152" lon="6.18924">
        <ele>443.05</ele>
        <time>2020-10-08T11:26:11Z</time>
      </trkpt>
      <trkpt lat="46.18142" lon="6.18952">
        <ele>443.3</ele>
        <time>2020-10-08T11:26:15Z</time>
      </trkpt>
      <trkpt lat="46.18134" lon="6.18981">
        <ele>443.58</ele>
        <time>2020-10-08T11:26:19Z</time>
      </trkpt>
      <trkpt lat="46.18143" lon="6.19">
        <ele>443.92</ele>
        <time>2020-10-08T11:26:27Z</time>
      </trkpt>
      <trkpt lat="46.18163" lon="6.19014">
        <ele>444.24</ele>
        <time>2020-10-08T11:26:33Z</time>
      </trkpt>
      <trkpt lat="46.18182" lon="6.19031">
        <ele>445.79</ele>
        <time>2020-10-08T11:26:40Z</time>
      </trkpt>
      <trkpt lat="46.18191" lon="6.1906">
        <ele>448.15</ele>
        <time>2020-10-08T11:26:47Z</time>
      </trkpt>
      <trkpt lat="46.18206" lon="6.19075">
        <ele>448.91</ele>
        <time>2020-10-08T11:26:52Z</time>
      </trkpt>
      <trkpt lat="46.1822" lon="6.19096">
        <ele>449.39</ele>
        <time>2020-10-08T11:26:57Z</time>
      </trkpt>
      <trkpt lat="46.18215" lon="6.19123">
        <ele>449.59</ele>
        <time>2020-10-08T11:27:02Z</time>
      </trkpt>
      <trkpt lat="46.18216" lon="6.19149">
        <ele>449.78</ele>
        <time>2020-10-08T11:27:06Z</time>
      </trkpt>
      <trkpt lat="46.18228" lon="6.19177">
        <ele>449.96</ele>
        <time>2020-10-08T11:27:10Z</time>
      </trkpt>
      <trkpt lat="46.18242" lon="6.19199">
        <ele>450.02</ele>
        <time>2020-10-08T11:27:14Z</time>
      </trkpt>
      <trkpt lat="46.18257" lon="6.1922">
        <ele>449.8</ele>
        <time>2020-10-08T11:27:19Z</time>
      </trkpt>
      <trkpt lat="46.18273" lon="6.1924">
        <ele>449.55</ele>
        <time>2020-10-08T11:27:24Z</time>
      </trkpt>
      <trkpt lat="46.18289" lon="6.19258">
        <ele>449.54</ele>
        <time>2020-10-08T11:27:28Z</time>
      </trkpt>
      <trkpt lat="46.18304" lon="6.19275">
        <ele>449.47</ele>
        <time>2020-10-08T11:27:32Z</time>
      </trkpt>
      <trkpt lat="46.18308" lon="6.19296">
        <ele>447.93</ele>
        <time>2020-10-08T11:27:40Z</time>
      </trkpt>
      <trkpt lat="46.18292" lon="6.19314">
        <ele>447.2</ele>
        <time>2020-10-08T11:27:47Z</time>
      </trkpt>
      <trkpt lat="46.18275" lon="6.19328">
        <ele>446.84</ele>
        <time>2020-10-08T11:28:03Z</time>
      </trkpt>
      <trkpt lat="46.18258" lon="6.19323">
        <ele>446.92</ele>
        <time>2020-10-08T11:28:11Z</time>
      </trkpt>
      <trkpt lat="46.18242" lon="6.19306">
        <ele>446.97</ele>
        <time>2020-10-08T11:28:17Z</time>
      </trkpt>
      <trkpt lat="46.18227" lon="6.1929">
        <ele>446.97</ele>
        <time>2020-10-08T11:28:21Z</time>
      </trkpt>
      <trkpt lat="46.1821" lon="6.19274">
        <ele>447</ele>
        <time>2020-10-08T11:28:26Z</time>
      </trkpt>
      <trkpt lat="46.18199" lon="6.19251">
        <ele>447.05</ele>
        <time>2020-10-08T11:28:34Z</time>
      </trkpt>
      <trkpt lat="46.18186" lon="6.19228">
        <ele>446.98</ele>
        <time>2020-10-08T11:28:38Z</time>
      </trkpt>
      <trkpt lat="46.18172" lon="6.19209">
        <ele>446.9</ele>
        <time>2020-10-08T11:28:41Z</time>
      </trkpt>
      <trkpt lat="46.18159" lon="6.1919">
        <ele>446.51</ele>
        <time>2020-10-08T11:28:44Z</time>
      </trkpt>
      <trkpt lat="46.18141" lon="6.19171">
        <ele>445.82</ele>
        <time>2020-10-08T11:28:48Z</time>
      </trkpt>
      <trkpt lat="46.18119" lon="6.19171">
        <ele>445.5</ele>
        <time>2020-10-08T11:28:52Z</time>
      </trkpt>
      <trkpt lat="46.18098" lon="6.19172">
        <ele>444.97</ele>
        <time>2020-10-08T11:28:56Z</time>
      </trkpt>
      <trkpt lat="46.18078" lon="6.19175">
        <ele>444.57</ele>
        <time>2020-10-08T11:29:00Z</time>
      </trkpt>
      <trkpt lat="46.18058" lon="6.19176">
        <ele>444.25</ele>
        <time>2020-10-08T11:29:04Z</time>
      </trkpt>
      <trkpt lat="46.18037" lon="6.19175">
        <ele>444.13</ele>
        <time>2020-10-08T11:29:08Z</time>
      </trkpt>
      <trkpt lat="46.18016" lon="6.19176">
        <ele>444.02</ele>
        <time>2020-10-08T11:29:12Z</time>
      </trkpt>
      <trkpt lat="46.17996" lon="6.1918">
        <ele>443.71</ele>
        <time>2020-10-08T11:29:16Z</time>
      </trkpt>
      <trkpt lat="46.1798" lon="6.19198">
        <ele>443.39</ele>
        <time>2020-10-08T11:29:20Z</time>
      </trkpt>
      <trkpt lat="46.1797" lon="6.19222">
        <ele>443.03</ele>
        <time>2020-10-08T11:29:24Z</time>
      </trkpt>
      <trkpt lat="46.17957" lon="6.19241">
        <ele>442.64</ele>
        <time>2020-10-08T11:29:28Z</time>
      </trkpt>
      <trkpt lat="46.17936" lon="6.19254">
        <ele>442.34</ele>
        <time>2020-10-08T11:29:33Z</time>
      </trkpt>
      <trkpt lat="46.17918" lon="6.19267">
        <ele>442.19</ele>
        <time>2020-10-08T11:29:37Z</time>
      </trkpt>
      <trkpt lat="46.17895" lon="6.19277">
        <ele>441.93</ele>
        <time>2020-10-08T11:29:41Z</time>
      </trkpt>
      <trkpt lat="46.17871" lon="6.19267">
        <ele>441.9</ele>
        <time>2020-10-08T11:29:45Z</time>
      </trkpt>
      <trkpt lat="46.17852" lon="6.19262">
        <ele>441.92</ele>
        <time>2020-10-08T11:29:48Z</time>
      </trkpt>
      <trkpt lat="46.1783" lon="6.19261">
        <ele>441.96</ele>
        <time>2020-10-08T11:29:52Z</time>
      </trkpt>
      <trkpt lat="46.17811" lon="6.19259">
        <ele>441.94</ele>
        <time>2020-10-08T11:29:56Z</time>
      </trkpt>
      <trkpt lat="46.17792" lon="6.19257">
        <ele>441.8</ele>
        <time>2020-10-08T11:30:01Z</time>
      </trkpt>
      <trkpt lat="46.17771" lon="6.19252">
        <ele>441.85</ele>
        <time>2020-10-08T11:30:06Z</time>
      </trkpt>
      <trkpt lat="46.17755" lon="6.19232">
        <ele>442.09</ele>
        <time>2020-10-08T11:30:11Z</time>
      </trkpt>
      <trkpt lat="46.17753" lon="6.19202">
        <ele>442.22</ele>
        <time>2020-10-08T11:30:16Z</time>
      </trkpt>
      <trkpt lat="46.17759" lon="6.19173">
        <ele>442.23</ele>
        <time>2020-10-08T11:30:20Z</time>
      </trkpt>
      <trkpt lat="46.17761" lon="6.19146">
        <ele>442.2</ele>
        <time>2020-10-08T11:30:23Z</time>
      </trkpt>
      <trkpt lat="46.17761" lon="6.19117">
        <ele>442.19</ele>
        <time>2020-10-08T11:30:26Z</time>
      </trkpt>
      <trkpt lat="46.17759" lon="6.1909">
        <ele>442.22</ele>
        <time>2020-10-08T11:30:29Z</time>
      </trkpt>
      <trkpt lat="46.17752" lon="6.19062">
        <ele>442.16</ele>
        <time>2020-10-08T11:30:33Z</time>
      </trkpt>
      <trkpt lat="46.17743" lon="6.19038">
        <ele>441.96</ele>
        <time>2020-10-08T11:30:37Z</time>
      </trkpt>
      <trkpt lat="46.17738" lon="6.19009">
        <ele>441.76</ele>
        <time>2020-10-08T11:30:42Z</time>
      </trkpt>
      <trkpt lat="46.17735" lon="6.18977">
        <ele>441.65</ele>
        <time>2020-10-08T11:30:47Z</time>
      </trkpt>
      <trkpt lat="46.17732" lon="6.18949">
        <ele>441.7</ele>
        <time>2020-10-08T11:30:51Z</time>
      </trkpt>
      <trkpt lat="46.17728" lon="6.18918">
        <ele>441.78</ele>
        <time>2020-10-08T11:30:55Z</time>
      </trkpt>
      <trkpt lat="46.17727" lon="6.1889">
        <ele>441.78</ele>
        <time>2020-10-08T11:30:59Z</time>
      </trkpt>
      <trkpt lat="46.1773" lon="6.1886">
        <ele>441.78</ele>
        <time>2020-10-08T11:31:04Z</time>
      </trkpt>
      <trkpt lat="46.17737" lon="6.18833">
        <ele>441.78</ele>
        <time>2020-10-08T11:31:09Z</time>
      </trkpt>
      <trkpt lat="46.17741" lon="6.18807">
        <ele>441.78</ele>
        <time>2020-10-08T11:31:14Z</time>
      </trkpt>
      <trkpt lat="46.17723" lon="6.188">
        <ele>441.78</ele>
        <time>2020-10-08T11:31:20Z</time>
      </trkpt>
      <trkpt lat="46.17704" lon="6.18804">
        <ele>441.78</ele>
        <time>2020-10-08T11:31:25Z</time>
      </trkpt>
      <trkpt lat="46.17682" lon="6.18811">
        <ele>441.78</ele>
        <time>2020-10-08T11:31:31Z</time>
      </trkpt>
      <trkpt lat="46.17662" lon="6.18819">
        <ele>441.78</ele>
        <time>2020-10-08T11:31:59Z</time>
      </trkpt>
      <trkpt lat="46.17633" lon="6.18835">
        <ele>441.78</ele>
        <time>2020-10-08T11:32:54Z</time>
      </trkpt>
      <trkpt lat="46.17609" lon="6.18852">
        <ele>441.78</ele>
        <time>2020-10-08T11:32:59Z</time>
      </trkpt>
      <trkpt lat="46.17587" lon="6.18869">
        <ele>441.78</ele>
        <time>2020-10-08T11:33:05Z</time>
      </trkpt>
      <trkpt lat="46.17566" lon="6.18885">
        <ele>441.78</ele>
        <time>2020-10-08T11:33:10Z</time>
      </trkpt>
      <trkpt lat="46.17545" lon="6.18904">
        <ele>441.78</ele>
        <time>2020-10-08T11:33:16Z</time>
      </trkpt>
      <trkpt lat="46.17524" lon="6.18923">
        <ele>441.78</ele>
        <time>2020-10-08T11:33:21Z</time>
      </trkpt>
      <trkpt lat="46.17507" lon="6.18945">
        <ele>441.78</ele>
        <time>2020-10-08T11:33:25Z</time>
      </trkpt>
      <trkpt lat="46.17487" lon="6.18967">
        <ele>441.78</ele>
        <time>2020-10-08T11:33:29Z</time>
      </trkpt>
      <trkpt lat="46.17469" lon="6.18992">
        <ele>441.78</ele>
        <time>2020-10-08T11:33:33Z</time>
      </trkpt>
      <trkpt lat="46.17455" lon="6.19015">
        <ele>441.78</ele>
        <time>2020-10-08T11:33:37Z</time>
      </trkpt>
      <trkpt lat="46.1744" lon="6.19042">
        <ele>441.78</ele>
        <time>2020-10-08T11:33:42Z</time>
      </trkpt>
      <trkpt lat="46.17434" lon="6.19071">
        <ele>441.78</ele>
        <time>2020-10-08T11:33:48Z</time>
      </trkpt>
      <trkpt lat="46.17428" lon="6.19099">
        <ele>441.78</ele>
        <time>2020-10-08T11:33:54Z</time>
      </trkpt>
      <trkpt lat="46.17426" lon="6.19133">
        <ele>441.78</ele>
        <time>2020-10-08T11:33:59Z</time>
      </trkpt>
      <trkpt lat="46.17427" lon="6.19168">
        <ele>441.78</ele>
        <time>2020-10-08T11:34:03Z</time>
      </trkpt>
      <trkpt lat="46.17434" lon="6.19194">
        <ele>441.78</ele>
        <time>2020-10-08T11:34:07Z</time>
      </trkpt>
      <trkpt lat="46.1745" lon="6.19215">
        <ele>441.78</ele>
        <time>2020-10-08T11:34:12Z</time>
      </trkpt>
      <trkpt lat="46.17456" lon="6.1925">
        <ele>441.78</ele>
        <time>2020-10-08T11:34:18Z</time>
      </trkpt>
      <trkpt lat="46.17462" lon="6.19281">
        <ele>441.78</ele>
        <time>2020-10-08T11:34:22Z</time>
      </trkpt>
      <trkpt lat="46.17471" lon="6.19314">
        <ele>441.78</ele>
        <time>2020-10-08T11:34:26Z</time>
      </trkpt>
      <trkpt lat="46.17479" lon="6.19346">
        <ele>441.78</ele>
        <time>2020-10-08T11:34:31Z</time>
      </trkpt>
      <trkpt lat="46.17489" lon="6.19376">
        <ele>441.78</ele>
        <time>2020-10-08T11:34:37Z</time>
      </trkpt>
      <trkpt lat="46.17502" lon="6.19403">
        <ele>441.78</ele>
        <time>2020-10-08T11:34:42Z</time>
      </trkpt>
      <trkpt lat="46.17514" lon="6.1943">
        <ele>441.78</ele>
        <time>2020-10-08T11:34:47Z</time>
      </trkpt>
      <trkpt lat="46.17525" lon="6.19455">
        <ele>441.78</ele>
        <time>2020-10-08T11:34:52Z</time>
      </trkpt>
      <trkpt lat="46.17535" lon="6.19482">
        <ele>441.78</ele>
        <time>2020-10-08T11:34:58Z</time>
      </trkpt>
      <trkpt lat="46.1755" lon="6.19509">
        <ele>441.78</ele>
        <time>2020-10-08T11:35:04Z</time>
      </trkpt>
      <trkpt lat="46.17562" lon="6.19536">
        <ele>441.78</ele>
        <time>2020-10-08T11:35:08Z</time>
      </trkpt>
      <trkpt lat="46.17566" lon="6.19572">
        <ele>441.78</ele>
        <time>2020-10-08T11:35:13Z</time>
      </trkpt>
      <trkpt lat="46.17565" lon="6.19604">
        <ele>441.78</ele>
        <time>2020-10-08T11:35:18Z</time>
      </trkpt>
      <trkpt lat="46.17564" lon="6.19639">
        <ele>441.78</ele>
        <time>2020-10-08T11:35:24Z</time>
      </trkpt>
      <trkpt lat="46.17559" lon="6.19671">
        <ele>441.78</ele>
        <time>2020-10-08T11:35:29Z</time>
      </trkpt>
      <trkpt lat="46.17556" lon="6.19707">
        <ele>441.78</ele>
        <time>2020-10-08T11:35:34Z</time>
      </trkpt>
      <trkpt lat="46.17551" lon="6.19739">
        <ele>441.78</ele>
        <time>2020-10-08T11:35:38Z</time>
      </trkpt>
      <trkpt lat="46.17542" lon="6.19776">
        <ele>441.78</ele>
        <time>2020-10-08T11:35:43Z</time>
      </trkpt>
      <trkpt lat="46.17534" lon="6.19807">
        <ele>441.78</ele>
        <time>2020-10-08T11:35:48Z</time>
      </trkpt>
      <trkpt lat="46.1753" lon="6.1984">
        <ele>441.78</ele>
        <time>2020-10-08T11:35:52Z</time>
      </trkpt>
      <trkpt lat="46.17518" lon="6.19876">
        <ele>441.78</ele>
        <time>2020-10-08T11:35:56Z</time>
      </trkpt>
      <trkpt lat="46.17508" lon="6.19905">
        <ele>441.78</ele>
        <time>2020-10-08T11:36:00Z</time>
      </trkpt>
      <trkpt lat="46.17499" lon="6.19934">
        <ele>441.78</ele>
        <time>2020-10-08T11:36:05Z</time>
      </trkpt>
      <trkpt lat="46.1749" lon="6.19964">
        <ele>441.78</ele>
        <time>2020-10-08T11:36:11Z</time>
      </trkpt>
      <trkpt lat="46.17484" lon="6.1999">
        <ele>441.78</ele>
        <time>2020-10-08T11:36:15Z</time>
      </trkpt>
      <trkpt lat="46.17477" lon="6.20019">
        <ele>441.78</ele>
        <time>2020-10-08T11:36:19Z</time>
      </trkpt>
      <trkpt lat="46.17471" lon="6.2005">
        <ele>441.78</ele>
        <time>2020-10-08T11:36:23Z</time>
      </trkpt>
      <trkpt lat="46.17465" lon="6.20088">
        <ele>441.78</ele>
        <time>2020-10-08T11:36:27Z</time>
      </trkpt>
      <trkpt lat="46.17461" lon="6.20124">
        <ele>441.78</ele>
        <time>2020-10-08T11:36:31Z</time>
      </trkpt>
      <trkpt lat="46.1746" lon="6.20153">
        <ele>441.78</ele>
        <time>2020-10-08T11:36:35Z</time>
      </trkpt>
      <trkpt lat="46.17457" lon="6.2018">
        <ele>441.78</ele>
        <time>2020-10-08T11:36:40Z</time>
      </trkpt>
      <trkpt lat="46.17456" lon="6.20209">
        <ele>441.78</ele>
        <time>2020-10-08T11:36:45Z</time>
      </trkpt>
      <trkpt lat="46.17457" lon="6.20238">
        <ele>441.78</ele>
        <time>2020-10-08T11:36:49Z</time>
      </trkpt>
      <trkpt lat="46.1746" lon="6.20269">
        <ele>441.78</ele>
        <time>2020-10-08T11:36:53Z</time>
      </trkpt>
      <trkpt lat="46.1746" lon="6.20297">
        <ele>441.78</ele>
        <time>2020-10-08T11:36:57Z</time>
      </trkpt>
      <trkpt lat="46.1746" lon="6.20324">
        <ele>441.78</ele>
        <time>2020-10-08T11:37:02Z</time>
      </trkpt>
      <trkpt lat="46.17461" lon="6.2035">
        <ele>441.78</ele>
        <time>2020-10-08T11:37:07Z</time>
      </trkpt>
      <trkpt lat="46.17463" lon="6.20383">
        <ele>441.78</ele>
        <time>2020-10-08T11:37:12Z</time>
      </trkpt>
      <trkpt lat="46.17465" lon="6.20411">
        <ele>441.78</ele>
        <time>2020-10-08T11:37:16Z</time>
      </trkpt>
      <trkpt lat="46.17462" lon="6.20438">
        <ele>441.78</ele>
        <time>2020-10-08T11:37:20Z</time>
      </trkpt>
      <trkpt lat="46.1746" lon="6.20466">
        <ele>441.78</ele>
        <time>2020-10-08T11:37:24Z</time>
      </trkpt>
      <trkpt lat="46.17472" lon="6.20487">
        <ele>441.78</ele>
        <time>2020-10-08T11:37:29Z</time>
      </trkpt>
      <trkpt lat="46.17472" lon="6.20517">
        <ele>441.78</ele>
        <time>2020-10-08T11:37:34Z</time>
      </trkpt>
      <trkpt lat="46.17473" lon="6.20549">
        <ele>441.78</ele>
        <time>2020-10-08T11:37:39Z</time>
      </trkpt>
      <trkpt lat="46.17473" lon="6.20578">
        <ele>441.78</ele>
        <time>2020-10-08T11:37:43Z</time>
      </trkpt>
      <trkpt lat="46.17473" lon="6.20611">
        <ele>441.78</ele>
        <time>2020-10-08T11:37:47Z</time>
      </trkpt>
      <trkpt lat="46.17474" lon="6.20643">
        <ele>441.78</ele>
        <time>2020-10-08T11:37:51Z</time>
      </trkpt>
      <trkpt lat="46.17473" lon="6.20671">
        <ele>441.78</ele>
        <time>2020-10-08T11:37:55Z</time>
      </trkpt>
      <trkpt lat="46.1747" lon="6.20702">
        <ele>441.78</ele>
        <time>2020-10-08T11:38:00Z</time>
      </trkpt>
      <trkpt lat="46.17472" lon="6.20732">
        <ele>444.93</ele>
        <time>2020-10-08T11:38:06Z</time>
      </trkpt>
      <trkpt lat="46.17474" lon="6.20765">
        <ele>444.76</ele>
        <time>2020-10-08T11:38:12Z</time>
      </trkpt>
      <trkpt lat="46.17477" lon="6.20795">
        <ele>444.76</ele>
        <time>2020-10-08T11:38:16Z</time>
      </trkpt>
      <trkpt lat="46.17479" lon="6.20829">
        <ele>444.84</ele>
        <time>2020-10-08T11:38:20Z</time>
      </trkpt>
      <trkpt lat="46.1748" lon="6.2086">
        <ele>444.98</ele>
        <time>2020-10-08T11:38:24Z</time>
      </trkpt>
      <trkpt lat="46.17481" lon="6.20891">
        <ele>444.98</ele>
        <time>2020-10-08T11:38:29Z</time>
      </trkpt>
      <trkpt lat="46.17482" lon="6.20918">
        <ele>445.12</ele>
        <time>2020-10-08T11:38:34Z</time>
      </trkpt>
      <trkpt lat="46.17483" lon="6.2095">
        <ele>445.53</ele>
        <time>2020-10-08T11:38:39Z</time>
      </trkpt>
      <trkpt lat="46.17483" lon="6.20979">
        <ele>445.83</ele>
        <time>2020-10-08T11:38:43Z</time>
      </trkpt>
      <trkpt lat="46.17484" lon="6.21011">
        <ele>445.88</ele>
        <time>2020-10-08T11:38:48Z</time>
      </trkpt>
      <trkpt lat="46.17485" lon="6.21043">
        <ele>445.87</ele>
        <time>2020-10-08T11:38:53Z</time>
      </trkpt>
      <trkpt lat="46.17485" lon="6.21069">
        <ele>446.1</ele>
        <time>2020-10-08T11:38:57Z</time>
      </trkpt>
      <trkpt lat="46.17486" lon="6.21097">
        <ele>446.66</ele>
        <time>2020-10-08T11:39:01Z</time>
      </trkpt>
      <trkpt lat="46.17487" lon="6.21126">
        <ele>446.82</ele>
        <time>2020-10-08T11:39:05Z</time>
      </trkpt>
      <trkpt lat="46.17487" lon="6.21157">
        <ele>446.92</ele>
        <time>2020-10-08T11:39:11Z</time>
      </trkpt>
      <trkpt lat="46.17487" lon="6.21186">
        <ele>446.98</ele>
        <time>2020-10-08T11:39:17Z</time>
      </trkpt>
      <trkpt lat="46.17486" lon="6.21214">
        <ele>446.42</ele>
        <time>2020-10-08T11:39:22Z</time>
      </trkpt>
      <trkpt lat="46.17485" lon="6.21246">
        <ele>444.31</ele>
        <time>2020-10-08T11:39:45Z</time>
      </trkpt>
      <trkpt lat="46.17492" lon="6.2128">
        <ele>444.28</ele>
        <time>2020-10-08T11:39:52Z</time>
      </trkpt>
      <trkpt lat="46.17498" lon="6.2131">
        <ele>444.86</ele>
        <time>2020-10-08T11:39:57Z</time>
      </trkpt>
      <trkpt lat="46.17502" lon="6.21338">
        <ele>445.4</ele>
        <time>2020-10-08T11:40:01Z</time>
      </trkpt>
      <trkpt lat="46.17507" lon="6.21369">
        <ele>445.81</ele>
        <time>2020-10-08T11:40:06Z</time>
      </trkpt>
      <trkpt lat="46.17513" lon="6.21398">
        <ele>445.76</ele>
        <time>2020-10-08T11:40:12Z</time>
      </trkpt>
      <trkpt lat="46.17521" lon="6.21431">
        <ele>445.78</ele>
        <time>2020-10-08T11:40:17Z</time>
      </trkpt>
      <trkpt lat="46.17529" lon="6.21463">
        <ele>445.97</ele>
        <time>2020-10-08T11:40:21Z</time>
      </trkpt>
      <trkpt lat="46.17538" lon="6.21497">
        <ele>446.27</ele>
        <time>2020-10-08T11:40:25Z</time>
      </trkpt>
      <trkpt lat="46.17546" lon="6.21526">
        <ele>446.49</ele>
        <time>2020-10-08T11:40:30Z</time>
      </trkpt>
      <trkpt lat="46.17554" lon="6.21558">
        <ele>446.74</ele>
        <time>2020-10-08T11:40:36Z</time>
      </trkpt>
      <trkpt lat="46.17563" lon="6.21587">
        <ele>446.85</ele>
        <time>2020-10-08T11:40:41Z</time>
      </trkpt>
      <trkpt lat="46.1757" lon="6.2162">
        <ele>447.22</ele>
        <time>2020-10-08T11:40:46Z</time>
      </trkpt>
      <trkpt lat="46.17578" lon="6.21654">
        <ele>447.64</ele>
        <time>2020-10-08T11:40:51Z</time>
      </trkpt>
      <trkpt lat="46.17593" lon="6.21676">
        <ele>447.97</ele>
        <time>2020-10-08T11:40:56Z</time>
      </trkpt>
      <trkpt lat="46.17611" lon="6.21694">
        <ele>448.25</ele>
        <time>2020-10-08T11:41:02Z</time>
      </trkpt>
      <trkpt lat="46.17632" lon="6.21711">
        <ele>448.55</ele>
        <time>2020-10-08T11:41:07Z</time>
      </trkpt>
      <trkpt lat="46.17651" lon="6.21722">
        <ele>449</ele>
        <time>2020-10-08T11:41:11Z</time>
      </trkpt>
      <trkpt lat="46.17668" lon="6.21738">
        <ele>449.19</ele>
        <time>2020-10-08T11:41:16Z</time>
      </trkpt>
      <trkpt lat="46.17684" lon="6.21754">
        <ele>449.11</ele>
        <time>2020-10-08T11:41:24Z</time>
      </trkpt>
      <trkpt lat="46.17699" lon="6.21774">
        <ele>449.31</ele>
        <time>2020-10-08T11:41:30Z</time>
      </trkpt>
      <trkpt lat="46.17717" lon="6.2179">
        <ele>449.73</ele>
        <time>2020-10-08T11:41:35Z</time>
      </trkpt>
      <trkpt lat="46.17735" lon="6.21804">
        <ele>449.39</ele>
        <time>2020-10-08T11:41:39Z</time>
      </trkpt>
      <trkpt lat="46.17753" lon="6.21819">
        <ele>448.31</ele>
        <time>2020-10-08T11:41:43Z</time>
      </trkpt>
      <trkpt lat="46.17772" lon="6.21834">
        <ele>448.01</ele>
        <time>2020-10-08T11:41:47Z</time>
      </trkpt>
      <trkpt lat="46.1779" lon="6.21846">
        <ele>448.09</ele>
        <time>2020-10-08T11:41:50Z</time>
      </trkpt>
      <trkpt lat="46.17813" lon="6.21859">
        <ele>448.44</ele>
        <time>2020-10-08T11:41:54Z</time>
      </trkpt>
      <trkpt lat="46.17833" lon="6.21871">
        <ele>448.71</ele>
        <time>2020-10-08T11:41:59Z</time>
      </trkpt>
      <trkpt lat="46.17851" lon="6.21881">
        <ele>448.86</ele>
        <time>2020-10-08T11:42:03Z</time>
      </trkpt>
      <trkpt lat="46.17872" lon="6.21894">
        <ele>448.92</ele>
        <time>2020-10-08T11:42:07Z</time>
      </trkpt>
      <trkpt lat="46.17892" lon="6.21908">
        <ele>448.92</ele>
        <time>2020-10-08T11:42:10Z</time>
      </trkpt>
      <trkpt lat="46.17909" lon="6.2192">
        <ele>448.92</ele>
        <time>2020-10-08T11:42:13Z</time>
      </trkpt>
      <trkpt lat="46.17932" lon="6.21933">
        <ele>448.92</ele>
        <time>2020-10-08T11:42:17Z</time>
      </trkpt>
      <trkpt lat="46.17953" lon="6.21948">
        <ele>448.92</ele>
        <time>2020-10-08T11:42:21Z</time>
      </trkpt>
      <trkpt lat="46.1797" lon="6.21959">
        <ele>448.92</ele>
        <time>2020-10-08T11:42:25Z</time>
      </trkpt>
      <trkpt lat="46.17992" lon="6.2197">
        <ele>448.92</ele>
        <time>2020-10-08T11:42:31Z</time>
      </trkpt>
      <trkpt lat="46.18015" lon="6.21982">
        <ele>448.92</ele>
        <time>2020-10-08T11:42:36Z</time>
      </trkpt>
      <trkpt lat="46.18039" lon="6.21995">
        <ele>448.92</ele>
        <time>2020-10-08T11:42:40Z</time>
      </trkpt>
      <trkpt lat="46.18062" lon="6.22005">
        <ele>448.92</ele>
        <time>2020-10-08T11:42:44Z</time>
      </trkpt>
      <trkpt lat="46.18083" lon="6.22014">
        <ele>448.92</ele>
        <time>2020-10-08T11:42:48Z</time>
      </trkpt>
      <trkpt lat="46.18104" lon="6.22026">
        <ele>448.92</ele>
        <time>2020-10-08T11:42:53Z</time>
      </trkpt>
      <trkpt lat="46.18124" lon="6.22037">
        <ele>448.92</ele>
        <time>2020-10-08T11:42:58Z</time>
      </trkpt>
      <trkpt lat="46.18141" lon="6.22047">
        <ele>448.92</ele>
        <time>2020-10-08T11:43:02Z</time>
      </trkpt>
      <trkpt lat="46.18162" lon="6.22056">
        <ele>448.92</ele>
        <time>2020-10-08T11:43:06Z</time>
      </trkpt>
      <trkpt lat="46.18181" lon="6.22066">
        <ele>448.92</ele>
        <time>2020-10-08T11:43:11Z</time>
      </trkpt>
      <trkpt lat="46.18199" lon="6.22077">
        <ele>448.92</ele>
        <time>2020-10-08T11:43:17Z</time>
      </trkpt>
      <trkpt lat="46.18217" lon="6.22088">
        <ele>448.92</ele>
        <time>2020-10-08T11:43:22Z</time>
      </trkpt>
      <trkpt lat="46.18234" lon="6.22098">
        <ele>448.92</ele>
        <time>2020-10-08T11:43:26Z</time>
      </trkpt>
      <trkpt lat="46.18255" lon="6.22112">
        <ele>448.92</ele>
        <time>2020-10-08T11:43:31Z</time>
      </trkpt>
      <trkpt lat="46.18274" lon="6.22122">
        <ele>448.92</ele>
        <time>2020-10-08T11:43:35Z</time>
      </trkpt>
      <trkpt lat="46.18295" lon="6.22133">
        <ele>448.92</ele>
        <time>2020-10-08T11:43:39Z</time>
      </trkpt>
      <trkpt lat="46.18314" lon="6.22144">
        <ele>448.92</ele>
        <time>2020-10-08T11:43:43Z</time>
      </trkpt>
      <trkpt lat="46.18332" lon="6.2216">
        <ele>448.92</ele>
        <time>2020-10-08T11:43:48Z</time>
      </trkpt>
      <trkpt lat="46.18349" lon="6.22177">
        <ele>448.92</ele>
        <time>2020-10-08T11:43:53Z</time>
      </trkpt>
      <trkpt lat="46.18367" lon="6.22197">
        <ele>448.92</ele>
        <time>2020-10-08T11:44:00Z</time>
      </trkpt>
      <trkpt lat="46.18384" lon="6.22215">
        <ele>448.92</ele>
        <time>2020-10-08T11:44:04Z</time>
      </trkpt>
      <trkpt lat="46.18401" lon="6.22233">
        <ele>448.92</ele>
        <time>2020-10-08T11:44:08Z</time>
      </trkpt>
      <trkpt lat="46.18417" lon="6.22253">
        <ele>448.92</ele>
        <time>2020-10-08T11:44:12Z</time>
      </trkpt>
      <trkpt lat="46.1843" lon="6.22275">
        <ele>448.92</ele>
        <time>2020-10-08T11:44:16Z</time>
      </trkpt>
      <trkpt lat="46.18443" lon="6.22297">
        <ele>448.92</ele>
        <time>2020-10-08T11:44:21Z</time>
      </trkpt>
      <trkpt lat="46.18458" lon="6.22323">
        <ele>448.92</ele>
        <time>2020-10-08T11:44:26Z</time>
      </trkpt>
      <trkpt lat="46.1847" lon="6.22346">
        <ele>448.92</ele>
        <time>2020-10-08T11:44:30Z</time>
      </trkpt>
      <trkpt lat="46.1848" lon="6.22368">
        <ele>448.92</ele>
        <time>2020-10-08T11:44:35Z</time>
      </trkpt>
      <trkpt lat="46.18493" lon="6.22386">
        <ele>448.92</ele>
        <time>2020-10-08T11:44:41Z</time>
      </trkpt>
      <trkpt lat="46.18503" lon="6.22413">
        <ele>448.92</ele>
        <time>2020-10-08T11:44:46Z</time>
      </trkpt>
      <trkpt lat="46.18508" lon="6.22447">
        <ele>448.92</ele>
        <time>2020-10-08T11:44:51Z</time>
      </trkpt>
      <trkpt lat="46.18512" lon="6.22477">
        <ele>448.92</ele>
        <time>2020-10-08T11:44:55Z</time>
      </trkpt>
      <trkpt lat="46.18514" lon="6.22508">
        <ele>448.92</ele>
        <time>2020-10-08T11:44:59Z</time>
      </trkpt>
      <trkpt lat="46.18516" lon="6.22539">
        <ele>448.92</ele>
        <time>2020-10-08T11:45:03Z</time>
      </trkpt>
      <trkpt lat="46.18516" lon="6.22569">
        <ele>448.92</ele>
        <time>2020-10-08T11:45:07Z</time>
      </trkpt>
      <trkpt lat="46.18514" lon="6.22599">
        <ele>448.92</ele>
        <time>2020-10-08T11:45:12Z</time>
      </trkpt>
      <trkpt lat="46.18512" lon="6.22629">
        <ele>448.92</ele>
        <time>2020-10-08T11:45:17Z</time>
      </trkpt>
      <trkpt lat="46.18511" lon="6.22655">
        <ele>448.92</ele>
        <time>2020-10-08T11:45:21Z</time>
      </trkpt>
      <trkpt lat="46.18508" lon="6.22682">
        <ele>448.92</ele>
        <time>2020-10-08T11:45:30Z</time>
      </trkpt>
      <trkpt lat="46.18499" lon="6.22711">
        <ele>448.92</ele>
        <time>2020-10-08T11:45:35Z</time>
      </trkpt>
      <trkpt lat="46.18491" lon="6.22738">
        <ele>448.92</ele>
        <time>2020-10-08T11:45:39Z</time>
      </trkpt>
      <trkpt lat="46.18481" lon="6.22766">
        <ele>448.92</ele>
        <time>2020-10-08T11:45:44Z</time>
      </trkpt>
      <trkpt lat="46.18472" lon="6.2279">
        <ele>448.92</ele>
        <time>2020-10-08T11:45:49Z</time>
      </trkpt>
      <trkpt lat="46.18463" lon="6.22815">
        <ele>448.92</ele>
        <time>2020-10-08T11:45:55Z</time>
      </trkpt>
      <trkpt lat="46.18453" lon="6.22839">
        <ele>448.92</ele>
        <time>2020-10-08T11:46:02Z</time>
      </trkpt>
      <trkpt lat="46.18444" lon="6.22862">
        <ele>448.92</ele>
        <time>2020-10-08T11:46:08Z</time>
      </trkpt>
      <trkpt lat="46.18436" lon="6.22887">
        <ele>452.05</ele>
        <time>2020-10-08T11:46:45Z</time>
      </trkpt>
      <trkpt lat="46.18455" lon="6.22887">
        <ele>452.06</ele>
        <time>2020-10-08T11:46:55Z</time>
      </trkpt>
      <trkpt lat="46.18472" lon="6.229">
        <ele>452.59</ele>
        <time>2020-10-08T11:47:02Z</time>
      </trkpt>
      <trkpt lat="46.18489" lon="6.22912">
        <ele>453.2</ele>
        <time>2020-10-08T11:47:07Z</time>
      </trkpt>
      <trkpt lat="46.18509" lon="6.2293">
        <ele>453.57</ele>
        <time>2020-10-08T11:47:12Z</time>
      </trkpt>
      <trkpt lat="46.18527" lon="6.22944">
        <ele>453.78</ele>
        <time>2020-10-08T11:47:16Z</time>
      </trkpt>
      <trkpt lat="46.18546" lon="6.22957">
        <ele>454.11</ele>
        <time>2020-10-08T11:47:20Z</time>
      </trkpt>
      <trkpt lat="46.18564" lon="6.22964">
        <ele>454.6</ele>
        <time>2020-10-08T11:47:24Z</time>
      </trkpt>
      <trkpt lat="46.18582" lon="6.22966">
        <ele>455.2</ele>
        <time>2020-10-08T11:47:28Z</time>
      </trkpt>
      <trkpt lat="46.18605" lon="6.22965">
        <ele>455.93</ele>
        <time>2020-10-08T11:47:33Z</time>
      </trkpt>
      <trkpt lat="46.18625" lon="6.22963">
        <ele>456.69</ele>
        <time>2020-10-08T11:47:38Z</time>
      </trkpt>
      <trkpt lat="46.18646" lon="6.22961">
        <ele>457.54</ele>
        <time>2020-10-08T11:47:43Z</time>
      </trkpt>
      <trkpt lat="46.18664" lon="6.22955">
        <ele>458.23</ele>
        <time>2020-10-08T11:47:47Z</time>
      </trkpt>
      <trkpt lat="46.18681" lon="6.22944">
        <ele>458.9</ele>
        <time>2020-10-08T11:47:51Z</time>
      </trkpt>
      <trkpt lat="46.18697" lon="6.22932">
        <ele>459.47</ele>
        <time>2020-10-08T11:47:55Z</time>
      </trkpt>
      <trkpt lat="46.18715" lon="6.22915">
        <ele>459.84</ele>
        <time>2020-10-08T11:48:00Z</time>
      </trkpt>
      <trkpt lat="46.18732" lon="6.22896">
        <ele>459.69</ele>
        <time>2020-10-08T11:48:04Z</time>
      </trkpt>
      <trkpt lat="46.1875" lon="6.22876">
        <ele>459.49</ele>
        <time>2020-10-08T11:48:08Z</time>
      </trkpt>
      <trkpt lat="46.18766" lon="6.22858">
        <ele>459.44</ele>
        <time>2020-10-08T11:48:12Z</time>
      </trkpt>
      <trkpt lat="46.18781" lon="6.22841">
        <ele>459.2</ele>
        <time>2020-10-08T11:48:16Z</time>
      </trkpt>
      <trkpt lat="46.18798" lon="6.22824">
        <ele>459.14</ele>
        <time>2020-10-08T11:48:21Z</time>
      </trkpt>
      <trkpt lat="46.18815" lon="6.22808">
        <ele>459</ele>
        <time>2020-10-08T11:48:26Z</time>
      </trkpt>
      <trkpt lat="46.18833" lon="6.22791">
        <ele>458.97</ele>
        <time>2020-10-08T11:48:31Z</time>
      </trkpt>
      <trkpt lat="46.18849" lon="6.22779">
        <ele>459.17</ele>
        <time>2020-10-08T11:48:35Z</time>
      </trkpt>
      <trkpt lat="46.18866" lon="6.22768">
        <ele>459.41</ele>
        <time>2020-10-08T11:48:39Z</time>
      </trkpt>
      <trkpt lat="46.18886" lon="6.22758">
        <ele>460.17</ele>
        <time>2020-10-08T11:48:44Z</time>
      </trkpt>
      <trkpt lat="46.18907" lon="6.2275">
        <ele>461.5</ele>
        <time>2020-10-08T11:48:49Z</time>
      </trkpt>
      <trkpt lat="46.18927" lon="6.2274">
        <ele>462.16</ele>
        <time>2020-10-08T11:48:54Z</time>
      </trkpt>
      <trkpt lat="46.18947" lon="6.22736">
        <ele>462.14</ele>
        <time>2020-10-08T11:48:59Z</time>
      </trkpt>
      <trkpt lat="46.18968" lon="6.22732">
        <ele>461.84</ele>
        <time>2020-10-08T11:49:05Z</time>
      </trkpt>
      <trkpt lat="46.18989" lon="6.22733">
        <ele>461.86</ele>
        <time>2020-10-08T11:49:10Z</time>
      </trkpt>
      <trkpt lat="46.1901" lon="6.22734">
        <ele>462.13</ele>
        <time>2020-10-08T11:49:15Z</time>
      </trkpt>
      <trkpt lat="46.19029" lon="6.22736">
        <ele>462.84</ele>
        <time>2020-10-08T11:49:20Z</time>
      </trkpt>
      <trkpt lat="46.19047" lon="6.22739">
        <ele>464.16</ele>
        <time>2020-10-08T11:49:26Z</time>
      </trkpt>
      <trkpt lat="46.19067" lon="6.22742">
        <ele>466.25</ele>
        <time>2020-10-08T11:49:33Z</time>
      </trkpt>
      <trkpt lat="46.19088" lon="6.22746">
        <ele>468.34</ele>
        <time>2020-10-08T11:49:40Z</time>
      </trkpt>
      <trkpt lat="46.19106" lon="6.22747">
        <ele>470.2</ele>
        <time>2020-10-08T11:49:46Z</time>
      </trkpt>
      <trkpt lat="46.19125" lon="6.22752">
        <ele>471.99</ele>
        <time>2020-10-08T11:49:52Z</time>
      </trkpt>
      <trkpt lat="46.19145" lon="6.22756">
        <ele>473.62</ele>
        <time>2020-10-08T11:49:57Z</time>
      </trkpt>
      <trkpt lat="46.19163" lon="6.22761">
        <ele>475.02</ele>
        <time>2020-10-08T11:50:02Z</time>
      </trkpt>
      <trkpt lat="46.19183" lon="6.22765">
        <ele>475.87</ele>
        <time>2020-10-08T11:50:08Z</time>
      </trkpt>
      <trkpt lat="46.19202" lon="6.22769">
        <ele>476.13</ele>
        <time>2020-10-08T11:50:13Z</time>
      </trkpt>
      <trkpt lat="46.19222" lon="6.22774">
        <ele>476.25</ele>
        <time>2020-10-08T11:50:19Z</time>
      </trkpt>
      <trkpt lat="46.19243" lon="6.22779">
        <ele>476.42</ele>
        <time>2020-10-08T11:50:24Z</time>
      </trkpt>
      <trkpt lat="46.19264" lon="6.22784">
        <ele>476.75</ele>
        <time>2020-10-08T11:50:30Z</time>
      </trkpt>
      <trkpt lat="46.19284" lon="6.22786">
        <ele>476.88</ele>
        <time>2020-10-08T11:50:36Z</time>
      </trkpt>
      <trkpt lat="46.19289" lon="6.2281">
        <ele>477.19</ele>
        <time>2020-10-08T11:50:49Z</time>
      </trkpt>
      <trkpt lat="46.19287" lon="6.22836">
        <ele>477.31</ele>
        <time>2020-10-08T11:50:54Z</time>
      </trkpt>
      <trkpt lat="46.19294" lon="6.22861">
        <ele>477.6</ele>
        <time>2020-10-08T11:51:33Z</time>
      </trkpt>
      <trkpt lat="46.19308" lon="6.22873">
        <ele>477.87</ele>
        <time>2020-10-08T11:51:39Z</time>
      </trkpt>
      <trkpt lat="46.19327" lon="6.22867">
        <ele>478.1</ele>
        <time>2020-10-08T11:51:44Z</time>
      </trkpt>
      <trkpt lat="46.19345" lon="6.22859">
        <ele>478.1</ele>
        <time>2020-10-08T11:52:03Z</time>
      </trkpt>
      <trkpt lat="46.19365" lon="6.22866">
        <ele>478.09</ele>
        <time>2020-10-08T11:52:09Z</time>
      </trkpt>
      <trkpt lat="46.19377" lon="6.22842">
        <ele>478.09</ele>
        <time>2020-10-08T11:52:27Z</time>
      </trkpt>
      <trkpt lat="46.19395" lon="6.22829">
        <ele>478.49</ele>
        <time>2020-10-08T11:52:32Z</time>
      </trkpt>
      <trkpt lat="46.19413" lon="6.22818">
        <ele>479.06</ele>
        <time>2020-10-08T11:52:37Z</time>
      </trkpt>
      <trkpt lat="46.19432" lon="6.22805">
        <ele>477.29</ele>
        <time>2020-10-08T11:53:24Z</time>
      </trkpt>
      <trkpt lat="46.19453" lon="6.22795">
        <ele>477.12</ele>
        <time>2020-10-08T11:53:29Z</time>
      </trkpt>
      <trkpt lat="46.19473" lon="6.22783">
        <ele>477.1</ele>
        <time>2020-10-08T11:53:33Z</time>
      </trkpt>
      <trkpt lat="46.19491" lon="6.22773">
        <ele>477.03</ele>
        <time>2020-10-08T11:53:38Z</time>
      </trkpt>
      <trkpt lat="46.1951" lon="6.22765">
        <ele>477</ele>
        <time>2020-10-08T11:53:43Z</time>
      </trkpt>
      <trkpt lat="46.1953" lon="6.2276">
        <ele>476.9</ele>
        <time>2020-10-08T11:53:47Z</time>
      </trkpt>
      <trkpt lat="46.19551" lon="6.22756">
        <ele>476.9</ele>
        <time>2020-10-08T11:53:51Z</time>
      </trkpt>
      <trkpt lat="46.19569" lon="6.22755">
        <ele>476.91</ele>
        <time>2020-10-08T11:53:55Z</time>
      </trkpt>
      <trkpt lat="46.19592" lon="6.22756">
        <ele>476.79</ele>
        <time>2020-10-08T11:54:00Z</time>
      </trkpt>
      <trkpt lat="46.19614" lon="6.22758">
        <ele>476.74</ele>
        <time>2020-10-08T11:54:04Z</time>
      </trkpt>
      <trkpt lat="46.19635" lon="6.22765">
        <ele>476.65</ele>
        <time>2020-10-08T11:54:08Z</time>
      </trkpt>
      <trkpt lat="46.19646" lon="6.2279">
        <ele>476.53</ele>
        <time>2020-10-08T11:54:13Z</time>
      </trkpt>
      <trkpt lat="46.19657" lon="6.22813">
        <ele>476.65</ele>
        <time>2020-10-08T11:54:17Z</time>
      </trkpt>
      <trkpt lat="46.19673" lon="6.22839">
        <ele>477.03</ele>
        <time>2020-10-08T11:54:21Z</time>
      </trkpt>
      <trkpt lat="46.19687" lon="6.22862">
        <ele>477.03</ele>
        <time>2020-10-08T11:54:25Z</time>
      </trkpt>
      <trkpt lat="46.197" lon="6.22886">
        <ele>477.03</ele>
        <time>2020-10-08T11:54:29Z</time>
      </trkpt>
      <trkpt lat="46.19714" lon="6.22912">
        <ele>477.03</ele>
        <time>2020-10-08T11:54:33Z</time>
      </trkpt>
      <trkpt lat="46.19725" lon="6.22933">
        <ele>477.03</ele>
        <time>2020-10-08T11:54:36Z</time>
      </trkpt>
      <trkpt lat="46.19737" lon="6.22955">
        <ele>477.03</ele>
        <time>2020-10-08T11:54:39Z</time>
      </trkpt>
      <trkpt lat="46.19751" lon="6.22981">
        <ele>477.03</ele>
        <time>2020-10-08T11:54:43Z</time>
      </trkpt>
      <trkpt lat="46.19763" lon="6.23002">
        <ele>477.03</ele>
        <time>2020-10-08T11:54:47Z</time>
      </trkpt>
      <trkpt lat="46.19776" lon="6.23027">
        <ele>477.03</ele>
        <time>2020-10-08T11:54:52Z</time>
      </trkpt>
      <trkpt lat="46.19788" lon="6.23048">
        <ele>477.03</ele>
        <time>2020-10-08T11:54:56Z</time>
      </trkpt>
      <trkpt lat="46.19801" lon="6.23072">
        <ele>477.03</ele>
        <time>2020-10-08T11:55:00Z</time>
      </trkpt>
      <trkpt lat="46.19815" lon="6.23098">
        <ele>477.03</ele>
        <time>2020-10-08T11:55:04Z</time>
      </trkpt>
      <trkpt lat="46.19827" lon="6.23123">
        <ele>477.03</ele>
        <time>2020-10-08T11:55:08Z</time>
      </trkpt>
      <trkpt lat="46.19835" lon="6.23152">
        <ele>477.03</ele>
        <time>2020-10-08T11:55:13Z</time>
      </trkpt>
      <trkpt lat="46.19842" lon="6.23181">
        <ele>477.03</ele>
        <time>2020-10-08T11:55:18Z</time>
      </trkpt>
      <trkpt lat="46.19849" lon="6.2321">
        <ele>480.73</ele>
        <time>2020-10-08T11:55:22Z</time>
      </trkpt>
      <trkpt lat="46.19855" lon="6.23234">
        <ele>480.94</ele>
        <time>2020-10-08T11:55:25Z</time>
      </trkpt>
      <trkpt lat="46.19862" lon="6.2326">
        <ele>480.95</ele>
        <time>2020-10-08T11:55:28Z</time>
      </trkpt>
      <trkpt lat="46.19869" lon="6.23286">
        <ele>481.16</ele>
        <time>2020-10-08T11:55:31Z</time>
      </trkpt>
      <trkpt lat="46.19877" lon="6.23318">
        <ele>481.31</ele>
        <time>2020-10-08T11:55:35Z</time>
      </trkpt>
      <trkpt lat="46.19885" lon="6.23346">
        <ele>481.41</ele>
        <time>2020-10-08T11:55:39Z</time>
      </trkpt>
      <trkpt lat="46.19895" lon="6.23373">
        <ele>481.54</ele>
        <time>2020-10-08T11:55:43Z</time>
      </trkpt>
      <trkpt lat="46.19908" lon="6.234">
        <ele>481.56</ele>
        <time>2020-10-08T11:55:47Z</time>
      </trkpt>
      <trkpt lat="46.19917" lon="6.23425">
        <ele>481.51</ele>
        <time>2020-10-08T11:55:50Z</time>
      </trkpt>
      <trkpt lat="46.19926" lon="6.2345">
        <ele>481.37</ele>
        <time>2020-10-08T11:55:53Z</time>
      </trkpt>
      <trkpt lat="46.19935" lon="6.23472">
        <ele>481.24</ele>
        <time>2020-10-08T11:55:56Z</time>
      </trkpt>
      <trkpt lat="46.19945" lon="6.23499">
        <ele>480.94</ele>
        <time>2020-10-08T11:56:00Z</time>
      </trkpt>
      <trkpt lat="46.19956" lon="6.23522">
        <ele>480.8</ele>
        <time>2020-10-08T11:56:04Z</time>
      </trkpt>
      <trkpt lat="46.19966" lon="6.23546">
        <ele>480.82</ele>
        <time>2020-10-08T11:56:08Z</time>
      </trkpt>
      <trkpt lat="46.1998" lon="6.23569">
        <ele>480.96</ele>
        <time>2020-10-08T11:56:12Z</time>
      </trkpt>
      <trkpt lat="46.19992" lon="6.2359">
        <ele>481.09</ele>
        <time>2020-10-08T11:56:16Z</time>
      </trkpt>
      <trkpt lat="46.20005" lon="6.23612">
        <ele>481.36</ele>
        <time>2020-10-08T11:56:22Z</time>
      </trkpt>
      <trkpt lat="46.20013" lon="6.23623">
        <ele>481.42</ele>
        <time>2020-10-08T11:56:44Z</time>
      </trkpt>
      <trkpt lat="46.20002" lon="6.236">
        <ele>481.71</ele>
        <time>2020-10-08T11:56:52Z</time>
      </trkpt>
      <trkpt lat="46.20006" lon="6.23582">
        <ele>481.75</ele>
        <time>2020-10-08T11:56:59Z</time>
      </trkpt>
      <trkpt lat="46.20023" lon="6.23574">
        <ele>481.44</ele>
        <time>2020-10-08T11:57:05Z</time>
      </trkpt>
      <trkpt lat="46.20039" lon="6.23559">
        <ele>481.37</ele>
        <time>2020-10-08T11:57:09Z</time>
      </trkpt>
      <trkpt lat="46.20056" lon="6.23547">
        <ele>481.51</ele>
        <time>2020-10-08T11:57:14Z</time>
      </trkpt>
      <trkpt lat="46.20047" lon="6.23567">
        <ele>481.18</ele>
        <time>2020-10-08T11:57:21Z</time>
      </trkpt>
      <trkpt lat="46.2003" lon="6.23585">
        <ele>480.64</ele>
        <time>2020-10-08T11:57:26Z</time>
      </trkpt>
      <trkpt lat="46.20014" lon="6.23603">
        <ele>480.11</ele>
        <time>2020-10-08T11:57:30Z</time>
      </trkpt>
      <trkpt lat="46.19998" lon="6.2362">
        <ele>479.39</ele>
        <time>2020-10-08T11:57:34Z</time>
      </trkpt>
      <trkpt lat="46.19985" lon="6.23629">
        <ele>478.75</ele>
        <time>2020-10-08T11:57:42Z</time>
      </trkpt>
      <trkpt lat="46.19971" lon="6.23672">
        <ele>478.72</ele>
        <time>2020-10-08T11:57:52Z</time>
      </trkpt>
      <trkpt lat="46.19942" lon="6.23687">
        <ele>478.47</ele>
        <time>2020-10-08T11:58:09Z</time>
      </trkpt>
      <trkpt lat="46.19948" lon="6.23685">
        <ele>478.52</ele>
        <time>2020-10-08T11:58:18Z</time>
      </trkpt>
      <trkpt lat="46.19948" lon="6.23685">
        <ele>478.54</ele>
        <time>2020-10-08T11:58:21Z</time>
      </trkpt>
      <trkpt lat="46.19948" lon="6.23684">
        <ele>478.71</ele>
        <time>2020-10-08T11:58:34Z</time>
      </trkpt>
      <trkpt lat="46.19962" lon="6.23686">
        <ele>478.86</ele>
        <time>2020-10-08T11:59:19Z</time>
      </trkpt>
      <trkpt lat="46.19971" lon="6.23683">
        <ele>478.97</ele>
        <time>2020-10-08T11:59:24Z</time>
      </trkpt>
      <trkpt lat="46.19983" lon="6.23666">
        <ele>478.97</ele>
        <time>2020-10-08T11:59:31Z</time>
      </trkpt>
      <trkpt lat="46.19983" lon="6.23666">
        <ele>478.97</ele>
        <time>2020-10-08T11:59:55Z</time>
      </trkpt>
      <trkpt lat="46.20019" lon="6.236">
        <ele>478.97</ele>
        <time>2020-10-08T12:00:13Z</time>
      </trkpt>
      <trkpt lat="46.20034" lon="6.23581">
        <ele>478.97</ele>
        <time>2020-10-08T12:00:18Z</time>
      </trkpt>
      <trkpt lat="46.20048" lon="6.23563">
        <ele>478.97</ele>
        <time>2020-10-08T12:01:10Z</time>
      </trkpt>
      <trkpt lat="46.20064" lon="6.23545">
        <ele>478.97</ele>
        <time>2020-10-08T12:01:15Z</time>
      </trkpt>
      <trkpt lat="46.20081" lon="6.23529">
        <ele>478.97</ele>
        <time>2020-10-08T12:01:20Z</time>
      </trkpt>
      <trkpt lat="46.20099" lon="6.23534">
        <ele>482</ele>
        <time>2020-10-08T12:01:27Z</time>
      </trkpt>
      <trkpt lat="46.20114" lon="6.23554">
        <ele>482.07</ele>
        <time>2020-10-08T12:01:32Z</time>
      </trkpt>
      <trkpt lat="46.20126" lon="6.23576">
        <ele>482.14</ele>
        <time>2020-10-08T12:01:37Z</time>
      </trkpt>
      <trkpt lat="46.20141" lon="6.236">
        <ele>482.19</ele>
        <time>2020-10-08T12:01:43Z</time>
      </trkpt>
      <trkpt lat="46.20153" lon="6.2362">
        <ele>482.17</ele>
        <time>2020-10-08T12:01:47Z</time>
      </trkpt>
      <trkpt lat="46.20168" lon="6.23644">
        <ele>482.22</ele>
        <time>2020-10-08T12:01:51Z</time>
      </trkpt>
      <trkpt lat="46.20182" lon="6.23667">
        <ele>482.4</ele>
        <time>2020-10-08T12:01:55Z</time>
      </trkpt>
      <trkpt lat="46.20194" lon="6.23689">
        <ele>482.49</ele>
        <time>2020-10-08T12:01:59Z</time>
      </trkpt>
      <trkpt lat="46.20209" lon="6.23714">
        <ele>482.62</ele>
        <time>2020-10-08T12:02:03Z</time>
      </trkpt>
      <trkpt lat="46.20222" lon="6.23735">
        <ele>482.76</ele>
        <time>2020-10-08T12:02:06Z</time>
      </trkpt>
      <trkpt lat="46.20234" lon="6.23756">
        <ele>482.89</ele>
        <time>2020-10-08T12:02:09Z</time>
      </trkpt>
      <trkpt lat="46.20247" lon="6.23779">
        <ele>483.24</ele>
        <time>2020-10-08T12:02:13Z</time>
      </trkpt>
      <trkpt lat="46.20259" lon="6.23801">
        <ele>483.41</ele>
        <time>2020-10-08T12:02:17Z</time>
      </trkpt>
      <trkpt lat="46.20272" lon="6.23824">
        <ele>483.49</ele>
        <time>2020-10-08T12:02:21Z</time>
      </trkpt>
      <trkpt lat="46.20284" lon="6.23845">
        <ele>483.58</ele>
        <time>2020-10-08T12:02:24Z</time>
      </trkpt>
      <trkpt lat="46.20295" lon="6.23866">
        <ele>483.8</ele>
        <time>2020-10-08T12:02:27Z</time>
      </trkpt>
      <trkpt lat="46.20309" lon="6.2389">
        <ele>483.93</ele>
        <time>2020-10-08T12:02:31Z</time>
      </trkpt>
      <trkpt lat="46.20327" lon="6.23914">
        <ele>483.99</ele>
        <time>2020-10-08T12:02:35Z</time>
      </trkpt>
      <trkpt lat="46.20342" lon="6.23935">
        <ele>484</ele>
        <time>2020-10-08T12:02:38Z</time>
      </trkpt>
      <trkpt lat="46.20357" lon="6.23956">
        <ele>484.07</ele>
        <time>2020-10-08T12:02:41Z</time>
      </trkpt>
      <trkpt lat="46.20371" lon="6.23975">
        <ele>484.14</ele>
        <time>2020-10-08T12:02:44Z</time>
      </trkpt>
      <trkpt lat="46.20386" lon="6.24">
        <ele>484.14</ele>
        <time>2020-10-08T12:02:48Z</time>
      </trkpt>
      <trkpt lat="46.20397" lon="6.24023">
        <ele>484.16</ele>
        <time>2020-10-08T12:02:52Z</time>
      </trkpt>
      <trkpt lat="46.20406" lon="6.24049">
        <ele>484.29</ele>
        <time>2020-10-08T12:02:57Z</time>
      </trkpt>
      <trkpt lat="46.20412" lon="6.24078">
        <ele>484.34</ele>
        <time>2020-10-08T12:03:02Z</time>
      </trkpt>
      <trkpt lat="46.20423" lon="6.24105">
        <ele>484.42</ele>
        <time>2020-10-08T12:03:06Z</time>
      </trkpt>
      <trkpt lat="46.20421" lon="6.24134">
        <ele>484.54</ele>
        <time>2020-10-08T12:03:10Z</time>
      </trkpt>
      <trkpt lat="46.20416" lon="6.24164">
        <ele>485.02</ele>
        <time>2020-10-08T12:03:14Z</time>
      </trkpt>
      <trkpt lat="46.20413" lon="6.24195">
        <ele>485.45</ele>
        <time>2020-10-08T12:03:18Z</time>
      </trkpt>
      <trkpt lat="46.20411" lon="6.24224">
        <ele>485.96</ele>
        <time>2020-10-08T12:03:22Z</time>
      </trkpt>
      <trkpt lat="46.20409" lon="6.24254">
        <ele>486.79</ele>
        <time>2020-10-08T12:03:26Z</time>
      </trkpt>
      <trkpt lat="46.20407" lon="6.24284">
        <ele>487.64</ele>
        <time>2020-10-08T12:03:30Z</time>
      </trkpt>
      <trkpt lat="46.20405" lon="6.24313">
        <ele>488.71</ele>
        <time>2020-10-08T12:03:35Z</time>
      </trkpt>
      <trkpt lat="46.20403" lon="6.24342">
        <ele>489.32</ele>
        <time>2020-10-08T12:03:40Z</time>
      </trkpt>
      <trkpt lat="46.20402" lon="6.24374">
        <ele>490.06</ele>
        <time>2020-10-08T12:03:45Z</time>
      </trkpt>
      <trkpt lat="46.20399" lon="6.24404">
        <ele>490.95</ele>
        <time>2020-10-08T12:03:50Z</time>
      </trkpt>
      <trkpt lat="46.20388" lon="6.24429">
        <ele>492.3</ele>
        <time>2020-10-08T12:03:57Z</time>
      </trkpt>
      <trkpt lat="46.20375" lon="6.24448">
        <ele>492.92</ele>
        <time>2020-10-08T12:04:02Z</time>
      </trkpt>
      <trkpt lat="46.20366" lon="6.24474">
        <ele>492.94</ele>
        <time>2020-10-08T12:04:08Z</time>
      </trkpt>
      <trkpt lat="46.20368" lon="6.24503">
        <ele>492.39</ele>
        <time>2020-10-08T12:04:12Z</time>
      </trkpt>
      <trkpt lat="46.20374" lon="6.24536">
        <ele>491.72</ele>
        <time>2020-10-08T12:04:16Z</time>
      </trkpt>
      <trkpt lat="46.20377" lon="6.24565">
        <ele>491.05</ele>
        <time>2020-10-08T12:04:19Z</time>
      </trkpt>
      <trkpt lat="46.20373" lon="6.24595">
        <ele>490.34</ele>
        <time>2020-10-08T12:04:22Z</time>
      </trkpt>
      <trkpt lat="46.20366" lon="6.24623">
        <ele>489.67</ele>
        <time>2020-10-08T12:04:25Z</time>
      </trkpt>
      <trkpt lat="46.20356" lon="6.24647">
        <ele>489.18</ele>
        <time>2020-10-08T12:04:28Z</time>
      </trkpt>
      <trkpt lat="46.20345" lon="6.24675">
        <ele>488.57</ele>
        <time>2020-10-08T12:04:32Z</time>
      </trkpt>
      <trkpt lat="46.20332" lon="6.24692">
        <ele>488.57</ele>
        <time>2020-10-08T12:04:38Z</time>
      </trkpt>
      <trkpt lat="46.20329" lon="6.24716">
        <ele>488.57</ele>
        <time>2020-10-08T12:04:59Z</time>
      </trkpt>
      <trkpt lat="46.20323" lon="6.24743">
        <ele>488.57</ele>
        <time>2020-10-08T12:05:09Z</time>
      </trkpt>
      <trkpt lat="46.20316" lon="6.24769">
        <ele>488.57</ele>
        <time>2020-10-08T12:05:14Z</time>
      </trkpt>
      <trkpt lat="46.20309" lon="6.24796">
        <ele>488.57</ele>
        <time>2020-10-08T12:05:19Z</time>
      </trkpt>
      <trkpt lat="46.20303" lon="6.24823">
        <ele>488.57</ele>
        <time>2020-10-08T12:05:24Z</time>
      </trkpt>
      <trkpt lat="46.20298" lon="6.24852">
        <ele>488.57</ele>
        <time>2020-10-08T12:05:29Z</time>
      </trkpt>
      <trkpt lat="46.20288" lon="6.24878">
        <ele>488.57</ele>
        <time>2020-10-08T12:05:34Z</time>
      </trkpt>
      <trkpt lat="46.20277" lon="6.24901">
        <ele>488.57</ele>
        <time>2020-10-08T12:05:41Z</time>
      </trkpt>
      <trkpt lat="46.20281" lon="6.24927">
        <ele>488.57</ele>
        <time>2020-10-08T12:05:48Z</time>
      </trkpt>
      <trkpt lat="46.20286" lon="6.24957">
        <ele>488.57</ele>
        <time>2020-10-08T12:05:54Z</time>
      </trkpt>
      <trkpt lat="46.20284" lon="6.24985">
        <ele>488.57</ele>
        <time>2020-10-08T12:05:59Z</time>
      </trkpt>
      <trkpt lat="46.20283" lon="6.25011">
        <ele>488.57</ele>
        <time>2020-10-08T12:06:05Z</time>
      </trkpt>
      <trkpt lat="46.20282" lon="6.25038">
        <ele>488.57</ele>
        <time>2020-10-08T12:06:10Z</time>
      </trkpt>
      <trkpt lat="46.20281" lon="6.25066">
        <ele>488.57</ele>
        <time>2020-10-08T12:06:16Z</time>
      </trkpt>
      <trkpt lat="46.20281" lon="6.25095">
        <ele>488.57</ele>
        <time>2020-10-08T12:06:22Z</time>
      </trkpt>
      <trkpt lat="46.2028" lon="6.25126">
        <ele>488.57</ele>
        <time>2020-10-08T12:06:28Z</time>
      </trkpt>
      <trkpt lat="46.20278" lon="6.25155">
        <ele>494.59</ele>
        <time>2020-10-08T12:06:34Z</time>
      </trkpt>
      <trkpt lat="46.20277" lon="6.25181">
        <ele>494.64</ele>
        <time>2020-10-08T12:06:39Z</time>
      </trkpt>
      <trkpt lat="46.20275" lon="6.25212">
        <ele>494.9</ele>
        <time>2020-10-08T12:06:44Z</time>
      </trkpt>
      <trkpt lat="46.20292" lon="6.2523">
        <ele>495.43</ele>
        <time>2020-10-08T12:06:48Z</time>
      </trkpt>
      <trkpt lat="46.20313" lon="6.2523">
        <ele>495.87</ele>
        <time>2020-10-08T12:06:52Z</time>
      </trkpt>
      <trkpt lat="46.20333" lon="6.25239">
        <ele>495.76</ele>
        <time>2020-10-08T12:06:57Z</time>
      </trkpt>
      <trkpt lat="46.2035" lon="6.25248">
        <ele>495.28</ele>
        <time>2020-10-08T12:07:01Z</time>
      </trkpt>
      <trkpt lat="46.20369" lon="6.25254">
        <ele>494.93</ele>
        <time>2020-10-08T12:07:05Z</time>
      </trkpt>
      <trkpt lat="46.20385" lon="6.25267">
        <ele>494.46</ele>
        <time>2020-10-08T12:07:09Z</time>
      </trkpt>
      <trkpt lat="46.204" lon="6.25283">
        <ele>493</ele>
        <time>2020-10-08T12:07:29Z</time>
      </trkpt>
      <trkpt lat="46.2041" lon="6.25307">
        <ele>492.9</ele>
        <time>2020-10-08T12:07:34Z</time>
      </trkpt>
      <trkpt lat="46.20427" lon="6.25322">
        <ele>493.14</ele>
        <time>2020-10-08T12:07:39Z</time>
      </trkpt>
      <trkpt lat="46.20449" lon="6.25327">
        <ele>493.72</ele>
        <time>2020-10-08T12:07:44Z</time>
      </trkpt>
      <trkpt lat="46.20472" lon="6.25329">
        <ele>493.94</ele>
        <time>2020-10-08T12:07:50Z</time>
      </trkpt>
      <trkpt lat="46.20495" lon="6.25337">
        <ele>493.76</ele>
        <time>2020-10-08T12:07:56Z</time>
      </trkpt>
      <trkpt lat="46.20512" lon="6.25355">
        <ele>493.69</ele>
        <time>2020-10-08T12:08:03Z</time>
      </trkpt>
      <trkpt lat="46.20525" lon="6.25383">
        <ele>493.67</ele>
        <time>2020-10-08T12:08:08Z</time>
      </trkpt>
      <trkpt lat="46.20549" lon="6.2539">
        <ele>493.69</ele>
        <time>2020-10-08T12:08:12Z</time>
      </trkpt>
      <trkpt lat="46.20571" lon="6.25392">
        <ele>493.92</ele>
        <time>2020-10-08T12:08:16Z</time>
      </trkpt>
      <trkpt lat="46.20592" lon="6.25399">
        <ele>494</ele>
        <time>2020-10-08T12:08:21Z</time>
      </trkpt>
      <trkpt lat="46.2061" lon="6.25413">
        <ele>493.92</ele>
        <time>2020-10-08T12:08:26Z</time>
      </trkpt>
      <trkpt lat="46.2063" lon="6.25431">
        <ele>493.95</ele>
        <time>2020-10-08T12:08:31Z</time>
      </trkpt>
      <trkpt lat="46.20643" lon="6.25451">
        <ele>494.06</ele>
        <time>2020-10-08T12:08:35Z</time>
      </trkpt>
      <trkpt lat="46.20654" lon="6.25473">
        <ele>494.17</ele>
        <time>2020-10-08T12:08:41Z</time>
      </trkpt>
      <trkpt lat="46.20671" lon="6.25488">
        <ele>494.33</ele>
        <time>2020-10-08T12:08:47Z</time>
      </trkpt>
      <trkpt lat="46.20689" lon="6.25496">
        <ele>494.51</ele>
        <time>2020-10-08T12:08:52Z</time>
      </trkpt>
      <trkpt lat="46.20708" lon="6.25507">
        <ele>494.37</ele>
        <time>2020-10-08T12:08:58Z</time>
      </trkpt>
      <trkpt lat="46.20722" lon="6.25528">
        <ele>494.29</ele>
        <time>2020-10-08T12:09:05Z</time>
      </trkpt>
      <trkpt lat="46.20735" lon="6.25553">
        <ele>494.25</ele>
        <time>2020-10-08T12:09:10Z</time>
      </trkpt>
      <trkpt lat="46.20749" lon="6.25583">
        <ele>494.21</ele>
        <time>2020-10-08T12:09:15Z</time>
      </trkpt>
      <trkpt lat="46.20762" lon="6.25612">
        <ele>494.13</ele>
        <time>2020-10-08T12:09:20Z</time>
      </trkpt>
      <trkpt lat="46.20775" lon="6.25641">
        <ele>494.14</ele>
        <time>2020-10-08T12:09:25Z</time>
      </trkpt>
      <trkpt lat="46.20785" lon="6.25664">
        <ele>494.29</ele>
        <time>2020-10-08T12:09:29Z</time>
      </trkpt>
      <trkpt lat="46.20794" lon="6.25689">
        <ele>494.53</ele>
        <time>2020-10-08T12:09:33Z</time>
      </trkpt>
      <trkpt lat="46.20805" lon="6.25714">
        <ele>494.72</ele>
        <time>2020-10-08T12:09:39Z</time>
      </trkpt>
      <trkpt lat="46.20816" lon="6.2574">
        <ele>494.74</ele>
        <time>2020-10-08T12:09:47Z</time>
      </trkpt>
      <trkpt lat="46.20829" lon="6.25761">
        <ele>494.74</ele>
        <time>2020-10-08T12:09:55Z</time>
      </trkpt>
      <trkpt lat="46.20841" lon="6.25793">
        <ele>495</ele>
        <time>2020-10-08T12:10:01Z</time>
      </trkpt>
      <trkpt lat="46.20852" lon="6.2582">
        <ele>495.17</ele>
        <time>2020-10-08T12:10:05Z</time>
      </trkpt>
      <trkpt lat="46.20864" lon="6.25848">
        <ele>495.33</ele>
        <time>2020-10-08T12:10:09Z</time>
      </trkpt>
      <trkpt lat="46.20873" lon="6.25876">
        <ele>495.55</ele>
        <time>2020-10-08T12:10:14Z</time>
      </trkpt>
      <trkpt lat="46.20881" lon="6.25906">
        <ele>495.53</ele>
        <time>2020-10-08T12:10:20Z</time>
      </trkpt>
      <trkpt lat="46.20885" lon="6.25937">
        <ele>495.53</ele>
        <time>2020-10-08T12:10:25Z</time>
      </trkpt>
      <trkpt lat="46.2089" lon="6.25968">
        <ele>495.73</ele>
        <time>2020-10-08T12:10:29Z</time>
      </trkpt>
      <trkpt lat="46.20895" lon="6.26001">
        <ele>495.87</ele>
        <time>2020-10-08T12:10:33Z</time>
      </trkpt>
      <trkpt lat="46.20897" lon="6.26028">
        <ele>496.34</ele>
        <time>2020-10-08T12:10:37Z</time>
      </trkpt>
      <trkpt lat="46.20896" lon="6.2606">
        <ele>496.7</ele>
        <time>2020-10-08T12:10:43Z</time>
      </trkpt>
      <trkpt lat="46.20895" lon="6.26089">
        <ele>496.99</ele>
        <time>2020-10-08T12:10:48Z</time>
      </trkpt>
      <trkpt lat="46.20895" lon="6.26121">
        <ele>497.38</ele>
        <time>2020-10-08T12:10:53Z</time>
      </trkpt>
      <trkpt lat="46.20892" lon="6.26148">
        <ele>497.9</ele>
        <time>2020-10-08T12:11:00Z</time>
      </trkpt>
      <trkpt lat="46.20889" lon="6.26174">
        <ele>497.95</ele>
        <time>2020-10-08T12:11:07Z</time>
      </trkpt>
      <trkpt lat="46.20889" lon="6.26202">
        <ele>498.02</ele>
        <time>2020-10-08T12:11:13Z</time>
      </trkpt>
      <trkpt lat="46.20898" lon="6.26223">
        <ele>498.52</ele>
        <time>2020-10-08T12:11:20Z</time>
      </trkpt>
      <trkpt lat="46.20917" lon="6.26227">
        <ele>498.76</ele>
        <time>2020-10-08T12:11:25Z</time>
      </trkpt>
      <trkpt lat="46.20935" lon="6.26229">
        <ele>499.04</ele>
        <time>2020-10-08T12:11:30Z</time>
      </trkpt>
      <trkpt lat="46.20953" lon="6.26232">
        <ele>500.25</ele>
        <time>2020-10-08T12:11:37Z</time>
      </trkpt>
      <trkpt lat="46.20963" lon="6.26254">
        <ele>501.27</ele>
        <time>2020-10-08T12:11:45Z</time>
      </trkpt>
      <trkpt lat="46.2097" lon="6.26283">
        <ele>502.67</ele>
        <time>2020-10-08T12:11:52Z</time>
      </trkpt>
      <trkpt lat="46.20976" lon="6.2631">
        <ele>504.48</ele>
        <time>2020-10-08T12:11:59Z</time>
      </trkpt>
      <trkpt lat="46.20982" lon="6.26336">
        <ele>506.46</ele>
        <time>2020-10-08T12:12:06Z</time>
      </trkpt>
      <trkpt lat="46.20991" lon="6.26361">
        <ele>508.99</ele>
        <time>2020-10-08T12:12:14Z</time>
      </trkpt>
      <trkpt lat="46.21003" lon="6.2638">
        <ele>512.01</ele>
        <time>2020-10-08T12:12:24Z</time>
      </trkpt>
      <trkpt lat="46.2102" lon="6.26392">
        <ele>514.73</ele>
        <time>2020-10-08T12:12:33Z</time>
      </trkpt>
      <trkpt lat="46.21037" lon="6.26381">
        <ele>517.02</ele>
        <time>2020-10-08T12:12:41Z</time>
      </trkpt>
      <trkpt lat="46.21052" lon="6.26366">
        <ele>518.52</ele>
        <time>2020-10-08T12:12:49Z</time>
      </trkpt>
      <trkpt lat="46.21069" lon="6.26377">
        <ele>519.72</ele>
        <time>2020-10-08T12:12:56Z</time>
      </trkpt>
      <trkpt lat="46.2108" lon="6.26401">
        <ele>520.5</ele>
        <time>2020-10-08T12:13:03Z</time>
      </trkpt>
      <trkpt lat="46.21084" lon="6.26422">
        <ele>521.24</ele>
        <time>2020-10-08T12:13:11Z</time>
      </trkpt>
      <trkpt lat="46.2107" lon="6.26441">
        <ele>521.28</ele>
        <time>2020-10-08T12:13:17Z</time>
      </trkpt>
      <trkpt lat="46.21057" lon="6.2646">
        <ele>521.09</ele>
        <time>2020-10-08T12:13:22Z</time>
      </trkpt>
      <trkpt lat="46.21058" lon="6.26487">
        <ele>520.69</ele>
        <time>2020-10-08T12:13:27Z</time>
      </trkpt>
      <trkpt lat="46.21063" lon="6.26512">
        <ele>520.33</ele>
        <time>2020-10-08T12:13:31Z</time>
      </trkpt>
      <trkpt lat="46.21073" lon="6.26545">
        <ele>519.7</ele>
        <time>2020-10-08T12:13:35Z</time>
      </trkpt>
      <trkpt lat="46.21086" lon="6.2657">
        <ele>517.17</ele>
        <time>2020-10-08T12:13:38Z</time>
      </trkpt>
      <trkpt lat="46.21103" lon="6.26595">
        <ele>517.17</ele>
        <time>2020-10-08T12:13:41Z</time>
      </trkpt>
      <trkpt lat="46.21121" lon="6.26619">
        <ele>517.17</ele>
        <time>2020-10-08T12:13:44Z</time>
      </trkpt>
      <trkpt lat="46.21139" lon="6.2664">
        <ele>517.17</ele>
        <time>2020-10-08T12:13:47Z</time>
      </trkpt>
      <trkpt lat="46.21156" lon="6.26652">
        <ele>517.17</ele>
        <time>2020-10-08T12:13:50Z</time>
      </trkpt>
      <trkpt lat="46.21177" lon="6.26666">
        <ele>517.17</ele>
        <time>2020-10-08T12:13:54Z</time>
      </trkpt>
      <trkpt lat="46.21193" lon="6.2668">
        <ele>517.17</ele>
        <time>2020-10-08T12:13:58Z</time>
      </trkpt>
      <trkpt lat="46.21208" lon="6.26704">
        <ele>517.17</ele>
        <time>2020-10-08T12:14:04Z</time>
      </trkpt>
      <trkpt lat="46.21222" lon="6.26727">
        <ele>517.17</ele>
        <time>2020-10-08T12:14:11Z</time>
      </trkpt>
      <trkpt lat="46.21233" lon="6.26755">
        <ele>517.17</ele>
        <time>2020-10-08T12:14:17Z</time>
      </trkpt>
      <trkpt lat="46.21244" lon="6.26778">
        <ele>517.17</ele>
        <time>2020-10-08T12:14:22Z</time>
      </trkpt>
      <trkpt lat="46.21257" lon="6.26806">
        <ele>517.17</ele>
        <time>2020-10-08T12:14:30Z</time>
      </trkpt>
      <trkpt lat="46.21254" lon="6.26831">
        <ele>517.17</ele>
        <time>2020-10-08T12:14:36Z</time>
      </trkpt>
      <trkpt lat="46.2124" lon="6.26848">
        <ele>513.59</ele>
        <time>2020-10-08T12:15:18Z</time>
      </trkpt>
      <trkpt lat="46.21227" lon="6.26867">
        <ele>513.61</ele>
        <time>2020-10-08T12:15:22Z</time>
      </trkpt>
      <trkpt lat="46.21219" lon="6.26892">
        <ele>513.3</ele>
        <time>2020-10-08T12:15:25Z</time>
      </trkpt>
      <trkpt lat="46.21218" lon="6.26924">
        <ele>512.68</ele>
        <time>2020-10-08T12:15:28Z</time>
      </trkpt>
      <trkpt lat="46.21218" lon="6.26955">
        <ele>511.71</ele>
        <time>2020-10-08T12:15:31Z</time>
      </trkpt>
      <trkpt lat="46.21216" lon="6.26986">
        <ele>510.14</ele>
        <time>2020-10-08T12:15:35Z</time>
      </trkpt>
      <trkpt lat="46.21208" lon="6.27014">
        <ele>508.78</ele>
        <time>2020-10-08T12:15:39Z</time>
      </trkpt>
      <trkpt lat="46.21199" lon="6.27038">
        <ele>507.42</ele>
        <time>2020-10-08T12:15:45Z</time>
      </trkpt>
      <trkpt lat="46.21209" lon="6.27064">
        <ele>506.94</ele>
        <time>2020-10-08T12:15:51Z</time>
      </trkpt>
      <trkpt lat="46.2122" lon="6.27087">
        <ele>507.31</ele>
        <time>2020-10-08T12:15:59Z</time>
      </trkpt>
      <trkpt lat="46.21233" lon="6.27106">
        <ele>508.42</ele>
        <time>2020-10-08T12:16:08Z</time>
      </trkpt>
      <trkpt lat="46.21248" lon="6.27124">
        <ele>510.51</ele>
        <time>2020-10-08T12:16:17Z</time>
      </trkpt>
      <trkpt lat="46.21266" lon="6.27131">
        <ele>512.96</ele>
        <time>2020-10-08T12:16:26Z</time>
      </trkpt>
      <trkpt lat="46.21284" lon="6.27136">
        <ele>515.2</ele>
        <time>2020-10-08T12:16:35Z</time>
      </trkpt>
      <trkpt lat="46.21294" lon="6.27157">
        <ele>517.45</ele>
        <time>2020-10-08T12:16:43Z</time>
      </trkpt>
      <trkpt lat="46.21294" lon="6.27181">
        <ele>519.4</ele>
        <time>2020-10-08T12:16:53Z</time>
      </trkpt>
      <trkpt lat="46.21299" lon="6.27191">
        <ele>520.87</ele>
        <time>2020-10-08T12:22:01Z</time>
      </trkpt>
      <trkpt lat="46.21309" lon="6.27214">
        <ele>520.87</ele>
        <time>2020-10-08T12:22:10Z</time>
      </trkpt>
      <trkpt lat="46.21324" lon="6.27232">
        <ele>520.87</ele>
        <time>2020-10-08T12:22:18Z</time>
      </trkpt>
      <trkpt lat="46.21335" lon="6.27252">
        <ele>520.87</ele>
        <time>2020-10-08T12:22:26Z</time>
      </trkpt>
      <trkpt lat="46.21347" lon="6.27276">
        <ele>520.87</ele>
        <time>2020-10-08T12:22:35Z</time>
      </trkpt>
      <trkpt lat="46.21352" lon="6.27305">
        <ele>520.87</ele>
        <time>2020-10-08T12:22:43Z</time>
      </trkpt>
      <trkpt lat="46.21354" lon="6.2733">
        <ele>532.66</ele>
        <time>2020-10-08T12:22:51Z</time>
      </trkpt>
      <trkpt lat="46.21355" lon="6.27359">
        <ele>533.45</ele>
        <time>2020-10-08T12:23:01Z</time>
      </trkpt>
      <trkpt lat="46.21354" lon="6.27385">
        <ele>533.93</ele>
        <time>2020-10-08T12:23:08Z</time>
      </trkpt>
      <trkpt lat="46.21356" lon="6.27414">
        <ele>534.59</ele>
        <time>2020-10-08T12:23:15Z</time>
      </trkpt>
      <trkpt lat="46.21359" lon="6.27441">
        <ele>535.33</ele>
        <time>2020-10-08T12:23:22Z</time>
      </trkpt>
      <trkpt lat="46.2136" lon="6.27468">
        <ele>536.3</ele>
        <time>2020-10-08T12:23:28Z</time>
      </trkpt>
      <trkpt lat="46.21361" lon="6.27493">
        <ele>536.81</ele>
        <time>2020-10-08T12:23:35Z</time>
      </trkpt>
      <trkpt lat="46.21361" lon="6.2752">
        <ele>537.03</ele>
        <time>2020-10-08T12:23:43Z</time>
      </trkpt>
      <trkpt lat="46.21362" lon="6.27547">
        <ele>537.45</ele>
        <time>2020-10-08T12:23:49Z</time>
      </trkpt>
      <trkpt lat="46.21363" lon="6.27577">
        <ele>537.67</ele>
        <time>2020-10-08T12:23:56Z</time>
      </trkpt>
      <trkpt lat="46.21365" lon="6.27604">
        <ele>538.04</ele>
        <time>2020-10-08T12:24:02Z</time>
      </trkpt>
      <trkpt lat="46.21367" lon="6.27632">
        <ele>538.27</ele>
        <time>2020-10-08T12:24:07Z</time>
      </trkpt>
      <trkpt lat="46.21355" lon="6.2764">
        <ele>539.16</ele>
        <time>2020-10-08T12:24:14Z</time>
      </trkpt>
      <trkpt lat="46.21338" lon="6.27628">
        <ele>539.6</ele>
        <time>2020-10-08T12:24:20Z</time>
      </trkpt>
      <trkpt lat="46.21318" lon="6.27617">
        <ele>539.8</ele>
        <time>2020-10-08T12:24:25Z</time>
      </trkpt>
      <trkpt lat="46.213" lon="6.27607">
        <ele>540.1</ele>
        <time>2020-10-08T12:24:30Z</time>
      </trkpt>
      <trkpt lat="46.21279" lon="6.27598">
        <ele>539.98</ele>
        <time>2020-10-08T12:24:35Z</time>
      </trkpt>
      <trkpt lat="46.2126" lon="6.27587">
        <ele>539.88</ele>
        <time>2020-10-08T12:24:39Z</time>
      </trkpt>
      <trkpt lat="46.21243" lon="6.27575">
        <ele>539.6</ele>
        <time>2020-10-08T12:24:43Z</time>
      </trkpt>
      <trkpt lat="46.21223" lon="6.27561">
        <ele>539.36</ele>
        <time>2020-10-08T12:24:48Z</time>
      </trkpt>
      <trkpt lat="46.21204" lon="6.27557">
        <ele>539.06</ele>
        <time>2020-10-08T12:24:53Z</time>
      </trkpt>
      <trkpt lat="46.21202" lon="6.27588">
        <ele>538.67</ele>
        <time>2020-10-08T12:24:58Z</time>
      </trkpt>
      <trkpt lat="46.21211" lon="6.27615">
        <ele>538.01</ele>
        <time>2020-10-08T12:25:02Z</time>
      </trkpt>
      <trkpt lat="46.21222" lon="6.27642">
        <ele>537.24</ele>
        <time>2020-10-08T12:25:06Z</time>
      </trkpt>
      <trkpt lat="46.21233" lon="6.27669">
        <ele>536.42</ele>
        <time>2020-10-08T12:25:10Z</time>
      </trkpt>
      <trkpt lat="46.21243" lon="6.27696">
        <ele>533.74</ele>
        <time>2020-10-08T12:25:29Z</time>
      </trkpt>
      <trkpt lat="46.21251" lon="6.27723">
        <ele>533.13</ele>
        <time>2020-10-08T12:25:34Z</time>
      </trkpt>
      <trkpt lat="46.21259" lon="6.2775">
        <ele>532.29</ele>
        <time>2020-10-08T12:25:38Z</time>
      </trkpt>
      <trkpt lat="46.21267" lon="6.27778">
        <ele>530.45</ele>
        <time>2020-10-08T12:25:43Z</time>
      </trkpt>
      <trkpt lat="46.21273" lon="6.27806">
        <ele>528.04</ele>
        <time>2020-10-08T12:25:48Z</time>
      </trkpt>
      <trkpt lat="46.21275" lon="6.27835">
        <ele>525.98</ele>
        <time>2020-10-08T12:25:52Z</time>
      </trkpt>
      <trkpt lat="46.21275" lon="6.27866">
        <ele>523.63</ele>
        <time>2020-10-08T12:25:57Z</time>
      </trkpt>
      <trkpt lat="46.21269" lon="6.27899">
        <ele>518.19</ele>
        <time>2020-10-08T12:26:26Z</time>
      </trkpt>
      <trkpt lat="46.21264" lon="6.27932">
        <ele>517.49</ele>
        <time>2020-10-08T12:26:31Z</time>
      </trkpt>
      <trkpt lat="46.21265" lon="6.27963">
        <ele>516.74</ele>
        <time>2020-10-08T12:26:35Z</time>
      </trkpt>
      <trkpt lat="46.2127" lon="6.27989">
        <ele>516.05</ele>
        <time>2020-10-08T12:26:39Z</time>
      </trkpt>
      <trkpt lat="46.21278" lon="6.28016">
        <ele>515.47</ele>
        <time>2020-10-08T12:26:44Z</time>
      </trkpt>
      <trkpt lat="46.21288" lon="6.28039">
        <ele>515.14</ele>
        <time>2020-10-08T12:26:50Z</time>
      </trkpt>
      <trkpt lat="46.213" lon="6.28058">
        <ele>515.16</ele>
        <time>2020-10-08T12:26:56Z</time>
      </trkpt>
      <trkpt lat="46.21317" lon="6.28077">
        <ele>515.32</ele>
        <time>2020-10-08T12:27:02Z</time>
      </trkpt>
      <trkpt lat="46.21325" lon="6.28099">
        <ele>515.81</ele>
        <time>2020-10-08T12:27:08Z</time>
      </trkpt>
      <trkpt lat="46.21319" lon="6.28124">
        <ele>515.99</ele>
        <time>2020-10-08T12:27:15Z</time>
      </trkpt>
      <trkpt lat="46.21328" lon="6.28146">
        <ele>515.95</ele>
        <time>2020-10-08T12:27:23Z</time>
      </trkpt>
      <trkpt lat="46.21349" lon="6.2816">
        <ele>515.94</ele>
        <time>2020-10-08T12:27:28Z</time>
      </trkpt>
      <trkpt lat="46.21364" lon="6.28175">
        <ele>515.83</ele>
        <time>2020-10-08T12:27:32Z</time>
      </trkpt>
      <trkpt lat="46.21382" lon="6.2819">
        <ele>515.76</ele>
        <time>2020-10-08T12:27:37Z</time>
      </trkpt>
      <trkpt lat="46.21398" lon="6.28205">
        <ele>515.88</ele>
        <time>2020-10-08T12:27:43Z</time>
      </trkpt>
      <trkpt lat="46.21413" lon="6.28219">
        <ele>516.37</ele>
        <time>2020-10-08T12:27:49Z</time>
      </trkpt>
      <trkpt lat="46.21429" lon="6.28227">
        <ele>517.92</ele>
        <time>2020-10-08T12:27:57Z</time>
      </trkpt>
      <trkpt lat="46.2143" lon="6.28255">
        <ele>518.55</ele>
        <time>2020-10-08T12:28:06Z</time>
      </trkpt>
      <trkpt lat="46.21429" lon="6.28284">
        <ele>518.43</ele>
        <time>2020-10-08T12:28:11Z</time>
      </trkpt>
      <trkpt lat="46.21428" lon="6.28312">
        <ele>518.32</ele>
        <time>2020-10-08T12:28:16Z</time>
      </trkpt>
      <trkpt lat="46.21438" lon="6.28336">
        <ele>517.9</ele>
        <time>2020-10-08T12:28:23Z</time>
      </trkpt>
      <trkpt lat="46.21448" lon="6.28359">
        <ele>517.7</ele>
        <time>2020-10-08T12:28:27Z</time>
      </trkpt>
      <trkpt lat="46.21458" lon="6.28388">
        <ele>517.74</ele>
        <time>2020-10-08T12:28:31Z</time>
      </trkpt>
      <trkpt lat="46.21465" lon="6.28418">
        <ele>517.93</ele>
        <time>2020-10-08T12:28:35Z</time>
      </trkpt>
      <trkpt lat="46.21469" lon="6.28449">
        <ele>517.96</ele>
        <time>2020-10-08T12:28:39Z</time>
      </trkpt>
      <trkpt lat="46.21472" lon="6.28475">
        <ele>518.14</ele>
        <time>2020-10-08T12:28:43Z</time>
      </trkpt>
      <trkpt lat="46.21476" lon="6.28501">
        <ele>518.67</ele>
        <time>2020-10-08T12:28:48Z</time>
      </trkpt>
      <trkpt lat="46.2148" lon="6.28532">
        <ele>518.87</ele>
        <time>2020-10-08T12:28:53Z</time>
      </trkpt>
      <trkpt lat="46.21485" lon="6.28557">
        <ele>518.82</ele>
        <time>2020-10-08T12:28:58Z</time>
      </trkpt>
      <trkpt lat="46.21491" lon="6.28585">
        <ele>518.87</ele>
        <time>2020-10-08T12:29:04Z</time>
      </trkpt>
      <trkpt lat="46.21496" lon="6.28614">
        <ele>519.2</ele>
        <time>2020-10-08T12:29:10Z</time>
      </trkpt>
      <trkpt lat="46.21505" lon="6.28642">
        <ele>519.48</ele>
        <time>2020-10-08T12:29:16Z</time>
      </trkpt>
      <trkpt lat="46.21513" lon="6.28668">
        <ele>519.84</ele>
        <time>2020-10-08T12:29:21Z</time>
      </trkpt>
      <trkpt lat="46.21524" lon="6.28697">
        <ele>520.12</ele>
        <time>2020-10-08T12:29:26Z</time>
      </trkpt>
      <trkpt lat="46.21533" lon="6.28722">
        <ele>520.25</ele>
        <time>2020-10-08T12:29:30Z</time>
      </trkpt>
      <trkpt lat="46.21544" lon="6.28747">
        <ele>520.43</ele>
        <time>2020-10-08T12:29:34Z</time>
      </trkpt>
      <trkpt lat="46.21555" lon="6.28773">
        <ele>520.72</ele>
        <time>2020-10-08T12:29:39Z</time>
      </trkpt>
      <trkpt lat="46.21566" lon="6.28799">
        <ele>521.02</ele>
        <time>2020-10-08T12:29:44Z</time>
      </trkpt>
      <trkpt lat="46.21576" lon="6.28822">
        <ele>521.14</ele>
        <time>2020-10-08T12:29:48Z</time>
      </trkpt>
      <trkpt lat="46.21589" lon="6.28845">
        <ele>521.29</ele>
        <time>2020-10-08T12:29:52Z</time>
      </trkpt>
      <trkpt lat="46.21601" lon="6.28867">
        <ele>521.68</ele>
        <time>2020-10-08T12:29:56Z</time>
      </trkpt>
      <trkpt lat="46.21613" lon="6.28892">
        <ele>522.05</ele>
        <time>2020-10-08T12:30:01Z</time>
      </trkpt>
      <trkpt lat="46.21624" lon="6.28915">
        <ele>522.22</ele>
        <time>2020-10-08T12:30:05Z</time>
      </trkpt>
      <trkpt lat="46.21636" lon="6.28938">
        <ele>522.37</ele>
        <time>2020-10-08T12:30:09Z</time>
      </trkpt>
      <trkpt lat="46.2165" lon="6.28962">
        <ele>522.61</ele>
        <time>2020-10-08T12:30:13Z</time>
      </trkpt>
      <trkpt lat="46.21662" lon="6.28989">
        <ele>522.8</ele>
        <time>2020-10-08T12:30:17Z</time>
      </trkpt>
      <trkpt lat="46.21673" lon="6.2901">
        <ele>522.98</ele>
        <time>2020-10-08T12:30:21Z</time>
      </trkpt>
      <trkpt lat="46.21684" lon="6.29032">
        <ele>523.14</ele>
        <time>2020-10-08T12:30:26Z</time>
      </trkpt>
      <trkpt lat="46.21697" lon="6.29056">
        <ele>523.31</ele>
        <time>2020-10-08T12:30:31Z</time>
      </trkpt>
      <trkpt lat="46.21709" lon="6.29081">
        <ele>523.5</ele>
        <time>2020-10-08T12:30:36Z</time>
      </trkpt>
      <trkpt lat="46.21722" lon="6.29108">
        <ele>523.8</ele>
        <time>2020-10-08T12:30:41Z</time>
      </trkpt>
      <trkpt lat="46.21733" lon="6.29132">
        <ele>524.17</ele>
        <time>2020-10-08T12:30:45Z</time>
      </trkpt>
      <trkpt lat="46.21745" lon="6.29157">
        <ele>524.43</ele>
        <time>2020-10-08T12:30:49Z</time>
      </trkpt>
      <trkpt lat="46.21754" lon="6.2918">
        <ele>524.84</ele>
        <time>2020-10-08T12:30:54Z</time>
      </trkpt>
      <trkpt lat="46.2176" lon="6.29209">
        <ele>525.3</ele>
        <time>2020-10-08T12:31:00Z</time>
      </trkpt>
      <trkpt lat="46.21762" lon="6.29241">
        <ele>525.43</ele>
        <time>2020-10-08T12:31:05Z</time>
      </trkpt>
      <trkpt lat="46.21759" lon="6.29268">
        <ele>525.7</ele>
        <time>2020-10-08T12:31:09Z</time>
      </trkpt>
      <trkpt lat="46.21755" lon="6.29295">
        <ele>526.08</ele>
        <time>2020-10-08T12:31:13Z</time>
      </trkpt>
      <trkpt lat="46.2175" lon="6.29325">
        <ele>526.47</ele>
        <time>2020-10-08T12:31:17Z</time>
      </trkpt>
      <trkpt lat="46.21752" lon="6.29355">
        <ele>526.9</ele>
        <time>2020-10-08T12:31:21Z</time>
      </trkpt>
      <trkpt lat="46.21762" lon="6.29383">
        <ele>527.2</ele>
        <time>2020-10-08T12:31:25Z</time>
      </trkpt>
      <trkpt lat="46.21775" lon="6.29408">
        <ele>527.65</ele>
        <time>2020-10-08T12:31:29Z</time>
      </trkpt>
      <trkpt lat="46.21792" lon="6.2943">
        <ele>527.85</ele>
        <time>2020-10-08T12:31:33Z</time>
      </trkpt>
      <trkpt lat="46.21808" lon="6.29449">
        <ele>527.81</ele>
        <time>2020-10-08T12:31:38Z</time>
      </trkpt>
      <trkpt lat="46.21825" lon="6.2947">
        <ele>527.84</ele>
        <time>2020-10-08T12:31:43Z</time>
      </trkpt>
      <trkpt lat="46.21837" lon="6.29493">
        <ele>528.07</ele>
        <time>2020-10-08T12:31:48Z</time>
      </trkpt>
      <trkpt lat="46.21834" lon="6.29522">
        <ele>528.35</ele>
        <time>2020-10-08T12:31:57Z</time>
      </trkpt>
      <trkpt lat="46.21844" lon="6.29545">
        <ele>528.45</ele>
        <time>2020-10-08T12:32:02Z</time>
      </trkpt>
      <trkpt lat="46.21854" lon="6.29567">
        <ele>528.65</ele>
        <time>2020-10-08T12:32:06Z</time>
      </trkpt>
      <trkpt lat="46.21865" lon="6.2959">
        <ele>528.85</ele>
        <time>2020-10-08T12:32:10Z</time>
      </trkpt>
      <trkpt lat="46.21881" lon="6.2961">
        <ele>529.1</ele>
        <time>2020-10-08T12:32:14Z</time>
      </trkpt>
      <trkpt lat="46.21896" lon="6.29631">
        <ele>529.41</ele>
        <time>2020-10-08T12:32:18Z</time>
      </trkpt>
      <trkpt lat="46.21908" lon="6.29654">
        <ele>529.73</ele>
        <time>2020-10-08T12:32:22Z</time>
      </trkpt>
      <trkpt lat="46.21917" lon="6.29677">
        <ele>529.93</ele>
        <time>2020-10-08T12:32:27Z</time>
      </trkpt>
      <trkpt lat="46.21928" lon="6.29701">
        <ele>530.04</ele>
        <time>2020-10-08T12:32:36Z</time>
      </trkpt>
      <trkpt lat="46.21942" lon="6.29725">
        <ele>530.32</ele>
        <time>2020-10-08T12:32:43Z</time>
      </trkpt>
      <trkpt lat="46.2196" lon="6.29744">
        <ele>530.5</ele>
        <time>2020-10-08T12:32:48Z</time>
      </trkpt>
      <trkpt lat="46.21973" lon="6.29764">
        <ele>530.67</ele>
        <time>2020-10-08T12:32:52Z</time>
      </trkpt>
      <trkpt lat="46.21988" lon="6.29781">
        <ele>530.92</ele>
        <time>2020-10-08T12:32:56Z</time>
      </trkpt>
      <trkpt lat="46.22005" lon="6.29799">
        <ele>531.3</ele>
        <time>2020-10-08T12:33:01Z</time>
      </trkpt>
      <trkpt lat="46.22023" lon="6.29806">
        <ele>531.45</ele>
        <time>2020-10-08T12:33:08Z</time>
      </trkpt>
      <trkpt lat="46.22044" lon="6.29813">
        <ele>531.56</ele>
        <time>2020-10-08T12:33:14Z</time>
      </trkpt>
      <trkpt lat="46.22064" lon="6.2982">
        <ele>531.82</ele>
        <time>2020-10-08T12:33:19Z</time>
      </trkpt>
      <trkpt lat="46.22086" lon="6.2983">
        <ele>532.26</ele>
        <time>2020-10-08T12:33:24Z</time>
      </trkpt>
      <trkpt lat="46.22107" lon="6.29843">
        <ele>532.61</ele>
        <time>2020-10-08T12:33:29Z</time>
      </trkpt>
      <trkpt lat="46.22122" lon="6.29859">
        <ele>532.8</ele>
        <time>2020-10-08T12:33:35Z</time>
      </trkpt>
      <trkpt lat="46.22137" lon="6.2988">
        <ele>533.2</ele>
        <time>2020-10-08T12:33:41Z</time>
      </trkpt>
      <trkpt lat="46.22155" lon="6.29899">
        <ele>533.37</ele>
        <time>2020-10-08T12:33:46Z</time>
      </trkpt>
      <trkpt lat="46.22172" lon="6.29913">
        <ele>533.56</ele>
        <time>2020-10-08T12:33:50Z</time>
      </trkpt>
      <trkpt lat="46.22189" lon="6.29927">
        <ele>533.95</ele>
        <time>2020-10-08T12:33:55Z</time>
      </trkpt>
      <trkpt lat="46.22207" lon="6.29939">
        <ele>534.44</ele>
        <time>2020-10-08T12:34:02Z</time>
      </trkpt>
      <trkpt lat="46.22226" lon="6.29954">
        <ele>534.99</ele>
        <time>2020-10-08T12:34:08Z</time>
      </trkpt>
      <trkpt lat="46.22243" lon="6.29968">
        <ele>535.48</ele>
        <time>2020-10-08T12:34:13Z</time>
      </trkpt>
      <trkpt lat="46.22261" lon="6.2998">
        <ele>536.29</ele>
        <time>2020-10-08T12:34:19Z</time>
      </trkpt>
      <trkpt lat="46.22276" lon="6.29993">
        <ele>536.92</ele>
        <time>2020-10-08T12:34:25Z</time>
      </trkpt>
      <trkpt lat="46.22295" lon="6.30005">
        <ele>537.57</ele>
        <time>2020-10-08T12:34:31Z</time>
      </trkpt>
      <trkpt lat="46.22313" lon="6.30021">
        <ele>538.05</ele>
        <time>2020-10-08T12:34:37Z</time>
      </trkpt>
      <trkpt lat="46.22328" lon="6.30036">
        <ele>538.71</ele>
        <time>2020-10-08T12:34:44Z</time>
      </trkpt>
      <trkpt lat="46.22344" lon="6.30056">
        <ele>539.48</ele>
        <time>2020-10-08T12:34:50Z</time>
      </trkpt>
      <trkpt lat="46.22358" lon="6.30072">
        <ele>540.08</ele>
        <time>2020-10-08T12:34:55Z</time>
      </trkpt>
      <trkpt lat="46.22374" lon="6.30089">
        <ele>540.82</ele>
        <time>2020-10-08T12:35:01Z</time>
      </trkpt>
      <trkpt lat="46.2239" lon="6.30104">
        <ele>541.34</ele>
        <time>2020-10-08T12:35:06Z</time>
      </trkpt>
      <trkpt lat="46.22408" lon="6.30117">
        <ele>541.86</ele>
        <time>2020-10-08T12:35:12Z</time>
      </trkpt>
      <trkpt lat="46.22425" lon="6.3013">
        <ele>542.38</ele>
        <time>2020-10-08T12:35:18Z</time>
      </trkpt>
      <trkpt lat="46.22443" lon="6.30139">
        <ele>543.23</ele>
        <time>2020-10-08T12:35:25Z</time>
      </trkpt>
      <trkpt lat="46.22462" lon="6.30153">
        <ele>544.1</ele>
        <time>2020-10-08T12:35:32Z</time>
      </trkpt>
      <trkpt lat="46.22481" lon="6.30159">
        <ele>544.47</ele>
        <time>2020-10-08T12:35:37Z</time>
      </trkpt>
      <trkpt lat="46.22498" lon="6.30171">
        <ele>544.89</ele>
        <time>2020-10-08T12:35:44Z</time>
      </trkpt>
      <trkpt lat="46.22518" lon="6.30188">
        <ele>545.27</ele>
        <time>2020-10-08T12:35:49Z</time>
      </trkpt>
      <trkpt lat="46.22539" lon="6.30202">
        <ele>545.25</ele>
        <time>2020-10-08T12:35:53Z</time>
      </trkpt>
      <trkpt lat="46.2256" lon="6.30216">
        <ele>544.96</ele>
        <time>2020-10-08T12:35:57Z</time>
      </trkpt>
      <trkpt lat="46.22581" lon="6.30218">
        <ele>544.6</ele>
        <time>2020-10-08T12:36:01Z</time>
      </trkpt>
      <trkpt lat="46.226" lon="6.30219">
        <ele>544.22</ele>
        <time>2020-10-08T12:36:05Z</time>
      </trkpt>
      <trkpt lat="46.22615" lon="6.30233">
        <ele>543.85</ele>
        <time>2020-10-08T12:36:09Z</time>
      </trkpt>
      <trkpt lat="46.22632" lon="6.30245">
        <ele>543.69</ele>
        <time>2020-10-08T12:36:14Z</time>
      </trkpt>
      <trkpt lat="46.22649" lon="6.30255">
        <ele>543.67</ele>
        <time>2020-10-08T12:36:19Z</time>
      </trkpt>
      <trkpt lat="46.22669" lon="6.3027">
        <ele>543.88</ele>
        <time>2020-10-08T12:36:24Z</time>
      </trkpt>
      <trkpt lat="46.22687" lon="6.30283">
        <ele>544.04</ele>
        <time>2020-10-08T12:36:28Z</time>
      </trkpt>
      <trkpt lat="46.22707" lon="6.30293">
        <ele>544.3</ele>
        <time>2020-10-08T12:36:33Z</time>
      </trkpt>
      <trkpt lat="46.22724" lon="6.30306">
        <ele>544.34</ele>
        <time>2020-10-08T12:36:38Z</time>
      </trkpt>
      <trkpt lat="46.22741" lon="6.30319">
        <ele>544.35</ele>
        <time>2020-10-08T12:36:42Z</time>
      </trkpt>
      <trkpt lat="46.22761" lon="6.30334">
        <ele>544.49</ele>
        <time>2020-10-08T12:36:46Z</time>
      </trkpt>
      <trkpt lat="46.22781" lon="6.30347">
        <ele>544.59</ele>
        <time>2020-10-08T12:36:50Z</time>
      </trkpt>
      <trkpt lat="46.22798" lon="6.30361">
        <ele>544.6</ele>
        <time>2020-10-08T12:36:54Z</time>
      </trkpt>
      <trkpt lat="46.22816" lon="6.30372">
        <ele>544.64</ele>
        <time>2020-10-08T12:36:59Z</time>
      </trkpt>
      <trkpt lat="46.22836" lon="6.30384">
        <ele>544.6</ele>
        <time>2020-10-08T12:37:04Z</time>
      </trkpt>
      <trkpt lat="46.22856" lon="6.30396">
        <ele>544.6</ele>
        <time>2020-10-08T12:37:08Z</time>
      </trkpt>
      <trkpt lat="46.22876" lon="6.30407">
        <ele>544.6</ele>
        <time>2020-10-08T12:37:12Z</time>
      </trkpt>
      <trkpt lat="46.22893" lon="6.30418">
        <ele>544.6</ele>
        <time>2020-10-08T12:37:16Z</time>
      </trkpt>
      <trkpt lat="46.22911" lon="6.30427">
        <ele>544.6</ele>
        <time>2020-10-08T12:37:21Z</time>
      </trkpt>
      <trkpt lat="46.2293" lon="6.30437">
        <ele>544.6</ele>
        <time>2020-10-08T12:37:26Z</time>
      </trkpt>
      <trkpt lat="46.2295" lon="6.30449">
        <ele>544.6</ele>
        <time>2020-10-08T12:37:31Z</time>
      </trkpt>
      <trkpt lat="46.22967" lon="6.30459">
        <ele>544.6</ele>
        <time>2020-10-08T12:37:35Z</time>
      </trkpt>
      <trkpt lat="46.22985" lon="6.30468">
        <ele>544.6</ele>
        <time>2020-10-08T12:37:40Z</time>
      </trkpt>
      <trkpt lat="46.23003" lon="6.30479">
        <ele>544.6</ele>
        <time>2020-10-08T12:37:45Z</time>
      </trkpt>
      <trkpt lat="46.2302" lon="6.30489">
        <ele>544.6</ele>
        <time>2020-10-08T12:37:49Z</time>
      </trkpt>
      <trkpt lat="46.23038" lon="6.30501">
        <ele>544.6</ele>
        <time>2020-10-08T12:37:53Z</time>
      </trkpt>
      <trkpt lat="46.23056" lon="6.30515">
        <ele>544.6</ele>
        <time>2020-10-08T12:37:58Z</time>
      </trkpt>
      <trkpt lat="46.23074" lon="6.30524">
        <ele>548.03</ele>
        <time>2020-10-08T12:38:03Z</time>
      </trkpt>
      <trkpt lat="46.23093" lon="6.30533">
        <ele>548.28</ele>
        <time>2020-10-08T12:38:08Z</time>
      </trkpt>
      <trkpt lat="46.2311" lon="6.30545">
        <ele>548.48</ele>
        <time>2020-10-08T12:38:12Z</time>
      </trkpt>
      <trkpt lat="46.23127" lon="6.3056">
        <ele>548.81</ele>
        <time>2020-10-08T12:38:16Z</time>
      </trkpt>
      <trkpt lat="46.23145" lon="6.30573">
        <ele>549.03</ele>
        <time>2020-10-08T12:38:21Z</time>
      </trkpt>
      <trkpt lat="46.23165" lon="6.30584">
        <ele>549.38</ele>
        <time>2020-10-08T12:38:27Z</time>
      </trkpt>
      <trkpt lat="46.23184" lon="6.30598">
        <ele>549.75</ele>
        <time>2020-10-08T12:38:32Z</time>
      </trkpt>
      <trkpt lat="46.23205" lon="6.30613">
        <ele>550.16</ele>
        <time>2020-10-08T12:38:37Z</time>
      </trkpt>
      <trkpt lat="46.23223" lon="6.30627">
        <ele>550.74</ele>
        <time>2020-10-08T12:38:43Z</time>
      </trkpt>
      <trkpt lat="46.23242" lon="6.30642">
        <ele>551.26</ele>
        <time>2020-10-08T12:38:49Z</time>
      </trkpt>
      <trkpt lat="46.23261" lon="6.30656">
        <ele>551.56</ele>
        <time>2020-10-08T12:38:54Z</time>
      </trkpt>
      <trkpt lat="46.2328" lon="6.30671">
        <ele>552.21</ele>
        <time>2020-10-08T12:38:59Z</time>
      </trkpt>
      <trkpt lat="46.23295" lon="6.30686">
        <ele>552.66</ele>
        <time>2020-10-08T12:39:03Z</time>
      </trkpt>
      <trkpt lat="46.2331" lon="6.30703">
        <ele>553.03</ele>
        <time>2020-10-08T12:39:08Z</time>
      </trkpt>
      <trkpt lat="46.23318" lon="6.30729">
        <ele>553.5</ele>
        <time>2020-10-08T12:39:14Z</time>
      </trkpt>
      <trkpt lat="46.23315" lon="6.30754">
        <ele>554.48</ele>
        <time>2020-10-08T12:39:27Z</time>
      </trkpt>
      <trkpt lat="46.23323" lon="6.30727">
        <ele>554.51</ele>
        <time>2020-10-08T12:39:43Z</time>
      </trkpt>
      <trkpt lat="46.23333" lon="6.30704">
        <ele>555.12</ele>
        <time>2020-10-08T12:39:51Z</time>
      </trkpt>
      <trkpt lat="46.23346" lon="6.30683">
        <ele>557.44</ele>
        <time>2020-10-08T12:40:00Z</time>
      </trkpt>
      <trkpt lat="46.23361" lon="6.30664">
        <ele>561.52</ele>
        <time>2020-10-08T12:40:11Z</time>
      </trkpt>
      <trkpt lat="46.23376" lon="6.30641">
        <ele>565.41</ele>
        <time>2020-10-08T12:40:23Z</time>
      </trkpt>
      <trkpt lat="46.23393" lon="6.30629">
        <ele>568.96</ele>
        <time>2020-10-08T12:40:34Z</time>
      </trkpt>
      <trkpt lat="46.23412" lon="6.30634">
        <ele>570.71</ele>
        <time>2020-10-08T12:40:44Z</time>
      </trkpt>
      <trkpt lat="46.2343" lon="6.30643">
        <ele>570.91</ele>
        <time>2020-10-08T12:40:49Z</time>
      </trkpt>
      <trkpt lat="46.23447" lon="6.30652">
        <ele>570.94</ele>
        <time>2020-10-08T12:40:53Z</time>
      </trkpt>
      <trkpt lat="46.23465" lon="6.30667">
        <ele>570.73</ele>
        <time>2020-10-08T12:40:57Z</time>
      </trkpt>
      <trkpt lat="46.23483" lon="6.30686">
        <ele>570.37</ele>
        <time>2020-10-08T12:41:01Z</time>
      </trkpt>
      <trkpt lat="46.23502" lon="6.30704">
        <ele>569.83</ele>
        <time>2020-10-08T12:41:05Z</time>
      </trkpt>
      <trkpt lat="46.23521" lon="6.30719">
        <ele>569.2</ele>
        <time>2020-10-08T12:41:09Z</time>
      </trkpt>
      <trkpt lat="46.23539" lon="6.30731">
        <ele>568.83</ele>
        <time>2020-10-08T12:41:13Z</time>
      </trkpt>
      <trkpt lat="46.23557" lon="6.30738">
        <ele>568.39</ele>
        <time>2020-10-08T12:41:17Z</time>
      </trkpt>
      <trkpt lat="46.23575" lon="6.30745">
        <ele>568.23</ele>
        <time>2020-10-08T12:41:22Z</time>
      </trkpt>
      <trkpt lat="46.23596" lon="6.30752">
        <ele>568.08</ele>
        <time>2020-10-08T12:41:28Z</time>
      </trkpt>
      <trkpt lat="46.23615" lon="6.3076">
        <ele>568.11</ele>
        <time>2020-10-08T12:41:32Z</time>
      </trkpt>
      <trkpt lat="46.23634" lon="6.30769">
        <ele>568.22</ele>
        <time>2020-10-08T12:41:37Z</time>
      </trkpt>
      <trkpt lat="46.23653" lon="6.30774">
        <ele>568.29</ele>
        <time>2020-10-08T12:41:43Z</time>
      </trkpt>
      <trkpt lat="46.23674" lon="6.30779">
        <ele>568.31</ele>
        <time>2020-10-08T12:41:48Z</time>
      </trkpt>
      <trkpt lat="46.23694" lon="6.30791">
        <ele>568.39</ele>
        <time>2020-10-08T12:41:52Z</time>
      </trkpt>
      <trkpt lat="46.23714" lon="6.30804">
        <ele>568.67</ele>
        <time>2020-10-08T12:41:56Z</time>
      </trkpt>
      <trkpt lat="46.23731" lon="6.30814">
        <ele>569.08</ele>
        <time>2020-10-08T12:42:00Z</time>
      </trkpt>
      <trkpt lat="46.23752" lon="6.3082">
        <ele>569.24</ele>
        <time>2020-10-08T12:42:05Z</time>
      </trkpt>
      <trkpt lat="46.23771" lon="6.30822">
        <ele>569.24</ele>
        <time>2020-10-08T12:42:10Z</time>
      </trkpt>
      <trkpt lat="46.23791" lon="6.30831">
        <ele>569.24</ele>
        <time>2020-10-08T12:42:16Z</time>
      </trkpt>
      <trkpt lat="46.23808" lon="6.30842">
        <ele>569.24</ele>
        <time>2020-10-08T12:42:20Z</time>
      </trkpt>
      <trkpt lat="46.23827" lon="6.30857">
        <ele>569.24</ele>
        <time>2020-10-08T12:42:24Z</time>
      </trkpt>
      <trkpt lat="46.23846" lon="6.30874">
        <ele>569.24</ele>
        <time>2020-10-08T12:42:28Z</time>
      </trkpt>
      <trkpt lat="46.23864" lon="6.30888">
        <ele>569.24</ele>
        <time>2020-10-08T12:42:32Z</time>
      </trkpt>
      <trkpt lat="46.23882" lon="6.30902">
        <ele>569.24</ele>
        <time>2020-10-08T12:42:36Z</time>
      </trkpt>
      <trkpt lat="46.23898" lon="6.30913">
        <ele>569.24</ele>
        <time>2020-10-08T12:42:40Z</time>
      </trkpt>
      <trkpt lat="46.23917" lon="6.30926">
        <ele>569.24</ele>
        <time>2020-10-08T12:42:45Z</time>
      </trkpt>
      <trkpt lat="46.23934" lon="6.30934">
        <ele>569.24</ele>
        <time>2020-10-08T12:42:50Z</time>
      </trkpt>
      <trkpt lat="46.23952" lon="6.30943">
        <ele>569.24</ele>
        <time>2020-10-08T12:42:55Z</time>
      </trkpt>
      <trkpt lat="46.23967" lon="6.30964">
        <ele>569.24</ele>
        <time>2020-10-08T12:43:01Z</time>
      </trkpt>
      <trkpt lat="46.23977" lon="6.30991">
        <ele>569.24</ele>
        <time>2020-10-08T12:43:06Z</time>
      </trkpt>
      <trkpt lat="46.23988" lon="6.31011">
        <ele>569.24</ele>
        <time>2020-10-08T12:43:10Z</time>
      </trkpt>
      <trkpt lat="46.24002" lon="6.3103">
        <ele>569.24</ele>
        <time>2020-10-08T12:43:14Z</time>
      </trkpt>
      <trkpt lat="46.24017" lon="6.31047">
        <ele>569.24</ele>
        <time>2020-10-08T12:43:18Z</time>
      </trkpt>
      <trkpt lat="46.24032" lon="6.31062">
        <ele>569.24</ele>
        <time>2020-10-08T12:43:22Z</time>
      </trkpt>
      <trkpt lat="46.24052" lon="6.31074">
        <ele>569.24</ele>
        <time>2020-10-08T12:43:27Z</time>
      </trkpt>
      <trkpt lat="46.24072" lon="6.31086">
        <ele>569.24</ele>
        <time>2020-10-08T12:43:32Z</time>
      </trkpt>
      <trkpt lat="46.24089" lon="6.31098">
        <ele>569.24</ele>
        <time>2020-10-08T12:43:38Z</time>
      </trkpt>
      <trkpt lat="46.24108" lon="6.3111">
        <ele>569.24</ele>
        <time>2020-10-08T12:43:46Z</time>
      </trkpt>
      <trkpt lat="46.24126" lon="6.3112">
        <ele>569.24</ele>
        <time>2020-10-08T12:43:54Z</time>
      </trkpt>
      <trkpt lat="46.24144" lon="6.31129">
        <ele>569.24</ele>
        <time>2020-10-08T12:44:01Z</time>
      </trkpt>
      <trkpt lat="46.24162" lon="6.31147">
        <ele>569.24</ele>
        <time>2020-10-08T12:44:05Z</time>
      </trkpt>
      <trkpt lat="46.24184" lon="6.31164">
        <ele>563.23</ele>
        <time>2020-10-08T12:44:09Z</time>
      </trkpt>
      <trkpt lat="46.24203" lon="6.31177">
        <ele>562.94</ele>
        <time>2020-10-08T12:44:13Z</time>
      </trkpt>
      <trkpt lat="46.24212" lon="6.31157">
        <ele>562.13</ele>
        <time>2020-10-08T12:44:20Z</time>
      </trkpt>
      <trkpt lat="46.24212" lon="6.31129">
        <ele>561.95</ele>
        <time>2020-10-08T12:44:25Z</time>
      </trkpt>
      <trkpt lat="46.2422" lon="6.31098">
        <ele>562.48</ele>
        <time>2020-10-08T12:44:30Z</time>
      </trkpt>
      <trkpt lat="46.2423" lon="6.31072">
        <ele>562.93</ele>
        <time>2020-10-08T12:44:34Z</time>
      </trkpt>
      <trkpt lat="46.24241" lon="6.31046">
        <ele>563.56</ele>
        <time>2020-10-08T12:44:38Z</time>
      </trkpt>
      <trkpt lat="46.2425" lon="6.31022">
        <ele>564.34</ele>
        <time>2020-10-08T12:44:42Z</time>
      </trkpt>
      <trkpt lat="46.2426" lon="6.30996">
        <ele>565.41</ele>
        <time>2020-10-08T12:44:48Z</time>
      </trkpt>
      <trkpt lat="46.24271" lon="6.30971">
        <ele>566.12</ele>
        <time>2020-10-08T12:44:54Z</time>
      </trkpt>
      <trkpt lat="46.24288" lon="6.30965">
        <ele>566.45</ele>
        <time>2020-10-08T12:45:02Z</time>
      </trkpt>
      <trkpt lat="46.24307" lon="6.30978">
        <ele>566.28</ele>
        <time>2020-10-08T12:45:06Z</time>
      </trkpt>
      <trkpt lat="46.24329" lon="6.3099">
        <ele>565.99</ele>
        <time>2020-10-08T12:45:10Z</time>
      </trkpt>
      <trkpt lat="46.24352" lon="6.31004">
        <ele>565.64</ele>
        <time>2020-10-08T12:45:14Z</time>
      </trkpt>
      <trkpt lat="46.24369" lon="6.31018">
        <ele>565.13</ele>
        <time>2020-10-08T12:45:17Z</time>
      </trkpt>
      <trkpt lat="46.24385" lon="6.31036">
        <ele>564.24</ele>
        <time>2020-10-08T12:45:21Z</time>
      </trkpt>
      <trkpt lat="46.244" lon="6.31041">
        <ele>563.56</ele>
        <time>2020-10-08T12:45:28Z</time>
      </trkpt>
      <trkpt lat="46.24418" lon="6.31026">
        <ele>563.5</ele>
        <time>2020-10-08T12:45:33Z</time>
      </trkpt>
      <trkpt lat="46.24437" lon="6.31022">
        <ele>563.98</ele>
        <time>2020-10-08T12:45:37Z</time>
      </trkpt>
      <trkpt lat="46.24459" lon="6.31016">
        <ele>564.76</ele>
        <time>2020-10-08T12:45:41Z</time>
      </trkpt>
      <trkpt lat="46.24481" lon="6.31014">
        <ele>565.43</ele>
        <time>2020-10-08T12:45:45Z</time>
      </trkpt>
      <trkpt lat="46.24499" lon="6.31012">
        <ele>565.85</ele>
        <time>2020-10-08T12:45:49Z</time>
      </trkpt>
      <trkpt lat="46.24521" lon="6.3101">
        <ele>566.23</ele>
        <time>2020-10-08T12:45:55Z</time>
      </trkpt>
      <trkpt lat="46.24537" lon="6.30997">
        <ele>566.61</ele>
        <time>2020-10-08T12:45:59Z</time>
      </trkpt>
      <trkpt lat="46.24555" lon="6.30975">
        <ele>567.08</ele>
        <time>2020-10-08T12:46:03Z</time>
      </trkpt>
      <trkpt lat="46.24571" lon="6.30952">
        <ele>567.76</ele>
        <time>2020-10-08T12:46:07Z</time>
      </trkpt>
      <trkpt lat="46.24589" lon="6.30939">
        <ele>567.98</ele>
        <time>2020-10-08T12:46:11Z</time>
      </trkpt>
      <trkpt lat="46.24608" lon="6.30935">
        <ele>567.97</ele>
        <time>2020-10-08T12:46:15Z</time>
      </trkpt>
      <trkpt lat="46.2463" lon="6.30931">
        <ele>568.19</ele>
        <time>2020-10-08T12:46:19Z</time>
      </trkpt>
      <trkpt lat="46.2465" lon="6.30925">
        <ele>568.57</ele>
        <time>2020-10-08T12:46:23Z</time>
      </trkpt>
      <trkpt lat="46.24671" lon="6.30919">
        <ele>568.73</ele>
        <time>2020-10-08T12:46:28Z</time>
      </trkpt>
      <trkpt lat="46.24691" lon="6.30911">
        <ele>568.75</ele>
        <time>2020-10-08T12:46:32Z</time>
      </trkpt>
      <trkpt lat="46.24714" lon="6.30901">
        <ele>568.74</ele>
        <time>2020-10-08T12:46:36Z</time>
      </trkpt>
      <trkpt lat="46.24733" lon="6.30893">
        <ele>568.83</ele>
        <time>2020-10-08T12:46:39Z</time>
      </trkpt>
      <trkpt lat="46.24759" lon="6.30884">
        <ele>568.97</ele>
        <time>2020-10-08T12:46:43Z</time>
      </trkpt>
      <trkpt lat="46.24783" lon="6.30884">
        <ele>568.91</ele>
        <time>2020-10-08T12:46:47Z</time>
      </trkpt>
      <trkpt lat="46.24802" lon="6.30893">
        <ele>568.52</ele>
        <time>2020-10-08T12:46:51Z</time>
      </trkpt>
      <trkpt lat="46.24821" lon="6.30902">
        <ele>568.42</ele>
        <time>2020-10-08T12:46:55Z</time>
      </trkpt>
      <trkpt lat="46.24843" lon="6.30911">
        <ele>568.44</ele>
        <time>2020-10-08T12:46:59Z</time>
      </trkpt>
      <trkpt lat="46.24863" lon="6.30917">
        <ele>568.42</ele>
        <time>2020-10-08T12:47:02Z</time>
      </trkpt>
      <trkpt lat="46.24883" lon="6.30921">
        <ele>568.32</ele>
        <time>2020-10-08T12:47:05Z</time>
      </trkpt>
      <trkpt lat="46.24901" lon="6.30924">
        <ele>568.08</ele>
        <time>2020-10-08T12:47:08Z</time>
      </trkpt>
      <trkpt lat="46.24924" lon="6.30929">
        <ele>567.43</ele>
        <time>2020-10-08T12:47:12Z</time>
      </trkpt>
      <trkpt lat="46.24945" lon="6.30934">
        <ele>567.43</ele>
        <time>2020-10-08T12:47:16Z</time>
      </trkpt>
      <trkpt lat="46.24965" lon="6.3094">
        <ele>567.43</ele>
        <time>2020-10-08T12:47:20Z</time>
      </trkpt>
      <trkpt lat="46.24984" lon="6.30946">
        <ele>567.43</ele>
        <time>2020-10-08T12:47:24Z</time>
      </trkpt>
      <trkpt lat="46.25002" lon="6.30949">
        <ele>567.43</ele>
        <time>2020-10-08T12:47:28Z</time>
      </trkpt>
      <trkpt lat="46.25022" lon="6.30939">
        <ele>567.43</ele>
        <time>2020-10-08T12:47:33Z</time>
      </trkpt>
      <trkpt lat="46.25043" lon="6.30936">
        <ele>567.43</ele>
        <time>2020-10-08T12:47:38Z</time>
      </trkpt>
      <trkpt lat="46.25063" lon="6.30948">
        <ele>567.43</ele>
        <time>2020-10-08T12:47:42Z</time>
      </trkpt>
      <trkpt lat="46.25083" lon="6.30964">
        <ele>567.43</ele>
        <time>2020-10-08T12:47:46Z</time>
      </trkpt>
      <trkpt lat="46.251" lon="6.30977">
        <ele>567.43</ele>
        <time>2020-10-08T12:47:49Z</time>
      </trkpt>
      <trkpt lat="46.25118" lon="6.30988">
        <ele>567.43</ele>
        <time>2020-10-08T12:47:52Z</time>
      </trkpt>
      <trkpt lat="46.25136" lon="6.30996">
        <ele>567.43</ele>
        <time>2020-10-08T12:47:55Z</time>
      </trkpt>
      <trkpt lat="46.25155" lon="6.30999">
        <ele>567.43</ele>
        <time>2020-10-08T12:47:58Z</time>
      </trkpt>
      <trkpt lat="46.25174" lon="6.31002">
        <ele>567.43</ele>
        <time>2020-10-08T12:48:01Z</time>
      </trkpt>
      <trkpt lat="46.25193" lon="6.31007">
        <ele>567.43</ele>
        <time>2020-10-08T12:48:04Z</time>
      </trkpt>
      <trkpt lat="46.2521" lon="6.31013">
        <ele>567.43</ele>
        <time>2020-10-08T12:48:07Z</time>
      </trkpt>
      <trkpt lat="46.25231" lon="6.31024">
        <ele>567.43</ele>
        <time>2020-10-08T12:48:11Z</time>
      </trkpt>
      <trkpt lat="46.25248" lon="6.31033">
        <ele>567.43</ele>
        <time>2020-10-08T12:48:15Z</time>
      </trkpt>
      <trkpt lat="46.25267" lon="6.31043">
        <ele>567.43</ele>
        <time>2020-10-08T12:48:19Z</time>
      </trkpt>
      <trkpt lat="46.25286" lon="6.31052">
        <ele>567.43</ele>
        <time>2020-10-08T12:48:22Z</time>
      </trkpt>
      <trkpt lat="46.25306" lon="6.31061">
        <ele>567.43</ele>
        <time>2020-10-08T12:48:25Z</time>
      </trkpt>
      <trkpt lat="46.25324" lon="6.31076">
        <ele>567.43</ele>
        <time>2020-10-08T12:48:28Z</time>
      </trkpt>
      <trkpt lat="46.25338" lon="6.31097">
        <ele>567.43</ele>
        <time>2020-10-08T12:48:31Z</time>
      </trkpt>
      <trkpt lat="46.25349" lon="6.31118">
        <ele>567.43</ele>
        <time>2020-10-08T12:48:34Z</time>
      </trkpt>
      <trkpt lat="46.25358" lon="6.31148">
        <ele>567.43</ele>
        <time>2020-10-08T12:48:38Z</time>
      </trkpt>
      <trkpt lat="46.25365" lon="6.31178">
        <ele>567.43</ele>
        <time>2020-10-08T12:48:42Z</time>
      </trkpt>
      <trkpt lat="46.2537" lon="6.31203">
        <ele>567.43</ele>
        <time>2020-10-08T12:48:47Z</time>
      </trkpt>
      <trkpt lat="46.25384" lon="6.31197">
        <ele>567.43</ele>
        <time>2020-10-08T12:49:00Z</time>
      </trkpt>
      <trkpt lat="46.25396" lon="6.31167">
        <ele>567.43</ele>
        <time>2020-10-08T12:49:04Z</time>
      </trkpt>
      <trkpt lat="46.25407" lon="6.31139">
        <ele>567.43</ele>
        <time>2020-10-08T12:49:07Z</time>
      </trkpt>
      <trkpt lat="46.25419" lon="6.3111">
        <ele>567.43</ele>
        <time>2020-10-08T12:49:10Z</time>
      </trkpt>
      <trkpt lat="46.25432" lon="6.31079">
        <ele>564.97</ele>
        <time>2020-10-08T12:49:13Z</time>
      </trkpt>
      <trkpt lat="46.25445" lon="6.31047">
        <ele>563.6</ele>
        <time>2020-10-08T12:49:16Z</time>
      </trkpt>
      <trkpt lat="46.25458" lon="6.31014">
        <ele>562.91</ele>
        <time>2020-10-08T12:49:19Z</time>
      </trkpt>
      <trkpt lat="46.25472" lon="6.30982">
        <ele>562.09</ele>
        <time>2020-10-08T12:49:22Z</time>
      </trkpt>
      <trkpt lat="46.25486" lon="6.3095">
        <ele>560.63</ele>
        <time>2020-10-08T12:49:25Z</time>
      </trkpt>
      <trkpt lat="46.25499" lon="6.30918">
        <ele>559.29</ele>
        <time>2020-10-08T12:49:28Z</time>
      </trkpt>
      <trkpt lat="46.25512" lon="6.30887">
        <ele>558.08</ele>
        <time>2020-10-08T12:49:31Z</time>
      </trkpt>
      <trkpt lat="46.25522" lon="6.30859">
        <ele>557.11</ele>
        <time>2020-10-08T12:49:34Z</time>
      </trkpt>
      <trkpt lat="46.25526" lon="6.30833">
        <ele>556.02</ele>
        <time>2020-10-08T12:49:38Z</time>
      </trkpt>
      <trkpt lat="46.25528" lon="6.30803">
        <ele>555.11</ele>
        <time>2020-10-08T12:49:42Z</time>
      </trkpt>
      <trkpt lat="46.25534" lon="6.30772">
        <ele>554.01</ele>
        <time>2020-10-08T12:49:46Z</time>
      </trkpt>
      <trkpt lat="46.25539" lon="6.30743">
        <ele>552.81</ele>
        <time>2020-10-08T12:49:50Z</time>
      </trkpt>
      <trkpt lat="46.25548" lon="6.30712">
        <ele>551.7</ele>
        <time>2020-10-08T12:49:54Z</time>
      </trkpt>
      <trkpt lat="46.25555" lon="6.30684">
        <ele>550.94</ele>
        <time>2020-10-08T12:49:57Z</time>
      </trkpt>
      <trkpt lat="46.25558" lon="6.30653">
        <ele>550.11</ele>
        <time>2020-10-08T12:50:00Z</time>
      </trkpt>
      <trkpt lat="46.25557" lon="6.30621">
        <ele>549.13</ele>
        <time>2020-10-08T12:50:03Z</time>
      </trkpt>
      <trkpt lat="46.25558" lon="6.30588">
        <ele>548.25</ele>
        <time>2020-10-08T12:50:06Z</time>
      </trkpt>
      <trkpt lat="46.25562" lon="6.30555">
        <ele>547.34</ele>
        <time>2020-10-08T12:50:09Z</time>
      </trkpt>
      <trkpt lat="46.25567" lon="6.30519">
        <ele>546.38</ele>
        <time>2020-10-08T12:50:12Z</time>
      </trkpt>
      <trkpt lat="46.25573" lon="6.30492">
        <ele>545.67</ele>
        <time>2020-10-08T12:50:14Z</time>
      </trkpt>
      <trkpt lat="46.25591" lon="6.3046">
        <ele>544.06</ele>
        <time>2020-10-08T12:50:17Z</time>
      </trkpt>
      <trkpt lat="46.2561" lon="6.30439">
        <ele>542.55</ele>
        <time>2020-10-08T12:50:20Z</time>
      </trkpt>
      <trkpt lat="46.25624" lon="6.30414">
        <ele>541.74</ele>
        <time>2020-10-08T12:50:24Z</time>
      </trkpt>
      <trkpt lat="46.25634" lon="6.3039">
        <ele>542.02</ele>
        <time>2020-10-08T12:50:29Z</time>
      </trkpt>
      <trkpt lat="46.25644" lon="6.30367">
        <ele>542.06</ele>
        <time>2020-10-08T12:50:35Z</time>
      </trkpt>
      <trkpt lat="46.25651" lon="6.30342">
        <ele>540.91</ele>
        <time>2020-10-08T12:51:32Z</time>
      </trkpt>
      <trkpt lat="46.25659" lon="6.30314">
        <ele>540.71</ele>
        <time>2020-10-08T12:51:40Z</time>
      </trkpt>
      <trkpt lat="46.25668" lon="6.30287">
        <ele>540.16</ele>
        <time>2020-10-08T12:51:46Z</time>
      </trkpt>
      <trkpt lat="46.25675" lon="6.3026">
        <ele>539.94</ele>
        <time>2020-10-08T12:51:50Z</time>
      </trkpt>
      <trkpt lat="46.25683" lon="6.30233">
        <ele>539.72</ele>
        <time>2020-10-08T12:51:54Z</time>
      </trkpt>
      <trkpt lat="46.25691" lon="6.30206">
        <ele>539.51</ele>
        <time>2020-10-08T12:51:58Z</time>
      </trkpt>
      <trkpt lat="46.25699" lon="6.30178">
        <ele>539.08</ele>
        <time>2020-10-08T12:52:02Z</time>
      </trkpt>
      <trkpt lat="46.25707" lon="6.3015">
        <ele>538.47</ele>
        <time>2020-10-08T12:52:06Z</time>
      </trkpt>
      <trkpt lat="46.25715" lon="6.30121">
        <ele>537.95</ele>
        <time>2020-10-08T12:52:10Z</time>
      </trkpt>
      <trkpt lat="46.25723" lon="6.30094">
        <ele>537.59</ele>
        <time>2020-10-08T12:52:14Z</time>
      </trkpt>
      <trkpt lat="46.25731" lon="6.30069">
        <ele>536.99</ele>
        <time>2020-10-08T12:52:18Z</time>
      </trkpt>
      <trkpt lat="46.25737" lon="6.30044">
        <ele>536.43</ele>
        <time>2020-10-08T12:52:22Z</time>
      </trkpt>
      <trkpt lat="46.25744" lon="6.30019">
        <ele>535.95</ele>
        <time>2020-10-08T12:52:26Z</time>
      </trkpt>
      <trkpt lat="46.25752" lon="6.29993">
        <ele>535.23</ele>
        <time>2020-10-08T12:52:30Z</time>
      </trkpt>
      <trkpt lat="46.2576" lon="6.29966">
        <ele>534.43</ele>
        <time>2020-10-08T12:52:34Z</time>
      </trkpt>
      <trkpt lat="46.25768" lon="6.29938">
        <ele>533.65</ele>
        <time>2020-10-08T12:52:38Z</time>
      </trkpt>
      <trkpt lat="46.25776" lon="6.2991">
        <ele>533.1</ele>
        <time>2020-10-08T12:52:42Z</time>
      </trkpt>
      <trkpt lat="46.25784" lon="6.29882">
        <ele>532.53</ele>
        <time>2020-10-08T12:52:46Z</time>
      </trkpt>
      <trkpt lat="46.25794" lon="6.29852">
        <ele>531.75</ele>
        <time>2020-10-08T12:52:50Z</time>
      </trkpt>
      <trkpt lat="46.25802" lon="6.2982">
        <ele>530.84</ele>
        <time>2020-10-08T12:52:54Z</time>
      </trkpt>
      <trkpt lat="46.25806" lon="6.29788">
        <ele>529.62</ele>
        <time>2020-10-08T12:52:58Z</time>
      </trkpt>
      <trkpt lat="46.25792" lon="6.29769">
        <ele>528.77</ele>
        <time>2020-10-08T12:53:02Z</time>
      </trkpt>
      <trkpt lat="46.25773" lon="6.29759">
        <ele>528.21</ele>
        <time>2020-10-08T12:53:08Z</time>
      </trkpt>
      <trkpt lat="46.25756" lon="6.29748">
        <ele>528.22</ele>
        <time>2020-10-08T12:53:13Z</time>
      </trkpt>
      <trkpt lat="46.25739" lon="6.29737">
        <ele>528.47</ele>
        <time>2020-10-08T12:53:17Z</time>
      </trkpt>
      <trkpt lat="46.2572" lon="6.29725">
        <ele>528.79</ele>
        <time>2020-10-08T12:53:21Z</time>
      </trkpt>
      <trkpt lat="46.25702" lon="6.29715">
        <ele>529.45</ele>
        <time>2020-10-08T12:53:25Z</time>
      </trkpt>
      <trkpt lat="46.25681" lon="6.29701">
        <ele>529.61</ele>
        <time>2020-10-08T12:53:30Z</time>
      </trkpt>
      <trkpt lat="46.25663" lon="6.29689">
        <ele>529.69</ele>
        <time>2020-10-08T12:53:34Z</time>
      </trkpt>
      <trkpt lat="46.25643" lon="6.29677">
        <ele>529.8</ele>
        <time>2020-10-08T12:53:39Z</time>
      </trkpt>
      <trkpt lat="46.25624" lon="6.29667">
        <ele>529.68</ele>
        <time>2020-10-08T12:53:45Z</time>
      </trkpt>
      <trkpt lat="46.25605" lon="6.29654">
        <ele>529.35</ele>
        <time>2020-10-08T12:53:51Z</time>
      </trkpt>
      <trkpt lat="46.25593" lon="6.2963">
        <ele>528.88</ele>
        <time>2020-10-08T12:53:55Z</time>
      </trkpt>
      <trkpt lat="46.25592" lon="6.29601">
        <ele>525.09</ele>
        <time>2020-10-08T12:54:12Z</time>
      </trkpt>
      <trkpt lat="46.25588" lon="6.29569">
        <ele>523.8</ele>
        <time>2020-10-08T12:54:27Z</time>
      </trkpt>
      <trkpt lat="46.256" lon="6.29544">
        <ele>524.45</ele>
        <time>2020-10-08T12:54:35Z</time>
      </trkpt>
      <trkpt lat="46.25598" lon="6.29512">
        <ele>524.6</ele>
        <time>2020-10-08T12:54:42Z</time>
      </trkpt>
      <trkpt lat="46.2562" lon="6.29495">
        <ele>524.57</ele>
        <time>2020-10-08T12:54:50Z</time>
      </trkpt>
      <trkpt lat="46.25645" lon="6.29476">
        <ele>524.02</ele>
        <time>2020-10-08T12:55:02Z</time>
      </trkpt>
      <trkpt lat="46.25663" lon="6.29482">
        <ele>523.57</ele>
        <time>2020-10-08T12:55:14Z</time>
      </trkpt>
      <trkpt lat="46.25686" lon="6.29484">
        <ele>522.89</ele>
        <time>2020-10-08T12:55:26Z</time>
      </trkpt>
      <trkpt lat="46.25707" lon="6.29467">
        <ele>522.7</ele>
        <time>2020-10-08T12:55:33Z</time>
      </trkpt>
      <trkpt lat="46.25729" lon="6.29462">
        <ele>522.06</ele>
        <time>2020-10-08T12:55:44Z</time>
      </trkpt>
      <trkpt lat="46.25748" lon="6.29446">
        <ele>521.83</ele>
        <time>2020-10-08T12:55:51Z</time>
      </trkpt>
      <trkpt lat="46.25767" lon="6.2942">
        <ele>520.84</ele>
        <time>2020-10-08T12:56:08Z</time>
      </trkpt>
      <trkpt lat="46.25788" lon="6.294">
        <ele>520.81</ele>
        <time>2020-10-08T12:56:28Z</time>
      </trkpt>
      <trkpt lat="46.25786" lon="6.29382">
        <ele>520.75</ele>
        <time>2020-10-08T12:56:40Z</time>
      </trkpt>
      <trkpt lat="46.25791" lon="6.29357">
        <ele>520.96</ele>
        <time>2020-10-08T12:56:54Z</time>
      </trkpt>
      <trkpt lat="46.25773" lon="6.29335">
        <ele>521.05</ele>
        <time>2020-10-08T12:57:16Z</time>
      </trkpt>
      <trkpt lat="46.25766" lon="6.29309">
        <ele>521.51</ele>
        <time>2020-10-08T12:57:23Z</time>
      </trkpt>
      <trkpt lat="46.25776" lon="6.29286">
        <ele>521.63</ele>
        <time>2020-10-08T12:57:27Z</time>
      </trkpt>
      <trkpt lat="46.25793" lon="6.29269">
        <ele>521.67</ele>
        <time>2020-10-08T12:57:31Z</time>
      </trkpt>
      <trkpt lat="46.25813" lon="6.29253">
        <ele>521.75</ele>
        <time>2020-10-08T12:57:35Z</time>
      </trkpt>
      <trkpt lat="46.25832" lon="6.29234">
        <ele>521.7</ele>
        <time>2020-10-08T12:57:40Z</time>
      </trkpt>
      <trkpt lat="46.2585" lon="6.29207">
        <ele>521.66</ele>
        <time>2020-10-08T12:57:45Z</time>
      </trkpt>
      <trkpt lat="46.25857" lon="6.29173">
        <ele>521.77</ele>
        <time>2020-10-08T12:57:50Z</time>
      </trkpt>
      <trkpt lat="46.25862" lon="6.29142">
        <ele>521.86</ele>
        <time>2020-10-08T12:57:54Z</time>
      </trkpt>
      <trkpt lat="46.25866" lon="6.29111">
        <ele>521.94</ele>
        <time>2020-10-08T12:57:58Z</time>
      </trkpt>
      <trkpt lat="46.25877" lon="6.29086">
        <ele>521.82</ele>
        <time>2020-10-08T12:58:02Z</time>
      </trkpt>
      <trkpt lat="46.25893" lon="6.29064">
        <ele>521.05</ele>
        <time>2020-10-08T12:58:07Z</time>
      </trkpt>
      <trkpt lat="46.2591" lon="6.29035">
        <ele>520.07</ele>
        <time>2020-10-08T12:58:14Z</time>
      </trkpt>
      <trkpt lat="46.25927" lon="6.29014">
        <ele>518.91</ele>
        <time>2020-10-08T12:58:23Z</time>
      </trkpt>
      <trkpt lat="46.25948" lon="6.28981">
        <ele>518.36</ele>
        <time>2020-10-08T12:58:52Z</time>
      </trkpt>
      <trkpt lat="46.25957" lon="6.28954">
        <ele>518.39</ele>
        <time>2020-10-08T12:59:02Z</time>
      </trkpt>
      <trkpt lat="46.25955" lon="6.28927">
        <ele>518.27</ele>
        <time>2020-10-08T12:59:18Z</time>
      </trkpt>
      <trkpt lat="46.25967" lon="6.28898">
        <ele>518.77</ele>
        <time>2020-10-08T12:59:26Z</time>
      </trkpt>
      <trkpt lat="46.25988" lon="6.28884">
        <ele>518.77</ele>
        <time>2020-10-08T12:59:33Z</time>
      </trkpt>
      <trkpt lat="46.25996" lon="6.2886">
        <ele>518.77</ele>
        <time>2020-10-08T12:59:41Z</time>
      </trkpt>
      <trkpt lat="46.25987" lon="6.28831">
        <ele>518.77</ele>
        <time>2020-10-08T12:59:47Z</time>
      </trkpt>
      <trkpt lat="46.25977" lon="6.288">
        <ele>518.77</ele>
        <time>2020-10-08T12:59:53Z</time>
      </trkpt>
      <trkpt lat="46.25959" lon="6.28778">
        <ele>518.77</ele>
        <time>2020-10-08T12:59:57Z</time>
      </trkpt>
      <trkpt lat="46.25943" lon="6.28755">
        <ele>518.77</ele>
        <time>2020-10-08T13:00:01Z</time>
      </trkpt>
      <trkpt lat="46.25932" lon="6.28732">
        <ele>518.77</ele>
        <time>2020-10-08T13:00:07Z</time>
      </trkpt>
      <trkpt lat="46.25917" lon="6.28708">
        <ele>518.77</ele>
        <time>2020-10-08T13:00:14Z</time>
      </trkpt>
      <trkpt lat="46.25903" lon="6.28687">
        <ele>518.77</ele>
        <time>2020-10-08T13:00:19Z</time>
      </trkpt>
      <trkpt lat="46.25886" lon="6.2867">
        <ele>518.77</ele>
        <time>2020-10-08T13:00:23Z</time>
      </trkpt>
      <trkpt lat="46.25867" lon="6.28653">
        <ele>518.77</ele>
        <time>2020-10-08T13:00:27Z</time>
      </trkpt>
      <trkpt lat="46.25851" lon="6.28637">
        <ele>518.77</ele>
        <time>2020-10-08T13:00:31Z</time>
      </trkpt>
      <trkpt lat="46.25838" lon="6.28613">
        <ele>518.77</ele>
        <time>2020-10-08T13:00:37Z</time>
      </trkpt>
      <trkpt lat="46.2584" lon="6.28578">
        <ele>518.77</ele>
        <time>2020-10-08T13:00:43Z</time>
      </trkpt>
      <trkpt lat="46.25836" lon="6.2854">
        <ele>518.77</ele>
        <time>2020-10-08T13:00:48Z</time>
      </trkpt>
      <trkpt lat="46.25821" lon="6.28512">
        <ele>518.77</ele>
        <time>2020-10-08T13:00:52Z</time>
      </trkpt>
      <trkpt lat="46.25806" lon="6.28491">
        <ele>518.77</ele>
        <time>2020-10-08T13:00:56Z</time>
      </trkpt>
      <trkpt lat="46.25794" lon="6.28465">
        <ele>518.77</ele>
        <time>2020-10-08T13:01:01Z</time>
      </trkpt>
      <trkpt lat="46.2578" lon="6.28444">
        <ele>518.77</ele>
        <time>2020-10-08T13:01:06Z</time>
      </trkpt>
      <trkpt lat="46.25766" lon="6.28418">
        <ele>518.77</ele>
        <time>2020-10-08T13:01:11Z</time>
      </trkpt>
      <trkpt lat="46.25755" lon="6.2839">
        <ele>518.77</ele>
        <time>2020-10-08T13:01:15Z</time>
      </trkpt>
      <trkpt lat="46.25744" lon="6.2836">
        <ele>518.77</ele>
        <time>2020-10-08T13:01:19Z</time>
      </trkpt>
      <trkpt lat="46.25738" lon="6.28327">
        <ele>518.77</ele>
        <time>2020-10-08T13:01:23Z</time>
      </trkpt>
      <trkpt lat="46.25734" lon="6.28289">
        <ele>521.01</ele>
        <time>2020-10-08T13:01:28Z</time>
      </trkpt>
      <trkpt lat="46.25735" lon="6.28252">
        <ele>520.74</ele>
        <time>2020-10-08T13:01:34Z</time>
      </trkpt>
      <trkpt lat="46.25729" lon="6.28222">
        <ele>520.48</ele>
        <time>2020-10-08T13:01:40Z</time>
      </trkpt>
      <trkpt lat="46.25716" lon="6.28198">
        <ele>520.14</ele>
        <time>2020-10-08T13:01:48Z</time>
      </trkpt>
      <trkpt lat="46.25725" lon="6.28172">
        <ele>519.62</ele>
        <time>2020-10-08T13:01:55Z</time>
      </trkpt>
      <trkpt lat="46.25739" lon="6.28149">
        <ele>519.39</ele>
        <time>2020-10-08T13:01:59Z</time>
      </trkpt>
      <trkpt lat="46.25751" lon="6.28121">
        <ele>519.14</ele>
        <time>2020-10-08T13:02:03Z</time>
      </trkpt>
      <trkpt lat="46.25755" lon="6.2809">
        <ele>518.69</ele>
        <time>2020-10-08T13:02:08Z</time>
      </trkpt>
      <trkpt lat="46.25766" lon="6.28058">
        <ele>517.94</ele>
        <time>2020-10-08T13:02:14Z</time>
      </trkpt>
      <trkpt lat="46.25779" lon="6.28028">
        <ele>517.75</ele>
        <time>2020-10-08T13:02:18Z</time>
      </trkpt>
      <trkpt lat="46.25791" lon="6.28002">
        <ele>517.7</ele>
        <time>2020-10-08T13:02:22Z</time>
      </trkpt>
      <trkpt lat="46.25806" lon="6.27976">
        <ele>517.46</ele>
        <time>2020-10-08T13:02:27Z</time>
      </trkpt>
      <trkpt lat="46.25823" lon="6.2795">
        <ele>516.79</ele>
        <time>2020-10-08T13:02:35Z</time>
      </trkpt>
      <trkpt lat="46.25845" lon="6.27926">
        <ele>516.22</ele>
        <time>2020-10-08T13:02:41Z</time>
      </trkpt>
      <trkpt lat="46.25861" lon="6.27896">
        <ele>515.98</ele>
        <time>2020-10-08T13:02:46Z</time>
      </trkpt>
      <trkpt lat="46.25879" lon="6.27869">
        <ele>515.61</ele>
        <time>2020-10-08T13:02:51Z</time>
      </trkpt>
      <trkpt lat="46.25895" lon="6.27841">
        <ele>515.06</ele>
        <time>2020-10-08T13:02:57Z</time>
      </trkpt>
      <trkpt lat="46.25911" lon="6.27812">
        <ele>514.55</ele>
        <time>2020-10-08T13:03:03Z</time>
      </trkpt>
      <trkpt lat="46.25924" lon="6.27784">
        <ele>514.35</ele>
        <time>2020-10-08T13:03:07Z</time>
      </trkpt>
      <trkpt lat="46.25933" lon="6.27759">
        <ele>514.27</ele>
        <time>2020-10-08T13:03:10Z</time>
      </trkpt>
      <trkpt lat="46.25944" lon="6.27735">
        <ele>514.27</ele>
        <time>2020-10-08T13:03:13Z</time>
      </trkpt>
      <trkpt lat="46.25957" lon="6.27707">
        <ele>514.13</ele>
        <time>2020-10-08T13:03:17Z</time>
      </trkpt>
      <trkpt lat="46.25967" lon="6.27682">
        <ele>513.82</ele>
        <time>2020-10-08T13:03:21Z</time>
      </trkpt>
      <trkpt lat="46.25981" lon="6.27664">
        <ele>513.16</ele>
        <time>2020-10-08T13:03:26Z</time>
      </trkpt>
      <trkpt lat="46.25994" lon="6.2764">
        <ele>512.81</ele>
        <time>2020-10-08T13:03:30Z</time>
      </trkpt>
      <trkpt lat="46.26001" lon="6.27605">
        <ele>512.62</ele>
        <time>2020-10-08T13:03:34Z</time>
      </trkpt>
      <trkpt lat="46.25998" lon="6.27571">
        <ele>512.26</ele>
        <time>2020-10-08T13:03:38Z</time>
      </trkpt>
      <trkpt lat="46.25993" lon="6.27542">
        <ele>511.88</ele>
        <time>2020-10-08T13:03:42Z</time>
      </trkpt>
      <trkpt lat="46.25985" lon="6.27514">
        <ele>511.19</ele>
        <time>2020-10-08T13:03:47Z</time>
      </trkpt>
      <trkpt lat="46.25982" lon="6.27477">
        <ele>510.39</ele>
        <time>2020-10-08T13:03:53Z</time>
      </trkpt>
      <trkpt lat="46.2598" lon="6.27445">
        <ele>510.09</ele>
        <time>2020-10-08T13:03:57Z</time>
      </trkpt>
      <trkpt lat="46.25982" lon="6.27409">
        <ele>509.78</ele>
        <time>2020-10-08T13:04:01Z</time>
      </trkpt>
      <trkpt lat="46.25986" lon="6.27378">
        <ele>509.47</ele>
        <time>2020-10-08T13:04:05Z</time>
      </trkpt>
      <trkpt lat="46.25988" lon="6.27348">
        <ele>509.01</ele>
        <time>2020-10-08T13:04:09Z</time>
      </trkpt>
      <trkpt lat="46.2599" lon="6.27312">
        <ele>508.31</ele>
        <time>2020-10-08T13:04:14Z</time>
      </trkpt>
      <trkpt lat="46.25981" lon="6.27284">
        <ele>507.7</ele>
        <time>2020-10-08T13:04:19Z</time>
      </trkpt>
      <trkpt lat="46.25969" lon="6.27259">
        <ele>507.35</ele>
        <time>2020-10-08T13:04:23Z</time>
      </trkpt>
      <trkpt lat="46.25955" lon="6.2724">
        <ele>507.1</ele>
        <time>2020-10-08T13:04:26Z</time>
      </trkpt>
      <trkpt lat="46.25939" lon="6.27224">
        <ele>507.02</ele>
        <time>2020-10-08T13:04:29Z</time>
      </trkpt>
      <trkpt lat="46.25922" lon="6.27212">
        <ele>507.01</ele>
        <time>2020-10-08T13:04:32Z</time>
      </trkpt>
      <trkpt lat="46.25903" lon="6.27199">
        <ele>507</ele>
        <time>2020-10-08T13:04:36Z</time>
      </trkpt>
      <trkpt lat="46.25884" lon="6.27183">
        <ele>506.89</ele>
        <time>2020-10-08T13:04:41Z</time>
      </trkpt>
      <trkpt lat="46.2587" lon="6.27167">
        <ele>506.49</ele>
        <time>2020-10-08T13:04:46Z</time>
      </trkpt>
      <trkpt lat="46.25856" lon="6.2715">
        <ele>506.26</ele>
        <time>2020-10-08T13:04:52Z</time>
      </trkpt>
      <trkpt lat="46.2586" lon="6.27123">
        <ele>505.96</ele>
        <time>2020-10-08T13:04:58Z</time>
      </trkpt>
      <trkpt lat="46.25871" lon="6.27098">
        <ele>505.53</ele>
        <time>2020-10-08T13:05:02Z</time>
      </trkpt>
      <trkpt lat="46.25879" lon="6.27073">
        <ele>505.3</ele>
        <time>2020-10-08T13:05:05Z</time>
      </trkpt>
      <trkpt lat="46.2589" lon="6.27043">
        <ele>505.04</ele>
        <time>2020-10-08T13:05:09Z</time>
      </trkpt>
      <trkpt lat="46.259" lon="6.27016">
        <ele>504.77</ele>
        <time>2020-10-08T13:05:13Z</time>
      </trkpt>
      <trkpt lat="46.25908" lon="6.26992">
        <ele>504.39</ele>
        <time>2020-10-08T13:05:17Z</time>
      </trkpt>
      <trkpt lat="46.25914" lon="6.26967">
        <ele>504.14</ele>
        <time>2020-10-08T13:05:22Z</time>
      </trkpt>
      <trkpt lat="46.25918" lon="6.2694">
        <ele>504.11</ele>
        <time>2020-10-08T13:05:28Z</time>
      </trkpt>
      <trkpt lat="46.25922" lon="6.26909">
        <ele>504</ele>
        <time>2020-10-08T13:05:33Z</time>
      </trkpt>
      <trkpt lat="46.25926" lon="6.26876">
        <ele>503.97</ele>
        <time>2020-10-08T13:05:37Z</time>
      </trkpt>
      <trkpt lat="46.2593" lon="6.26843">
        <ele>503.98</ele>
        <time>2020-10-08T13:05:41Z</time>
      </trkpt>
      <trkpt lat="46.25934" lon="6.26812">
        <ele>503.8</ele>
        <time>2020-10-08T13:05:45Z</time>
      </trkpt>
      <trkpt lat="46.25936" lon="6.26783">
        <ele>503.46</ele>
        <time>2020-10-08T13:05:49Z</time>
      </trkpt>
      <trkpt lat="46.25941" lon="6.26754">
        <ele>503.21</ele>
        <time>2020-10-08T13:05:53Z</time>
      </trkpt>
      <trkpt lat="46.25945" lon="6.26723">
        <ele>502.93</ele>
        <time>2020-10-08T13:05:57Z</time>
      </trkpt>
      <trkpt lat="46.25949" lon="6.2669">
        <ele>502.66</ele>
        <time>2020-10-08T13:06:01Z</time>
      </trkpt>
      <trkpt lat="46.25955" lon="6.26658">
        <ele>502.08</ele>
        <time>2020-10-08T13:06:05Z</time>
      </trkpt>
      <trkpt lat="46.25962" lon="6.26627">
        <ele>501.34</ele>
        <time>2020-10-08T13:06:09Z</time>
      </trkpt>
      <trkpt lat="46.25968" lon="6.26595">
        <ele>500.76</ele>
        <time>2020-10-08T13:06:13Z</time>
      </trkpt>
      <trkpt lat="46.25975" lon="6.26572">
        <ele>498.86</ele>
        <time>2020-10-08T13:06:28Z</time>
      </trkpt>
      <trkpt lat="46.25993" lon="6.26581">
        <ele>499.08</ele>
        <time>2020-10-08T13:06:57Z</time>
      </trkpt>
      <trkpt lat="46.25976" lon="6.26569">
        <ele>499.25</ele>
        <time>2020-10-08T13:07:07Z</time>
      </trkpt>
      <trkpt lat="46.25961" lon="6.26547">
        <ele>499.15</ele>
        <time>2020-10-08T13:07:13Z</time>
      </trkpt>
      <trkpt lat="46.25965" lon="6.2652">
        <ele>498.88</ele>
        <time>2020-10-08T13:07:18Z</time>
      </trkpt>
      <trkpt lat="46.25969" lon="6.26493">
        <ele>498.8</ele>
        <time>2020-10-08T13:07:22Z</time>
      </trkpt>
      <trkpt lat="46.25972" lon="6.26466">
        <ele>498.67</ele>
        <time>2020-10-08T13:07:26Z</time>
      </trkpt>
      <trkpt lat="46.25991" lon="6.26467">
        <ele>498.1</ele>
        <time>2020-10-08T13:07:34Z</time>
      </trkpt>
      <trkpt lat="46.26012" lon="6.26477">
        <ele>497.78</ele>
        <time>2020-10-08T13:07:38Z</time>
      </trkpt>
      <trkpt lat="46.26029" lon="6.26486">
        <ele>497.72</ele>
        <time>2020-10-08T13:07:41Z</time>
      </trkpt>
      <trkpt lat="46.26047" lon="6.26495">
        <ele>497.67</ele>
        <time>2020-10-08T13:07:44Z</time>
      </trkpt>
      <trkpt lat="46.2607" lon="6.26505">
        <ele>497.51</ele>
        <time>2020-10-08T13:07:48Z</time>
      </trkpt>
      <trkpt lat="46.26091" lon="6.26516">
        <ele>497.33</ele>
        <time>2020-10-08T13:07:52Z</time>
      </trkpt>
      <trkpt lat="46.26111" lon="6.26525">
        <ele>497.26</ele>
        <time>2020-10-08T13:07:56Z</time>
      </trkpt>
      <trkpt lat="46.26131" lon="6.26536">
        <ele>496.98</ele>
        <time>2020-10-08T13:08:00Z</time>
      </trkpt>
      <trkpt lat="46.26148" lon="6.26546">
        <ele>496.71</ele>
        <time>2020-10-08T13:08:03Z</time>
      </trkpt>
      <trkpt lat="46.26166" lon="6.26553">
        <ele>496.56</ele>
        <time>2020-10-08T13:08:06Z</time>
      </trkpt>
      <trkpt lat="46.26184" lon="6.2656">
        <ele>496.43</ele>
        <time>2020-10-08T13:08:09Z</time>
      </trkpt>
      <trkpt lat="46.26206" lon="6.26571">
        <ele>496.29</ele>
        <time>2020-10-08T13:08:13Z</time>
      </trkpt>
      <trkpt lat="46.26226" lon="6.2658">
        <ele>496.12</ele>
        <time>2020-10-08T13:08:17Z</time>
      </trkpt>
      <trkpt lat="46.26244" lon="6.2659">
        <ele>495.89</ele>
        <time>2020-10-08T13:08:21Z</time>
      </trkpt>
      <trkpt lat="46.26263" lon="6.26603">
        <ele>495.66</ele>
        <time>2020-10-08T13:08:25Z</time>
      </trkpt>
      <trkpt lat="46.26286" lon="6.26616">
        <ele>495.69</ele>
        <time>2020-10-08T13:08:29Z</time>
      </trkpt>
      <trkpt lat="46.26303" lon="6.26626">
        <ele>495.78</ele>
        <time>2020-10-08T13:08:32Z</time>
      </trkpt>
      <trkpt lat="46.26324" lon="6.26639">
        <ele>495.95</ele>
        <time>2020-10-08T13:08:36Z</time>
      </trkpt>
      <trkpt lat="46.26341" lon="6.26651">
        <ele>495.97</ele>
        <time>2020-10-08T13:08:40Z</time>
      </trkpt>
      <trkpt lat="46.2636" lon="6.26661">
        <ele>495.97</ele>
        <time>2020-10-08T13:08:45Z</time>
      </trkpt>
      <trkpt lat="46.26379" lon="6.26671">
        <ele>495.88</ele>
        <time>2020-10-08T13:08:50Z</time>
      </trkpt>
      <trkpt lat="46.26398" lon="6.26676">
        <ele>495.78</ele>
        <time>2020-10-08T13:08:54Z</time>
      </trkpt>
      <trkpt lat="46.26422" lon="6.26672">
        <ele>495.58</ele>
        <time>2020-10-08T13:08:58Z</time>
      </trkpt>
      <trkpt lat="46.26441" lon="6.2667">
        <ele>495.37</ele>
        <time>2020-10-08T13:09:01Z</time>
      </trkpt>
      <trkpt lat="46.26464" lon="6.2667">
        <ele>495.17</ele>
        <time>2020-10-08T13:09:05Z</time>
      </trkpt>
      <trkpt lat="46.26487" lon="6.26671">
        <ele>494.72</ele>
        <time>2020-10-08T13:09:09Z</time>
      </trkpt>
      <trkpt lat="46.26508" lon="6.26679">
        <ele>494.37</ele>
        <time>2020-10-08T13:09:13Z</time>
      </trkpt>
      <trkpt lat="46.26526" lon="6.26688">
        <ele>494.2</ele>
        <time>2020-10-08T13:09:17Z</time>
      </trkpt>
      <trkpt lat="46.26546" lon="6.26699">
        <ele>493.84</ele>
        <time>2020-10-08T13:09:21Z</time>
      </trkpt>
      <trkpt lat="46.2657" lon="6.2671">
        <ele>492.9</ele>
        <time>2020-10-08T13:09:25Z</time>
      </trkpt>
      <trkpt lat="46.26593" lon="6.26725">
        <ele>491.91</ele>
        <time>2020-10-08T13:09:29Z</time>
      </trkpt>
      <trkpt lat="46.26607" lon="6.26724">
        <ele>487.78</ele>
        <time>2020-10-08T13:09:38Z</time>
      </trkpt>
      <trkpt lat="46.26601" lon="6.26694">
        <ele>486.82</ele>
        <time>2020-10-08T13:09:43Z</time>
      </trkpt>
      <trkpt lat="46.26594" lon="6.26661">
        <ele>486.42</ele>
        <time>2020-10-08T13:09:47Z</time>
      </trkpt>
      <trkpt lat="46.26592" lon="6.26634">
        <ele>486.19</ele>
        <time>2020-10-08T13:09:50Z</time>
      </trkpt>
      <trkpt lat="46.26589" lon="6.26601">
        <ele>485.99</ele>
        <time>2020-10-08T13:09:54Z</time>
      </trkpt>
      <trkpt lat="46.26587" lon="6.2657">
        <ele>485.74</ele>
        <time>2020-10-08T13:09:58Z</time>
      </trkpt>
      <trkpt lat="46.26586" lon="6.26542">
        <ele>485.51</ele>
        <time>2020-10-08T13:10:01Z</time>
      </trkpt>
      <trkpt lat="46.26584" lon="6.26514">
        <ele>485.38</ele>
        <time>2020-10-08T13:10:04Z</time>
      </trkpt>
      <trkpt lat="46.26583" lon="6.26488">
        <ele>485.24</ele>
        <time>2020-10-08T13:10:07Z</time>
      </trkpt>
      <trkpt lat="46.26581" lon="6.26456">
        <ele>484.9</ele>
        <time>2020-10-08T13:10:11Z</time>
      </trkpt>
      <trkpt lat="46.26579" lon="6.26428">
        <ele>484.65</ele>
        <time>2020-10-08T13:10:15Z</time>
      </trkpt>
      <trkpt lat="46.26576" lon="6.26398">
        <ele>484.41</ele>
        <time>2020-10-08T13:10:20Z</time>
      </trkpt>
      <trkpt lat="46.26573" lon="6.26373">
        <ele>484.14</ele>
        <time>2020-10-08T13:10:25Z</time>
      </trkpt>
      <trkpt lat="46.26567" lon="6.26349">
        <ele>484.02</ele>
        <time>2020-10-08T13:10:31Z</time>
      </trkpt>
      <trkpt lat="46.26562" lon="6.26324">
        <ele>484</ele>
        <time>2020-10-08T13:10:37Z</time>
      </trkpt>
      <trkpt lat="46.2656" lon="6.26298">
        <ele>483.81</ele>
        <time>2020-10-08T13:11:09Z</time>
      </trkpt>
      <trkpt lat="46.26556" lon="6.26269">
        <ele>483.88</ele>
        <time>2020-10-08T13:11:14Z</time>
      </trkpt>
      <trkpt lat="46.26553" lon="6.26241">
        <ele>484.12</ele>
        <time>2020-10-08T13:11:18Z</time>
      </trkpt>
      <trkpt lat="46.2655" lon="6.26211">
        <ele>484.57</ele>
        <time>2020-10-08T13:11:22Z</time>
      </trkpt>
      <trkpt lat="46.26552" lon="6.26179">
        <ele>484.98</ele>
        <time>2020-10-08T13:11:26Z</time>
      </trkpt>
      <trkpt lat="46.26557" lon="6.26153">
        <ele>485.19</ele>
        <time>2020-10-08T13:11:29Z</time>
      </trkpt>
      <trkpt lat="46.26563" lon="6.26128">
        <ele>485.3</ele>
        <time>2020-10-08T13:11:32Z</time>
      </trkpt>
      <trkpt lat="46.26574" lon="6.26097">
        <ele>485.14</ele>
        <time>2020-10-08T13:11:36Z</time>
      </trkpt>
      <trkpt lat="46.26584" lon="6.26068">
        <ele>484.59</ele>
        <time>2020-10-08T13:11:40Z</time>
      </trkpt>
      <trkpt lat="46.26591" lon="6.26041">
        <ele>484.17</ele>
        <time>2020-10-08T13:11:44Z</time>
      </trkpt>
      <trkpt lat="46.26593" lon="6.26012">
        <ele>483.67</ele>
        <time>2020-10-08T13:11:49Z</time>
      </trkpt>
      <trkpt lat="46.26589" lon="6.2598">
        <ele>483.38</ele>
        <time>2020-10-08T13:11:54Z</time>
      </trkpt>
      <trkpt lat="46.26584" lon="6.25952">
        <ele>483.35</ele>
        <time>2020-10-08T13:11:58Z</time>
      </trkpt>
      <trkpt lat="46.2658" lon="6.25926">
        <ele>483.55</ele>
        <time>2020-10-08T13:12:02Z</time>
      </trkpt>
      <trkpt lat="46.26574" lon="6.25896">
        <ele>484.24</ele>
        <time>2020-10-08T13:12:07Z</time>
      </trkpt>
      <trkpt lat="46.26564" lon="6.25872">
        <ele>484.93</ele>
        <time>2020-10-08T13:12:11Z</time>
      </trkpt>
      <trkpt lat="46.26548" lon="6.25854">
        <ele>485.66</ele>
        <time>2020-10-08T13:12:15Z</time>
      </trkpt>
      <trkpt lat="46.26531" lon="6.25837">
        <ele>486.09</ele>
        <time>2020-10-08T13:12:20Z</time>
      </trkpt>
      <trkpt lat="46.26515" lon="6.25825">
        <ele>486.21</ele>
        <time>2020-10-08T13:12:25Z</time>
      </trkpt>
      <trkpt lat="46.26499" lon="6.25807">
        <ele>486.36</ele>
        <time>2020-10-08T13:12:30Z</time>
      </trkpt>
      <trkpt lat="46.26495" lon="6.25777">
        <ele>486.43</ele>
        <time>2020-10-08T13:12:35Z</time>
      </trkpt>
      <trkpt lat="46.265" lon="6.25749">
        <ele>486.56</ele>
        <time>2020-10-08T13:12:39Z</time>
      </trkpt>
      <trkpt lat="46.26505" lon="6.25718">
        <ele>486.66</ele>
        <time>2020-10-08T13:12:43Z</time>
      </trkpt>
      <trkpt lat="46.2651" lon="6.2569">
        <ele>486.49</ele>
        <time>2020-10-08T13:12:47Z</time>
      </trkpt>
      <trkpt lat="46.26516" lon="6.25663">
        <ele>486.16</ele>
        <time>2020-10-08T13:12:51Z</time>
      </trkpt>
      <trkpt lat="46.26521" lon="6.25638">
        <ele>485.89</ele>
        <time>2020-10-08T13:12:55Z</time>
      </trkpt>
      <trkpt lat="46.26526" lon="6.25612">
        <ele>485.51</ele>
        <time>2020-10-08T13:12:59Z</time>
      </trkpt>
      <trkpt lat="46.26532" lon="6.25581">
        <ele>485.14</ele>
        <time>2020-10-08T13:13:04Z</time>
      </trkpt>
      <trkpt lat="46.2653" lon="6.25554">
        <ele>484.92</ele>
        <time>2020-10-08T13:13:09Z</time>
      </trkpt>
      <trkpt lat="46.26512" lon="6.25535">
        <ele>484.63</ele>
        <time>2020-10-08T13:13:14Z</time>
      </trkpt>
      <trkpt lat="46.26507" lon="6.25507">
        <ele>484.58</ele>
        <time>2020-10-08T13:13:18Z</time>
      </trkpt>
      <trkpt lat="46.26515" lon="6.25475">
        <ele>484.53</ele>
        <time>2020-10-08T13:13:22Z</time>
      </trkpt>
      <trkpt lat="46.26523" lon="6.25445">
        <ele>484.35</ele>
        <time>2020-10-08T13:13:26Z</time>
      </trkpt>
      <trkpt lat="46.26527" lon="6.25416">
        <ele>484</ele>
        <time>2020-10-08T13:13:30Z</time>
      </trkpt>
      <trkpt lat="46.26527" lon="6.25388">
        <ele>483.67</ele>
        <time>2020-10-08T13:13:34Z</time>
      </trkpt>
      <trkpt lat="46.26526" lon="6.25361">
        <ele>483.29</ele>
        <time>2020-10-08T13:13:39Z</time>
      </trkpt>
      <trkpt lat="46.26526" lon="6.25334">
        <ele>482.86</ele>
        <time>2020-10-08T13:13:47Z</time>
      </trkpt>
      <trkpt lat="46.26523" lon="6.25311">
        <ele>482.49</ele>
        <time>2020-10-08T13:30:41Z</time>
      </trkpt>
      <trkpt lat="46.26525" lon="6.25286">
        <ele>482.49</ele>
        <time>2020-10-08T13:30:59Z</time>
      </trkpt>
      <trkpt lat="46.2654" lon="6.25272">
        <ele>482.49</ele>
        <time>2020-10-08T13:31:20Z</time>
      </trkpt>
      <trkpt lat="46.26558" lon="6.25285">
        <ele>482.49</ele>
        <time>2020-10-08T13:31:27Z</time>
      </trkpt>
      <trkpt lat="46.26574" lon="6.25299">
        <ele>482.49</ele>
        <time>2020-10-08T13:31:34Z</time>
      </trkpt>
      <trkpt lat="46.26575" lon="6.25301">
        <ele>481.26</ele>
        <time>2020-10-08T13:32:21Z</time>
      </trkpt>
      <trkpt lat="46.26575" lon="6.25301">
        <ele>482.2</ele>
        <time>2020-10-08T13:32:24Z</time>
      </trkpt>
      <trkpt lat="46.26575" lon="6.25301">
        <ele>482.48</ele>
        <time>2020-10-08T13:33:03Z</time>
      </trkpt>
      <trkpt lat="46.2659" lon="6.25316">
        <ele>482.48</ele>
        <time>2020-10-08T13:33:24Z</time>
      </trkpt>
      <trkpt lat="46.26606" lon="6.25333">
        <ele>482.48</ele>
        <time>2020-10-08T13:33:32Z</time>
      </trkpt>
      <trkpt lat="46.26614" lon="6.25336">
        <ele>482.48</ele>
        <time>2020-10-08T13:34:14Z</time>
      </trkpt>
      <trkpt lat="46.26631" lon="6.25349">
        <ele>482.48</ele>
        <time>2020-10-08T13:34:25Z</time>
      </trkpt>
      <trkpt lat="46.2665" lon="6.25362">
        <ele>482.48</ele>
        <time>2020-10-08T13:34:31Z</time>
      </trkpt>
      <trkpt lat="46.26669" lon="6.25379">
        <ele>482.48</ele>
        <time>2020-10-08T13:34:36Z</time>
      </trkpt>
      <trkpt lat="46.26686" lon="6.25393">
        <ele>482.48</ele>
        <time>2020-10-08T13:34:40Z</time>
      </trkpt>
      <trkpt lat="46.26702" lon="6.25408">
        <ele>482.48</ele>
        <time>2020-10-08T13:34:44Z</time>
      </trkpt>
      <trkpt lat="46.2672" lon="6.25423">
        <ele>482.48</ele>
        <time>2020-10-08T13:34:48Z</time>
      </trkpt>
      <trkpt lat="46.26736" lon="6.25444">
        <ele>482.48</ele>
        <time>2020-10-08T13:34:52Z</time>
      </trkpt>
      <trkpt lat="46.26748" lon="6.25468">
        <ele>482.48</ele>
        <time>2020-10-08T13:34:56Z</time>
      </trkpt>
      <trkpt lat="46.26761" lon="6.25493">
        <ele>482.48</ele>
        <time>2020-10-08T13:35:00Z</time>
      </trkpt>
      <trkpt lat="46.26774" lon="6.25516">
        <ele>482.48</ele>
        <time>2020-10-08T13:35:04Z</time>
      </trkpt>
      <trkpt lat="46.26787" lon="6.25537">
        <ele>482.48</ele>
        <time>2020-10-08T13:35:08Z</time>
      </trkpt>
      <trkpt lat="46.26802" lon="6.25552">
        <ele>482.48</ele>
        <time>2020-10-08T13:35:12Z</time>
      </trkpt>
      <trkpt lat="46.26822" lon="6.25564">
        <ele>482.48</ele>
        <time>2020-10-08T13:35:17Z</time>
      </trkpt>
      <trkpt lat="46.2684" lon="6.25574">
        <ele>482.48</ele>
        <time>2020-10-08T13:35:22Z</time>
      </trkpt>
      <trkpt lat="46.26845" lon="6.25599">
        <ele>479.26</ele>
        <time>2020-10-08T13:35:28Z</time>
      </trkpt>
      <trkpt lat="46.26839" lon="6.25627">
        <ele>479.07</ele>
        <time>2020-10-08T13:35:34Z</time>
      </trkpt>
      <trkpt lat="46.2683" lon="6.2565">
        <ele>479.05</ele>
        <time>2020-10-08T13:35:41Z</time>
      </trkpt>
      <trkpt lat="46.26827" lon="6.25676">
        <ele>479.14</ele>
        <time>2020-10-08T13:35:47Z</time>
      </trkpt>
      <trkpt lat="46.26822" lon="6.25695">
        <ele>478.91</ele>
        <time>2020-10-08T13:36:26Z</time>
      </trkpt>
      <trkpt lat="46.26818" lon="6.25702">
        <ele>479.79</ele>
        <time>2020-10-08T13:37:26Z</time>
      </trkpt>
      <trkpt lat="46.26809" lon="6.25731">
        <ele>484.78</ele>
        <time>2020-10-08T14:36:40Z</time>
      </trkpt>
      <trkpt lat="46.26807" lon="6.25684">
        <ele>468.28</ele>
        <time>2020-10-08T14:44:45Z</time>
      </trkpt>
      <trkpt lat="46.26816" lon="6.25674">
        <ele>460.72</ele>
        <time>2020-10-08T16:38:21Z</time>
      </trkpt>
    </trkseg>
  </trk>
</gpx>